GFSCGP_sfc_temp_000.txt.gz
Temp
78 70 64 67 69 69 68 66 65 69 74 70 68 69 73 79 78 75 76 75 76 76 81 81 78 75 73 72 71 70 69 68 67 64 62 62 61 63 64 65 66 64 64 64
72 65 70 72 72 69 68 65 63 68 72 69 68 68 74 75 74 75 75 74 74 75 77 78 77 73 71 70 70 69 69 68 67 66 65 64 63 64 65 64 63 64 63 63
66 67 72 70 69 64 65 62 60 60 66 72 68 67 70 73 74 74 75 75 75 73 72 74 74 71 70 68 67 70 69 69 67 65 66 64 63 62 61 62 62 62 63 63
68 72 68 67 66 64 57 67 63 62 60 53 67 52 67 70 69 71 73 72 72 73 74 74 73 71 70 68 68 68 69 69 69 66 64 61 61 60 62 60 63 64 62 61
63 66 64 64 63 66 60 66 63 64 61 59 62 56 64 70 67 69 72 72 71 72 72 71 71 72 70 69 66 66 67 67 68 66 63 62 59 60 60 59 61 60 61 62
68 73 69 66 68 69 68 65 65 67 60 47 60 57 58 65 68 70 73 73 71 71 70 71 72 72 71 69 67 66 66 68 67 65 63 60 58 58 57 57 55 57 57 56
67 67 70 68 63 69 65 58 46 42 45 45 62 55 58 69 73 71 69 69 69 68 68 68 69 70 69 68 68 67 67 66 67 64 63 61 58 57 57 57 55 55 53 54
55 52 64 68 62 57 59 57 44 34 38 42 56 49 61 74 74 73 72 70 70 69 69 69 70 69 69 68 68 68 68 67 67 65 63 61 60 58 57 56 54 52 52 52
52 55 68 66 66 63 58 52 60 45 38 39 48 58 68 73 72 70 71 71 68 68 68 70 70 69 68 67 66 64 66 67 66 64 61 60 58 57 55 55 53 52 53 55
59 47 62 65 67 67 61 64 47 47 33 34 47 49 53 63 64 66 67 68 67 68 68 69 68 67 67 68 68 66 64 64 63 63 60 57 55 54 53 53 52 52 51 52
61 54 53 60 60 57 57 54 54 55 48 37 35 45 62 61 64 65 66 67 67 67 68 68 68 68 66 66 65 65 63 62 60 59 54 52 53 53 52 52 51 51 51 50
60 52 43 50 63 67 62 57 57 40 41 44 41 42 64 67 68 67 68 68 68 68 68 67 67 67 65 63 63 63 61 60 58 57 53 52 52 52 50 50 50 51 49 50
58 50 41 49 58 61 56 59 59 55 42 39 33 41 66 66 66 68 66 65 65 66 65 65 66 63 62 61 59 61 61 59 57 55 52 51 50 50 49 49 49 49 49 48
56 52 45 39 46 54 48 54 56 53 41 43 44 49 59 63 64 65 65 62 63 63 64 64 62 61 60 59 58 60 59 58 56 55 53 50 49 50 49 49 48 48 48 47
57 44 49 51 53 52 50 50 53 51 51 43 48 52 58 62 63 62 62 61 61 61 61 58 57 58 58 57 57 58 58 57 56 54 52 51 49 49 49 48 47 47 46 46
56 40 41 39 49 50 46 49 51 52 53 53 54 53 64 65 64 61 59 59 58 56 55 55 57 55 55 56 56 55 56 56 55 52 48 48 48 49 48 46 46 45 44 43
51 40 35 35 44 40 34 43 49 53 56 55 45 53 62 60 58 56 56 58 53 53 53 55 53 53 55 55 53 52 53 51 48 47 46 46 47 48 46 46 45 42 40 40
46 37 35 33 33 28 49 60 57 53 56 58 57 58 59 58 58 57 58 52 51 50 52 52 53 55 55 52 49 48 49 50 47 46 46 48 48 46 46 44 42 40 39 38
59 39 36 32 35 41 47 53 51 48 48 58 55 55 57 57 54 51 57 54 51 51 53 52 56 54 50 48 47 45 45 45 45 48 49 49 47 45 44 41 39 38 37 37
50 41 40 37 31 29 44 56 61 59 40 53 53 51 50 49 38 43 54 54 54 54 54 55 52 50 48 46 48 48 48 48 48 49 47 47 46 44 42 39 37 37 37 36
38 37 34 35 32 39 53 59 59 37 37 49 50 50 49 46 46 50 54 54 55 55 55 54 50 46 47 50 50 49 50 49 48 47 46 46 45 43 41 39 38 37 36 33
40 36 34 33 32 31 60 57 39 48 53 52 50 49 48 51 52 53 54 52 54 54 52 49 47 47 49 50 49 49 47 47 47 46 44 43 42 42 42 37 36 36 34 30
38 44 41 44 43 55 59 56 58 57 52 52 51 54 53 51 52 53 52 53 51 47 46 47 47 47 48 50 50 47 44 46 44 43 41 40 40 39 39 35 34 34 33 30
47 53 43 43 50 54 55 58 58 58 53 54 55 53 53 52 53 54 54 52 49 45 43 46 45 46 46 49 47 45 44 44 43 39 37 37 35 35 35 36 35 33 30 28
46 48 43 42 49 53 54 56 57 55 56 53 53 51 54 53 53 53 50 49 44 41 44 45 45 45 46 44 43 44 41 41 38 35 35 35 34 33 34 34 33 31 29 29
47 44 40 39 51 49 51 57 58 54 51 53 55 54 55 54 51 49 47 45 42 41 45 46 46 47 46 43 42 41 40 36 33 32 33 32 31 31 33 33 32 35 33 33

GFSCGP_sfc_temp_003.txt.gz
Temp
65 56 49 53 57 60 58 55 52 56 64 59 56 56 61 60 62 61 60 61 62 65 67 67 65 64 63 62 64 64 62 61 60 58 56 56 55 57 56 58 59 59 58 60
59 52 61 65 65 61 58 54 51 57 63 60 56 57 59 63 62 62 61 61 63 63 65 67 65 61 62 62 62 62 62 61 60 58 57 57 56 56 57 58 57 58 58 58
54 59 68 65 60 58 54 52 51 51 57 60 55 53 58 61 64 65 65 64 64 64 63 65 66 62 60 60 61 62 62 61 59 60 58 56 55 55 56 56 55 56 58 58
59 66 63 60 59 58 50 59 57 55 49 43 55 40 53 57 59 62 64 60 60 61 64 64 63 60 59 60 60 63 63 62 61 58 57 56 55 55 56 56 56 56 57 57
56 57 56 57 57 60 54 60 56 55 50 45 50 44 50 56 55 58 58 60 60 61 61 63 60 61 61 60 58 60 61 62 62 59 56 56 54 54 56 56 56 54 54 56
60 64 60 57 62 61 62 56 55 53 49 35 48 46 44 53 56 59 60 60 60 60 60 61 61 63 62 60 58 57 58 60 60 60 59 56 56 58 54 53 52 52 52 52
58 58 60 63 55 60 56 47 31 31 31 31 52 46 48 58 60 60 58 58 59 59 58 59 58 61 60 59 59 58 58 58 59 58 57 57 57 57 56 53 50 49 49 49
44 40 56 62 55 51 51 48 31 27 25 31 48 40 50 61 64 65 64 60 59 61 61 59 58 59 58 58 58 59 60 60 60 57 56 56 56 56 58 54 50 47 47 48
41 47 59 62 60 57 51 41 51 38 28 27 37 48 58 60 62 63 62 62 60 59 60 57 58 58 57 57 57 55 56 58 58 55 54 51 50 50 47 47 47 47 49 51
52 41 55 59 60 59 54 56 38 34 26 26 37 40 43 52 56 59 56 57 57 57 58 58 57 56 57 56 55 55 56 56 56 52 50 49 48 48 48 49 48 48 48 49
53 45 44 52 52 48 48 43 46 49 38 30 27 34 52 55 56 56 61 60 58 58 57 57 58 58 55 54 54 54 55 55 52 49 47 47 47 47 47 48 48 47 47 48
52 44 32 45 56 59 55 51 52 35 34 33 30 37 59 55 58 63 58 59 58 58 57 58 56 54 54 54 53 55 55 51 51 46 46 46 46 45 45 46 46 46 45 47
51 38 30 38 47 51 49 52 50 44 35 34 29 36 58 60 59 59 54 54 56 57 56 54 54 54 54 52 53 53 54 50 50 47 45 45 45 44 43 44 45 46 46 45
52 45 37 31 38 46 42 47 49 44 26 35 36 42 51 55 54 53 52 53 53 53 53 52 52 53 52 53 54 51 49 50 50 47 45 43 43 43 43 42 43 44 45 43
51 36 42 45 47 49 47 46 46 43 43 36 42 44 50 53 53 51 53 54 54 51 51 51 52 51 49 52 52 49 49 50 51 49 45 42 42 43 44 43 43 43 42 43
50 35 37 37 45 46 40 42 45 45 44 45 46 45 54 55 53 52 51 52 50 50 51 52 52 52 52 52 49 49 48 48 48 46 44 44 44 44 44 45 45 42 41 40
42 34 31 36 40 37 29 39 42 45 48 46 36 43 49 48 49 49 49 48 48 50 50 50 50 50 51 48 47 44 46 47 47 45 45 43 43 43 43 45 43 40 37 36
36 31 30 32 30 27 42 53 52 47 48 49 46 46 48 47 50 52 53 47 48 49 49 47 49 50 45 44 43 43 44 47 45 45 45 44 43 42 42 41 40 36 35 33
46 33 32 32 30 35 41 47 42 41 43 47 46 49 51 50 48 48 51 49 48 49 47 49 48 45 42 42 42 43 42 44 44 43 44 43 42 41 40 38 35 34 32 31
42 37 33 28 25 26 37 48 53 52 36 46 48 45 44 43 36 42 48 50 50 48 49 47 46 43 41 42 44 44 46 43 41 42 42 43 42 40 38 35 33 32 31 31
30 27 26 20 28 33 45 51 51 31 37 45 45 46 45 42 43 49 51 48 48 49 47 45 42 45 44 47 47 44 40 40 42 42 43 42 41 38 36 33 32 31 30 28
31 27 29 29 31 26 51 48 36 42 44 49 45 45 46 48 47 49 48 47 47 42 42 42 42 42 44 46 44 41 40 43 43 42 40 38 37 38 37 31 30 30 27 21
34 37 31 35 33 45 51 49 51 53 50 46 45 48 47 46 46 47 46 46 42 40 39 42 40 44 46 45 43 40 40 42 39 37 35 34 35 35 33 30 28 27 25 20
43 47 38 36 45 49 50 53 54 53 48 51 49 47 48 46 45 45 44 40 38 38 38 40 42 43 42 42 41 40 39 38 37 33 32 33 30 30 29 30 29 26 19 17
42 42 39 39 46 48 50 49 51 51 49 48 48 48 49 47 43 42 42 40 37 38 39 41 41 41 40 39 37 39 37 36 32 31 31 29 28 28 28 29 28 24 23 22
45 43 38 37 48 46 48 49 51 49 47 47 47 47 47 44 41 43 42 39 38 37 39 41 43 40 39 38 36 36 34 32 29 29 28 25 23 24 26 26 27 32 31 33

GFSCGP_sfc_temp_006.txt.gz
Temp
61 54 48 51 53 56 53 49 47 52 57 55 51 51 57 59 55 55 56 57 57 59 57 60 60 60 59 59 61 60 60 60 57 55 54 53 54 54 54 54 57 56 57 57
56 49 57 62 60 56 54 48 47 53 58 54 53 52 53 57 55 56 57 57 58 58 60 61 60 56 60 59 60 60 60 59 58 55 55 55 54 54 56 55 54 56 56 55
51 56 63 60 56 54 50 48 48 49 52 53 52 50 53 58 58 59 58 59 60 60 60 60 60 58 56 58 59 61 60 60 58 57 55 53 52 52 52 53 53 54 55 56
55 61 59 56 54 53 47 55 54 51 46 40 51 38 49 53 54 57 57 56 58 60 60 61 59 56 56 58 57 58 60 59 59 57 54 53 58 57 59 59 54 54 56 56
54 54 54 53 54 56 52 56 52 51 45 42 46 41 48 54 52 55 53 56 55 55 58 57 57 58 60 59 57 57 58 58 60 57 55 53 54 56 58 51 52 51 52 53
56 60 57 54 58 57 58 53 50 48 45 34 44 42 42 48 53 53 54 56 57 55 55 58 58 57 57 56 56 57 56 58 58 57 56 52 52 55 52 52 51 49 47 47
53 54 57 59 52 56 52 43 30 30 29 30 47 41 43 51 56 57 57 55 54 57 57 56 57 55 55 54 54 56 56 57 59 55 54 54 52 53 53 54 53 50 49 47
41 39 53 59 52 48 48 45 30 26 24 30 44 37 45 57 57 57 58 58 59 54 56 55 55 54 54 55 55 56 58 56 57 55 54 52 51 49 49 49 47 45 47 46
38 43 56 58 57 54 49 40 48 36 25 26 35 44 53 54 56 57 55 57 55 56 54 54 55 54 52 52 53 53 52 56 55 53 50 47 46 46 44 44 44 45 46 48
48 39 51 55 56 55 51 53 38 33 23 26 34 36 41 50 53 56 52 52 54 53 54 55 54 53 53 52 52 52 53 54 52 49 48 47 45 45 45 44 44 44 45 46
48 43 43 49 48 45 45 40 44 44 34 27 27 32 47 51 53 53 56 52 52 52 51 52 54 56 57 56 55 52 50 50 48 48 46 45 45 45 44 43 43 44 45 46
49 40 32 43 51 54 49 45 44 29 33 31 29 36 57 52 57 53 51 52 52 52 51 51 52 52 52 51 49 50 49 48 47 47 45 44 43 43 42 42 43 43 44 46
48 36 29 37 45 48 45 48 46 41 32 30 23 31 55 56 53 52 50 51 51 50 48 49 50 51 50 50 49 50 48 47 47 46 43 42 42 41 40 41 42 44 44 44
50 42 36 30 37 41 39 45 47 39 24 33 36 39 47 51 50 50 49 49 48 48 50 49 48 49 49 49 48 48 46 46 46 46 42 41 41 40 40 40 41 43 43 42
47 36 39 41 44 44 44 43 44 40 40 31 37 39 45 45 45 48 49 50 50 49 49 48 48 47 47 47 47 46 45 46 45 44 42 40 41 41 41 41 41 43 43 42
46 34 35 37 42 42 38 43 42 41 42 40 41 41 45 47 48 47 47 49 48 47 49 50 49 48 48 48 46 45 44 44 44 44 44 44 44 43 42 42 42 42 40 40
39 32 28 33 35 34 32 37 39 42 44 41 33 40 44 43 45 47 47 48 47 46 48 48 47 47 46 44 45 42 42 42 45 45 44 43 43 42 42 42 41 39 36 35
33 30 29 27 31 26 41 47 47 43 44 45 43 44 45 46 48 49 50 49 45 47 49 48 46 45 44 43 42 41 41 42 42 42 43 42 41 40 39 38 37 34 34 33
43 34 30 27 29 34 40 45 40 37 39 45 43 45 45 46 45 43 50 49 50 50 48 47 44 43 41 40 40 40 40 41 43 39 39 39 38 38 38 35 32 32 30 30
39 33 29 29 27 26 36 45 49 47 32 46 45 43 43 43 37 43 48 49 50 48 45 43 43 41 39 40 41 39 39 39 39 40 41 41 40 38 35 33 32 30 29 30
27 31 25 19 25 28 42 47 49 28 34 42 45 46 45 42 44 47 48 49 47 42 42 42 41 40 40 45 44 40 39 38 41 41 40 39 38 37 34 32 30 29 28 26
32 27 29 28 26 27 47 47 37 41 42 47 48 45 44 45 44 46 46 45 43 40 41 41 39 39 44 44 41 39 36 41 40 39 37 36 35 35 34 30 29 28 25 20
34 36 31 33 32 43 46 48 47 49 48 46 46 47 45 44 44 44 42 40 39 39 37 39 38 42 42 42 40 38 36 38 36 35 33 32 33 32 31 28 26 26 23 18
41 45 35 36 43 46 47 52 52 49 45 48 47 44 46 43 43 43 43 41 39 37 36 38 40 41 38 39 38 36 36 35 33 31 31 31 29 29 28 28 28 25 18 17
42 42 38 39 44 47 48 48 48 50 48 47 47 46 44 45 45 42 40 40 38 37 37 38 39 37 38 37 35 36 35 33 32 30 30 29 27 26 27 28 26 24 23 21
43 43 37 37 47 45 47 49 49 46 44 43 42 43 46 46 42 42 39 38 37 36 38 39 39 39 38 36 35 35 34 32 30 30 29 24 23 22 25 25 26 31 29 31

GFSCGP_sfc_temp_009.txt.gz
Temp
58 52 46 47 50 53 50 46 43 48 54 52 48 48 54 54 52 52 50 54 55 57 54 56 56 56 56 56 57 58 58 57 54 53 52 52 52 52 52 52 55 55 55 55
53 48 54 57 56 53 50 46 45 50 54 50 50 49 52 55 53 52 53 53 55 55 56 57 56 54 57 57 57 57 58 58 56 54 54 53 52 52 53 53 53 55 55 55
49 53 60 56 52 51 48 45 45 47 50 49 48 47 51 55 56 57 56 55 55 55 56 57 58 56 54 55 56 58 58 58 57 55 53 52 51 51 50 52 51 54 55 57
52 57 55 53 51 50 44 52 50 48 44 39 47 37 47 51 50 54 54 52 52 56 57 57 57 56 55 57 55 56 57 56 57 55 54 51 54 55 59 57 56 56 53 56
51 52 52 51 52 52 50 53 48 47 43 39 45 38 45 50 49 49 49 53 54 54 55 57 59 57 55 55 54 53 54 56 56 55 54 52 50 53 55 54 50 51 51 52
52 57 55 52 55 54 56 49 47 45 42 33 40 39 39 44 48 49 52 54 53 54 56 55 57 55 54 53 52 53 55 56 57 56 54 51 49 50 49 50 48 50 47 46
50 51 55 56 51 54 50 41 29 29 28 29 43 39 42 50 52 53 52 54 55 53 53 53 50 53 53 51 51 53 53 53 53 52 52 52 50 48 47 48 48 46 43 42
39 37 50 56 50 46 45 42 29 25 23 28 41 34 44 52 55 56 57 54 55 55 53 52 52 51 50 50 51 51 52 52 52 51 51 49 48 46 47 45 45 43 42 41
36 41 52 53 53 51 46 38 45 32 24 25 33 41 49 51 52 55 54 54 50 50 50 50 50 51 50 50 51 50 50 51 51 49 47 47 46 45 45 43 41 41 42 43
45 37 48 52 53 53 50 50 36 32 21 25 32 34 38 46 48 53 49 48 48 49 50 50 50 51 52 51 50 49 50 49 48 47 47 47 45 44 43 41 41 41 41 42
46 41 42 47 46 42 43 39 40 41 33 27 23 31 45 46 48 49 47 49 47 47 48 49 50 51 50 50 50 48 48 47 46 45 45 44 43 43 41 41 41 41 43 45
46 38 31 40 49 50 47 43 41 32 31 29 25 33 49 47 49 48 46 49 49 49 49 50 50 50 49 48 48 48 46 45 45 45 44 44 42 41 40 40 42 43 44 45
46 35 28 37 43 46 42 43 42 36 31 30 25 31 49 54 49 47 46 48 48 49 50 50 49 51 50 49 48 47 46 44 44 45 44 43 40 39 39 41 43 44 44 45
49 39 35 29 36 40 38 41 42 39 28 30 34 39 46 46 45 46 46 47 48 48 51 50 50 48 48 48 47 46 44 44 44 44 43 39 38 38 38 40 41 41 43 42
45 36 37 39 41 41 42 41 42 38 38 33 37 37 43 44 43 45 47 47 47 49 49 48 49 48 47 46 45 44 44 43 43 42 40 38 41 42 40 40 40 42 43 43
43 32 34 34 39 40 37 40 40 40 39 37 37 37 45 44 46 45 46 47 46 46 47 48 49 48 46 46 44 43 43 41 41 41 42 43 43 43 42 42 41 40 40 39
38 31 28 27 34 32 29 34 37 39 41 40 32 39 42 42 43 43 45 46 45 46 47 47 47 46 45 44 43 41 41 41 41 41 42 41 41 41 41 41 40 37 36 35
32 30 28 23 32 23 40 44 45 41 43 43 42 42 43 44 46 46 47 45 45 45 48 48 47 43 44 43 41 39 39 39 40 40 38 41 40 39 37 36 35 33 32 32
39 33 29 28 27 32 40 43 38 36 38 44 42 42 45 47 42 41 46 45 45 47 48 45 44 43 41 39 38 38 38 38 38 39 39 39 39 37 35 34 32 31 29 30
36 31 28 29 26 24 35 43 46 44 31 43 43 43 45 42 36 41 45 46 45 46 46 44 43 41 38 39 39 39 38 40 37 40 40 38 37 35 33 31 30 31 30 29
27 30 26 26 25 29 40 45 45 30 34 42 45 46 42 40 42 44 45 45 46 44 43 43 40 38 39 41 40 38 37 36 38 38 37 36 36 34 32 31 30 28 27 25
31 28 24 27 26 23 45 45 37 42 42 44 44 42 41 42 43 42 44 44 44 40 39 39 37 37 39 39 38 36 34 36 36 35 34 33 32 32 32 29 27 27 25 21
33 36 31 33 33 42 45 46 46 46 43 42 41 45 45 42 41 43 43 43 41 39 37 37 36 38 42 40 38 36 34 36 34 32 31 30 31 30 29 27 25 26 23 19
40 44 34 36 43 45 47 50 52 49 44 46 46 44 41 37 41 43 44 41 40 38 35 36 36 36 35 39 38 38 36 35 32 31 30 30 28 28 27 28 28 25 20 18
42 41 37 39 45 45 47 48 47 48 45 43 43 42 41 42 43 44 40 40 38 36 35 36 36 35 35 36 35 36 35 34 32 31 30 28 27 26 27 28 26 25 23 20
43 41 37 37 47 45 48 46 44 43 42 43 42 42 44 44 43 42 39 38 36 36 36 37 37 35 36 34 33 34 34 32 31 30 28 24 22 22 25 25 25 30 28 30

GFSCGP_sfc_temp_012.txt.gz
Temp
55 51 45 46 47 49 47 44 41 44 50 49 44 45 50 51 51 50 48 51 53 54 52 52 53 53 54 54 56 57 56 56 53 52 52 51 52 52 52 52 53 53 54 54
52 46 51 54 53 50 48 43 43 48 50 48 46 47 50 52 50 48 49 50 52 52 52 55 54 52 55 56 56 56 56 56 54 52 52 51 50 51 51 52 52 53 53 54
47 50 56 54 50 49 46 43 43 45 48 46 45 44 48 52 53 54 53 51 52 53 55 54 55 54 53 55 55 55 55 55 54 54 53 52 51 51 51 53 51 54 53 54
50 54 53 51 49 47 42 49 47 46 41 38 44 36 44 47 49 51 52 51 50 51 53 55 55 52 52 54 53 54 55 55 56 54 52 50 49 49 52 52 53 55 52 51
47 49 50 49 48 49 48 49 45 44 40 38 42 37 44 47 47 47 48 53 50 53 54 53 53 54 51 51 50 50 53 54 54 52 51 49 50 52 50 50 48 50 50 48
48 54 52 50 52 50 53 46 45 42 39 32 38 37 38 42 46 48 50 51 53 53 52 55 52 52 50 50 50 50 51 52 53 52 52 49 46 46 46 47 46 47 46 44
47 48 52 53 49 52 48 39 29 29 27 28 41 36 40 48 50 50 50 54 53 52 50 50 48 49 50 50 50 51 50 51 52 53 50 47 46 45 45 46 46 45 43 40
37 36 48 54 47 43 43 40 28 25 21 27 38 34 41 51 51 54 55 51 50 48 48 47 48 48 49 50 50 50 50 51 50 48 47 47 47 45 46 45 44 41 40 38
35 39 50 51 50 48 43 36 42 31 22 23 32 39 47 47 49 50 50 48 47 48 48 48 50 50 49 49 50 48 48 48 48 46 45 45 45 45 44 43 40 39 39 41
43 36 46 50 50 51 47 48 35 31 21 23 31 32 36 43 45 47 45 45 47 48 49 49 50 50 51 50 49 48 47 47 47 45 45 46 45 45 43 40 39 39 40 41
44 40 41 45 43 40 42 37 38 38 32 22 23 30 43 43 45 45 45 46 46 47 49 49 49 49 49 48 48 47 47 46 46 45 43 43 45 44 41 39 38 39 40 41
44 37 31 39 45 46 43 40 39 27 29 28 24 31 46 46 45 46 44 47 47 48 49 48 48 48 48 48 48 47 46 45 44 43 43 43 42 39 38 38 39 40 42 43
44 35 28 36 41 44 41 41 40 34 31 32 28 31 46 49 49 45 44 46 47 47 48 49 50 48 48 47 47 46 46 44 44 43 42 40 39 37 37 38 39 41 41 43
48 38 35 28 35 38 35 39 40 37 31 32 32 37 45 47 44 44 44 45 45 46 48 50 48 47 47 47 46 45 44 44 43 41 39 38 37 36 36 37 38 40 41 42
44 35 36 38 40 39 39 38 39 35 36 33 38 35 42 44 42 43 45 46 48 48 47 46 45 48 49 49 47 45 44 42 41 40 39 38 39 38 38 38 39 40 40 40
41 32 32 32 35 35 32 37 38 37 37 36 37 36 45 43 43 43 45 46 45 45 44 45 46 45 45 46 43 43 43 41 41 40 40 43 43 42 40 41 41 40 40 39
37 30 29 26 31 31 27 34 35 37 39 38 33 40 40 40 43 44 45 43 44 42 45 44 47 48 47 44 43 42 41 39 39 40 42 41 42 41 40 40 38 35 33 33
32 28 28 23 32 19 39 42 44 39 41 42 40 40 41 43 44 44 45 43 41 41 44 45 47 45 43 42 40 38 37 38 38 37 38 39 39 39 36 35 33 32 32 32
37 32 29 29 29 31 40 41 37 35 36 41 39 41 44 45 42 42 43 43 43 43 44 45 43 43 41 38 37 36 37 36 37 37 37 37 35 34 34 32 31 31 30 30
35 30 27 28 26 23 35 41 43 42 30 41 44 45 44 41 34 40 43 44 43 46 46 43 41 41 39 38 37 40 37 36 35 36 35 35 33 32 30 29 28 30 28 29
27 30 26 27 27 30 39 43 44 30 34 41 45 44 41 36 39 40 42 44 46 45 43 42 39 37 37 39 39 36 35 34 35 35 35 33 32 30 29 28 28 27 26 26
31 26 22 26 26 24 42 42 37 43 41 43 41 39 41 41 40 41 41 44 44 41 41 40 37 36 38 41 38 35 32 36 36 34 32 30 30 30 30 27 27 27 24 21
30 36 33 36 31 41 46 46 46 45 42 41 39 43 41 38 39 41 40 43 43 40 38 37 35 36 37 37 38 36 36 37 34 32 30 29 30 30 29 27 25 25 23 18
38 42 35 37 41 42 46 49 48 44 43 43 42 40 41 40 41 40 40 42 40 39 36 35 35 35 35 36 36 35 34 34 31 31 30 29 27 27 27 28 28 25 19 18
39 40 37 37 44 44 45 43 43 42 43 42 42 42 41 41 39 39 39 38 37 36 36 36 35 34 34 35 34 34 34 32 31 30 30 29 27 26 27 27 26 24 23 20
43 40 36 37 46 44 45 43 44 42 41 43 42 42 42 40 38 38 37 37 35 35 35 35 35 34 34 34 33 32 32 31 29 30 28 23 22 21 23 24 25 30 28 30

GFSCGP_sfc_temp_015.txt.gz
Temp
61 59 54 56 57 57 56 54 52 55 58 58 55 56 61 61 61 60 61 62 64 67 65 65 64 65 66 66 68 69 69 67 67 67 67 67 67 68 68 69 66 65 66 65
59 54 59 59 58 57 56 52 52 55 57 56 56 58 59 60 57 57 60 62 63 65 65 63 64 65 64 66 67 66 66 65 65 66 66 65 64 66 65 65 65 65 64 64
54 57 59 58 55 54 53 53 51 51 54 55 54 55 57 60 61 61 62 63 64 66 66 65 66 65 64 64 63 64 64 64 64 63 66 66 65 65 66 67 67 67 64 63
57 59 56 55 54 54 49 55 53 51 50 49 52 48 54 55 58 60 61 63 64 64 66 65 65 64 61 61 61 63 64 65 64 63 63 60 61 60 63 62 63 63 62 62
54 55 54 54 54 56 53 54 51 51 49 49 50 50 53 55 55 57 59 61 63 63 62 62 60 60 60 60 60 61 63 63 62 61 60 60 59 60 60 60 59 59 61 60
54 60 58 57 57 56 56 52 50 49 48 42 45 46 47 51 52 56 61 62 60 61 60 60 60 61 61 60 60 61 62 62 62 61 60 58 57 56 57 58 58 59 59 58
52 54 57 57 55 57 54 48 42 40 39 40 46 45 47 52 55 57 58 59 57 57 57 58 59 60 61 61 60 61 61 61 60 59 57 57 56 56 55 56 57 55 55 55
43 44 53 56 54 51 50 48 39 33 34 38 44 41 47 55 57 59 57 55 56 56 56 57 58 59 60 59 59 60 59 59 59 58 57 56 57 56 55 55 54 52 52 51
42 45 54 55 55 55 50 44 48 37 28 34 42 46 52 54 55 55 55 56 55 56 56 58 59 59 60 59 58 57 57 58 58 57 55 55 54 54 54 53 52 50 50 50
48 42 51 54 56 55 53 52 43 41 32 30 40 40 46 48 51 52 53 53 54 56 58 60 61 60 59 59 59 56 59 57 57 57 55 54 54 54 52 51 49 49 49 50
50 45 47 50 48 46 48 46 44 44 39 33 28 39 50 50 51 52 54 53 54 56 58 60 60 60 59 58 59 58 57 56 56 55 53 52 52 51 49 48 48 48 50 50
49 43 39 46 50 52 50 46 45 38 35 37 34 38 53 53 52 53 54 52 55 56 57 58 58 58 57 58 58 57 56 55 53 52 52 50 49 48 47 47 48 48 49 49
50 41 36 42 47 50 47 47 43 41 38 36 32 39 52 53 55 54 53 54 55 55 57 57 57 56 56 57 56 56 54 52 52 52 50 48 47 46 46 46 47 48 48 48
50 42 40 37 42 45 41 43 44 43 35 37 38 43 50 53 52 52 52 53 55 54 55 55 55 54 53 53 52 51 51 52 51 49 48 46 45 45 45 46 46 46 47 46
49 40 41 42 44 42 42 42 42 40 42 36 42 43 48 51 50 51 53 53 52 54 53 51 50 51 51 51 51 51 51 50 49 48 47 46 45 45 44 45 46 47 47 47
45 39 38 35 39 39 36 41 41 41 42 41 42 41 52 51 51 51 51 51 50 49 47 49 50 51 50 49 49 48 48 47 46 45 45 45 44 45 46 46 46 45 44 43
42 37 33 32 35 35 32 40 41 43 45 44 39 48 48 48 49 50 51 50 45 44 46 46 48 49 48 48 48 46 46 46 45 44 45 45 45 45 44 44 43 41 40 41
34 34 32 32 32 29 44 48 48 44 46 46 45 46 48 50 52 51 48 44 42 43 43 47 49 48 48 48 47 45 45 45 44 44 44 44 43 42 41 41 40 40 40 39
41 34 31 30 32 36 43 46 45 42 43 49 46 48 50 52 50 48 44 45 43 43 47 50 50 48 47 46 46 45 45 44 44 43 43 42 41 40 40 39 38 38 38 37
37 35 35 31 28 27 40 47 49 48 38 48 48 47 47 47 36 44 42 43 45 48 51 49 49 47 46 47 46 44 45 43 41 42 42 41 40 39 38 37 37 37 37 36
30 32 31 32 29 34 44 46 48 34 38 45 47 48 46 42 39 40 42 45 48 49 49 50 47 45 45 46 46 43 42 41 43 42 41 40 39 38 38 37 37 37 36 34
36 33 30 30 27 27 47 46 40 46 47 48 48 46 44 41 41 41 44 45 47 47 48 48 45 44 46 46 44 43 43 45 44 41 39 39 38 38 37 37 37 36 35 32
35 39 37 37 37 46 48 49 51 49 44 45 44 41 41 39 41 45 44 46 46 46 47 46 44 43 44 45 44 42 44 43 41 40 39 39 38 37 37 36 35 34 34 31
41 44 38 39 46 48 49 53 47 47 43 43 43 43 44 42 44 44 45 45 45 45 44 44 43 42 42 45 43 43 43 42 40 39 38 38 37 36 37 36 35 34 32 30
44 42 39 39 46 48 48 46 45 43 43 43 45 44 44 44 44 45 44 43 43 42 43 42 41 41 42 43 41 42 41 40 38 37 37 36 35 34 34 34 34 32 32 30
44 42 38 39 49 46 44 43 44 42 43 45 44 44 46 45 43 43 42 42 41 40 41 40 41 40 40 40 39 39 38 38 37 36 36 34 33 33 33 33 32 32 29 29

GFSCGP_sfc_temp_018.txt.gz
Temp
74 74 66 67 68 68 66 63 62 67 68 66 66 68 70 73 74 73 74 75 76 78 79 79 77 77 78 76 77 78 77 75 79 81 77 79 77 78 79 80 76 75 75 73
72 63 67 69 68 65 64 62 61 65 66 64 66 66 69 71 70 72 74 75 76 77 78 76 76 76 75 75 75 75 75 74 76 80 78 75 74 77 76 76 75 75 72 72
66 65 66 66 65 63 63 60 59 59 65 65 65 64 66 69 72 73 74 75 75 75 75 75 74 73 74 72 73 74 74 74 73 73 77 77 77 76 75 71 72 73 71 70
65 67 64 64 61 63 59 62 61 59 60 59 64 57 61 66 67 69 71 72 73 74 74 74 73 71 70 70 72 73 73 73 72 71 72 69 70 67 68 70 71 70 70 68
60 63 63 61 60 63 59 62 60 59 59 59 60 59 60 66 62 65 69 70 72 72 71 70 70 70 70 70 70 72 72 72 71 70 68 69 67 69 69 68 65 67 69 69
64 68 66 64 64 63 64 60 59 60 60 51 55 56 57 62 59 63 68 69 68 69 70 70 70 71 71 70 70 71 71 71 70 69 68 66 64 62 63 65 64 66 66 67
62 62 66 66 63 65 65 59 51 46 47 48 55 54 55 59 63 64 64 65 66 68 68 69 69 70 70 70 70 70 70 69 70 67 65 63 65 64 63 63 63 61 62 63
55 51 61 64 60 57 58 57 48 38 43 49 53 51 55 62 66 67 66 66 66 66 67 68 69 70 70 68 68 68 68 68 68 67 65 66 65 65 64 63 61 59 60 60
53 52 62 61 63 61 57 53 56 45 36 42 54 55 59 62 62 63 64 65 64 65 65 67 69 70 69 68 68 66 67 69 68 67 66 64 63 62 60 59 59 59 59 59
55 50 58 61 63 63 60 60 50 52 36 37 52 51 55 56 60 61 63 63 63 65 66 68 69 69 69 69 68 67 68 67 66 65 64 62 61 61 59 58 56 56 57 57
59 54 54 58 56 55 57 55 53 54 48 40 38 50 61 59 60 59 63 62 63 64 66 67 67 68 68 67 67 66 66 65 64 63 61 60 59 58 57 56 56 56 56 56
57 54 49 52 57 60 59 54 54 46 40 45 42 46 62 63 61 61 61 60 63 65 66 67 67 66 66 65 66 65 63 62 62 61 60 58 57 56 56 54 54 55 54 55
58 51 46 48 54 57 54 55 53 50 47 42 36 47 62 63 62 65 61 61 63 64 66 66 65 64 63 63 61 62 61 60 60 60 58 57 55 54 54 54 53 54 53 51
55 53 49 45 50 54 49 53 54 51 41 44 46 50 58 61 61 62 60 61 63 63 63 63 62 61 62 61 61 59 59 59 58 57 56 54 53 52 46 47 50 50 50 49
58 47 51 53 54 54 51 50 52 49 49 42 48 51 57 59 59 60 60 61 60 61 59 58 58 56 59 59 58 58 58 57 56 55 54 50 49 48 49 51 52 52 52 51
55 47 45 43 50 51 46 52 52 50 51 52 52 50 60 60 59 57 58 59 57 56 54 54 54 56 57 56 56 56 56 55 55 54 52 52 52 52 52 51 50 50 50 50
50 46 42 37 45 43 37 46 50 51 54 52 46 54 58 56 55 56 57 57 53 51 52 53 54 56 56 56 56 55 55 55 53 52 52 51 51 50 49 50 49 48 47 47
41 42 38 36 37 32 48 57 57 52 54 57 56 56 55 57 58 60 57 52 46 46 53 55 56 57 57 57 57 56 56 54 52 51 50 50 49 48 48 48 47 46 46 45
51 44 35 32 37 45 50 52 50 48 48 57 54 55 57 57 58 57 49 45 43 51 56 57 58 57 56 56 57 55 54 54 52 49 49 48 48 47 47 46 45 45 45 44
46 45 42 35 30 30 48 54 55 54 43 54 54 51 48 48 41 48 43 47 52 56 57 56 57 57 56 57 56 53 53 53 50 50 48 49 48 47 46 45 44 45 45 43
35 35 34 35 33 41 54 54 55 37 42 52 51 46 45 42 40 42 46 51 56 56 56 57 57 56 56 56 54 51 52 51 52 51 50 49 48 47 46 45 45 45 43 40
43 36 33 34 30 30 56 54 42 50 54 53 51 45 42 42 44 46 50 53 54 55 56 56 55 55 56 56 54 52 52 55 53 51 49 48 47 46 45 45 45 44 42 38
41 48 46 45 45 57 59 56 59 58 53 48 44 44 48 48 49 51 52 53 55 55 55 55 53 52 54 55 54 51 52 52 50 47 45 46 46 45 45 44 42 40 40 34
53 54 46 45 53 56 57 59 57 53 44 44 48 50 50 49 50 51 53 55 54 54 52 52 51 50 50 52 50 49 49 48 47 45 43 46 44 43 44 43 41 40 35 31
53 53 49 48 52 54 56 51 49 45 45 48 51 51 51 51 51 52 52 52 52 50 51 50 49 48 48 49 48 49 47 46 45 44 43 43 42 41 41 40 40 37 36 32
54 51 45 42 52 47 44 47 45 44 49 50 50 50 53 53 51 51 50 51 50 49 49 48 48 48 48 47 45 46 45 43 41 40 41 41 40 39 38 38 37 33 30 29

GFSCGP_sfc_temp_021.txt.gz
Temp
80 75 72 73 73 73 72 69 68 72 74 71 72 73 75 78 80 78 80 81 82 84 85 84 82 83 83 82 83 83 82 78 81 82 79 80 79 81 81 82 79 77 77 75
75 69 72 74 73 71 70 67 67 70 72 70 71 72 74 76 75 79 79 79 80 80 79 79 79 79 78 78 79 80 79 78 80 82 79 77 76 78 79 79 77 77 74 73
70 70 72 71 70 68 69 65 64 64 70 73 70 68 70 74 76 77 78 79 80 78 77 78 77 76 76 76 77 78 78 77 76 76 80 78 78 78 77 76 76 76 74 72
70 72 69 69 66 68 64 68 66 65 64 62 71 60 67 71 71 73 74 76 76 77 78 77 76 75 74 74 76 76 76 76 76 74 74 71 72 71 73 73 74 72 71 71
65 67 67 65 65 68 65 68 65 65 64 66 66 63 64 71 67 69 71 73 74 75 75 74 74 74 74 74 74 75 76 75 74 73 71 71 69 71 71 69 67 68 70 70
70 74 72 68 70 69 70 67 66 66 65 53 62 61 62 66 66 68 71 71 72 73 74 74 75 76 75 74 74 74 75 76 75 73 71 68 66 66 66 67 66 67 67 67
67 67 71 71 67 70 70 64 53 49 51 50 62 59 59 65 68 69 68 69 71 72 72 73 73 74 74 73 73 73 74 73 74 71 70 69 68 67 65 65 65 62 63 63
60 54 66 69 65 62 63 62 50 41 46 52 61 54 61 69 71 70 70 71 71 71 71 72 72 72 73 73 73 72 71 71 73 72 70 69 68 67 65 64 62 60 60 61
58 57 67 67 69 67 62 57 62 51 46 45 58 61 65 68 67 67 68 69 69 69 70 72 73 73 73 72 72 71 70 71 71 69 68 66 66 64 63 61 60 60 60 60
62 55 64 66 68 67 64 66 53 56 39 39 55 56 58 60 63 67 67 67 69 70 70 72 72 72 72 72 72 71 71 70 67 66 65 65 63 63 61 60 58 58 58 59
65 59 59 64 61 60 62 60 58 59 52 43 42 52 66 64 65 64 67 67 68 69 69 71 71 69 71 70 69 69 69 67 65 66 65 63 62 61 60 59 58 58 58 57
63 59 51 58 64 66 64 60 59 48 45 49 45 47 67 67 66 66 67 67 67 68 69 68 68 67 66 66 68 67 66 65 65 64 63 61 61 60 59 58 56 54 54 54
63 56 49 54 59 62 58 61 59 55 50 44 40 47 67 68 67 68 67 66 67 67 68 67 66 66 65 65 66 65 64 63 63 62 61 60 60 57 54 54 52 53 54 54
58 59 52 47 53 60 54 58 60 56 44 46 48 54 62 65 64 66 66 66 67 65 63 63 65 65 65 64 64 63 62 61 62 61 59 58 55 52 53 53 53 53 54 53
61 50 56 57 59 59 57 56 57 54 55 46 51 54 60 63 62 63 65 65 64 63 63 63 61 61 62 63 62 62 61 61 61 58 58 56 55 54 53 53 52 53 53 53
61 50 49 47 57 57 52 57 57 57 56 56 56 54 65 65 66 63 62 61 58 60 60 56 57 60 61 61 61 60 60 59 59 57 56 57 54 52 51 51 51 52 51 51
54 51 46 41 50 47 39 51 55 56 58 56 48 57 64 61 60 56 56 57 58 56 52 51 57 60 61 61 61 59 60 60 59 56 57 54 51 50 50 51 51 50 49 49
49 48 42 37 38 33 53 63 62 57 58 61 60 61 62 59 58 61 58 53 53 51 52 57 60 60 61 62 62 61 61 59 58 57 55 53 51 49 50 51 50 49 49 47
58 49 38 35 40 47 53 55 54 51 51 61 59 60 60 59 57 58 54 54 55 55 58 60 61 61 62 62 62 61 59 58 57 56 55 53 50 50 50 49 48 48 47 46
52 51 45 38 32 32 50 59 60 59 44 59 58 56 54 54 42 48 48 53 56 58 61 61 62 61 61 61 60 59 58 57 55 56 55 53 51 50 49 49 47 48 47 46
37 38 36 37 34 43 58 59 60 40 44 56 55 50 47 42 45 49 51 56 59 60 60 62 61 60 60 60 59 56 56 55 56 57 55 53 51 48 50 48 48 47 46 44
41 37 34 38 33 31 61 58 43 52 55 53 52 48 43 48 51 53 55 56 58 59 61 61 59 58 58 59 57 56 55 57 56 54 52 48 43 46 49 47 47 46 44 41
46 51 47 48 47 61 61 58 60 58 55 53 49 48 51 52 53 54 55 57 58 59 59 59 57 55 56 56 56 53 53 54 51 49 46 44 46 46 47 45 44 44 43 39
57 62 50 49 57 58 58 59 55 56 52 51 49 54 54 52 53 54 56 57 57 58 56 57 55 53 52 54 54 53 52 48 47 44 45 45 44 44 46 45 45 43 39 34
56 56 52 50 57 56 55 51 49 51 50 52 55 55 54 54 54 55 55 55 55 54 55 54 52 52 52 53 52 52 48 47 44 44 44 44 44 43 41 42 43 40 38 34
58 54 47 43 53 47 46 47 48 50 53 54 53 54 56 56 54 54 53 54 54 52 53 53 53 52 52 51 49 46 46 44 41 39 41 42 42 41 38 39 38 34 32 31

GFSCGP_sfc_temp_024.txt.gz
Temp
80 72 68 71 73 73 72 69 68 73 75 71 71 72 75 78 79 78 79 80 80 76 78 78 78 78 77 77 76 76 72 73 73 72 70 69 68 69 70 71 71 69 69 68
74 67 73 76 74 72 71 67 67 72 74 70 71 70 74 75 75 78 77 78 75 74 75 75 74 73 72 73 74 74 74 72 72 72 70 68 67 69 69 69 69 70 68 66
67 70 75 72 71 68 70 65 64 63 70 73 69 66 68 73 75 76 76 77 76 74 73 73 72 70 70 70 70 73 72 72 70 68 71 69 68 68 67 66 66 69 65 64
70 74 71 70 67 68 62 69 66 65 63 57 70 54 64 68 69 71 72 72 73 74 75 74 72 70 68 68 70 72 72 72 71 68 66 64 64 63 64 64 64 66 65 63
67 69 68 67 66 69 64 69 66 65 62 62 65 59 63 69 64 67 69 71 71 72 72 72 71 70 70 69 68 70 71 72 70 68 67 63 61 61 62 61 60 60 61 60
70 76 72 69 70 70 71 67 67 66 62 50 61 60 55 63 65 67 69 69 70 71 71 72 73 73 70 69 69 69 70 71 70 68 66 63 60 60 58 58 57 57 58 58
67 68 72 72 66 71 69 62 49 44 46 45 62 58 58 66 69 69 66 67 69 70 70 71 71 71 71 69 69 69 69 68 68 67 66 64 61 61 59 57 56 54 55 54
59 52 66 71 66 61 64 61 47 39 40 46 62 54 56 68 69 69 70 69 70 70 70 70 71 70 70 70 68 68 68 67 67 65 61 61 61 59 58 56 55 53 52 52
58 57 69 69 70 68 62 56 63 51 44 42 54 58 64 67 66 68 68 69 68 69 69 70 71 70 69 68 67 65 66 67 65 63 61 60 58 57 55 55 53 52 52 55
63 55 65 68 69 69 65 66 52 52 38 38 51 54 51 59 61 65 67 66 67 69 69 69 70 68 68 67 66 64 64 64 63 62 59 60 58 57 55 53 52 52 52 52
66 61 59 66 61 59 61 59 59 58 51 40 38 48 63 62 64 63 65 67 66 67 67 68 68 67 67 65 65 63 63 63 61 60 58 56 56 56 55 53 52 51 51 51
63 60 49 58 66 67 65 60 59 44 44 46 43 45 66 66 66 66 65 66 67 68 67 66 66 66 64 64 63 63 61 61 59 59 58 56 56 54 52 51 51 50 49 51
62 56 47 52 58 63 59 62 60 56 47 41 37 44 68 68 62 66 64 66 67 65 66 65 65 63 63 63 63 62 60 59 59 59 57 55 54 51 49 49 50 49 49 49
58 59 53 45 53 59 54 58 61 57 42 43 44 50 59 63 61 63 64 65 65 64 64 64 61 61 61 62 61 61 60 58 59 58 56 53 52 50 49 49 49 49 49 48
62 51 56 57 59 59 57 56 57 54 54 44 50 53 59 61 61 62 60 61 60 61 61 59 57 57 59 60 60 60 59 58 58 56 55 52 52 51 49 48 48 48 48 48
62 48 48 46 58 57 51 55 55 56 57 56 54 54 64 65 61 59 60 60 59 56 56 56 55 57 59 60 59 60 58 57 57 55 54 55 52 51 49 48 47 47 46 45
55 49 44 39 47 45 38 49 56 57 59 56 46 56 63 57 57 56 56 56 54 54 53 54 56 58 59 58 60 58 58 58 56 55 56 55 51 50 48 48 48 45 43 43
49 47 41 36 37 32 54 62 61 56 58 60 59 60 58 56 57 60 56 52 52 53 55 56 58 58 59 59 59 59 59 57 56 54 52 55 50 49 48 47 46 44 42 41
60 47 37 35 39 46 52 56 54 50 49 59 57 56 56 57 55 55 54 53 52 54 56 58 60 59 59 59 59 57 56 57 56 55 51 47 50 49 47 46 43 42 41 40
55 51 43 37 31 32 49 59 61 59 41 56 55 52 51 51 38 44 53 53 56 58 59 59 60 60 58 58 57 55 54 54 53 51 50 51 51 49 46 44 42 42 42 42
37 39 37 37 34 41 56 60 60 40 41 52 52 50 48 44 45 51 55 56 58 59 59 60 59 57 57 57 55 52 52 51 53 52 51 49 47 42 41 40 43 43 39 36
38 36 33 38 34 32 61 58 42 50 54 53 51 50 47 50 52 54 55 55 57 57 58 58 56 55 56 56 54 52 50 52 51 49 47 46 45 43 43 41 41 40 37 34
45 48 45 45 43 56 58 55 55 54 51 49 49 51 51 52 52 53 53 55 56 56 55 56 54 52 53 54 54 50 50 50 47 45 44 43 43 42 42 38 39 36 36 30
57 62 48 49 56 59 56 55 54 53 50 51 52 54 54 51 52 53 54 54 54 54 53 54 52 51 51 53 53 51 48 47 45 42 41 42 41 41 41 40 39 35 31 29
55 58 53 51 57 56 52 52 51 52 52 52 56 55 54 53 52 53 53 53 53 52 53 52 51 50 49 51 50 49 47 45 41 40 39 38 37 37 36 36 35 32 31 29
56 52 46 44 53 53 50 51 52 51 52 54 53 53 55 54 52 52 51 52 52 50 51 50 50 49 48 48 46 45 45 43 38 34 35 34 34 34 33 34 34 35 32 32

GFSCGP_sfc_temp_027.txt.gz
Temp
68 58 53 56 61 64 62 59 56 58 65 59 57 58 62 64 65 63 62 64 64 64 67 67 67 66 66 66 68 66 64 62 65 62 61 60 59 61 61 63 65 65 63 62
61 54 64 69 66 64 63 59 55 60 66 61 57 56 60 65 61 64 64 63 63 63 65 65 63 61 60 62 63 64 64 63 63 61 60 60 59 61 61 61 61 61 61 61
57 62 70 68 63 61 59 56 55 56 61 60 56 53 58 63 65 68 65 64 64 63 62 63 63 59 59 59 61 63 63 63 62 61 60 60 59 58 58 59 59 59 59 58
61 68 67 63 61 61 54 62 61 59 53 45 57 41 51 59 60 63 62 59 59 62 63 63 61 59 59 58 60 62 64 63 63 62 59 57 54 53 54 55 56 57 56 57
58 61 60 60 60 63 57 61 59 57 51 47 52 45 49 59 56 58 58 60 59 60 60 60 59 61 60 60 60 61 62 62 62 61 59 56 55 56 56 55 53 52 54 54
61 67 63 61 66 65 65 59 58 56 51 36 50 49 48 53 56 57 60 61 61 60 61 61 61 61 59 59 59 60 61 62 61 60 59 57 55 54 53 51 49 50 50 50
60 60 63 66 58 62 59 51 35 34 32 33 52 49 49 56 61 60 58 58 59 59 59 59 60 59 59 58 58 60 60 61 61 58 56 55 54 54 54 53 51 49 47 47
49 45 58 65 59 54 55 52 33 31 29 35 53 44 47 58 60 61 62 60 61 60 61 59 60 60 59 60 58 59 60 60 58 56 55 53 53 51 50 50 48 47 46 46
48 50 61 64 63 60 54 46 55 41 35 30 42 48 55 59 60 63 62 60 58 59 60 61 61 59 57 58 57 57 58 58 57 54 53 52 52 51 49 48 47 45 45 50
56 47 60 62 62 62 57 59 41 39 30 30 40 43 42 52 56 61 60 58 57 59 59 58 57 57 57 57 57 56 56 56 54 53 52 52 51 50 48 46 45 45 45 46
55 50 50 58 54 51 52 49 50 49 38 29 26 36 52 53 56 56 56 58 56 57 56 56 57 57 57 57 56 55 55 54 52 52 51 50 48 47 46 45 45 45 45 45
55 49 36 50 58 61 56 52 51 32 36 32 30 35 56 54 56 56 56 60 57 57 56 57 57 56 54 55 55 54 53 53 52 52 50 50 48 46 45 45 45 45 45 45
53 46 33 42 50 56 52 56 54 46 36 34 25 32 58 60 57 59 57 56 56 57 56 54 53 52 53 54 55 53 52 51 52 52 50 49 48 45 45 45 45 45 44 44
53 51 42 34 43 49 45 51 52 45 30 33 34 43 52 53 54 52 52 53 53 54 52 52 51 50 52 54 53 53 52 52 52 52 50 48 47 45 44 44 44 44 44 43
52 42 46 48 51 52 50 49 50 47 45 35 40 46 52 50 50 51 53 54 52 52 51 50 49 50 51 51 51 52 52 53 52 50 51 47 48 45 45 45 44 43 44 43
53 37 38 37 48 48 43 47 47 49 49 48 47 46 54 54 53 51 50 50 49 50 50 50 50 52 52 52 52 52 51 50 52 51 49 49 46 48 45 43 43 43 41 41
46 37 32 30 40 36 31 41 49 50 51 47 37 46 50 48 48 46 45 47 47 48 48 49 51 52 52 51 52 49 49 51 51 50 49 46 46 43 44 44 43 43 39 38
40 37 31 25 29 21 45 54 53 50 51 51 50 49 49 47 47 47 47 45 45 46 48 50 51 51 51 51 50 49 50 48 49 46 47 47 44 42 42 44 43 40 39 37
50 35 27 28 27 37 46 51 47 43 42 49 47 47 47 48 48 46 48 46 45 47 49 49 50 50 49 48 49 48 47 47 46 45 45 44 44 45 43 39 38 38 39 36
47 39 31 25 23 19 39 52 56 52 31 47 47 44 43 44 31 37 46 48 49 50 51 49 49 49 47 47 47 46 44 44 44 43 43 44 42 40 38 37 38 38 37 36
29 33 29 23 23 31 47 53 54 33 34 45 46 44 41 37 38 43 47 49 50 50 49 49 48 45 45 47 47 44 43 42 43 44 43 43 41 39 40 37 36 36 35 32
31 28 27 32 30 23 53 51 39 42 45 45 44 43 42 43 47 47 48 49 49 47 48 48 45 45 46 48 45 44 41 42 43 42 41 39 38 39 39 35 34 36 31 28
35 38 33 36 34 46 50 48 48 48 45 44 44 46 47 46 45 47 47 47 47 47 46 47 44 45 45 45 46 42 41 42 40 38 37 37 38 38 38 36 34 31 28 23
46 51 37 40 48 48 47 48 48 48 47 48 47 50 50 45 46 45 46 45 45 45 44 45 44 43 42 44 44 41 41 40 38 35 34 35 33 34 35 36 32 28 22 21
44 48 45 40 47 47 49 48 47 47 49 49 50 49 48 47 46 45 44 43 43 42 43 43 42 42 41 41 40 41 40 39 36 33 33 30 29 30 31 32 29 27 26 24
48 45 37 33 47 46 43 45 48 47 48 49 48 47 48 46 44 44 42 42 41 41 42 42 42 42 40 39 38 39 38 36 33 31 30 27 26 25 28 28 29 34 31 33

GFSCGP_sfc_temp_030.txt.gz
Temp
64 57 51 55 57 61 59 53 54 53 59 57 54 54 56 57 57 56 57 58 58 59 60 62 61 60 64 63 62 60 59 59 58 57 56 57 57 58 58 59 59 58 58 59
58 52 61 64 63 60 59 55 52 58 63 58 52 53 55 57 56 58 58 57 57 58 60 61 58 56 56 57 59 59 60 60 60 58 57 57 56 56 56 56 56 57 56 56
53 59 66 63 59 58 54 52 51 52 56 56 55 51 53 58 59 60 59 59 59 58 56 58 59 55 55 56 57 59 60 60 59 59 58 56 56 54 54 54 53 53 54 54
58 65 63 59 57 56 49 58 57 54 49 44 52 38 47 52 54 56 57 55 56 58 58 59 57 56 57 56 58 59 60 59 60 59 57 56 53 52 52 51 51 51 52 52
54 56 57 56 56 59 54 58 55 54 47 44 47 42 44 54 50 52 52 55 55 56 57 56 57 58 58 58 57 57 59 60 59 57 56 54 53 52 51 49 49 50 50 51
58 62 59 57 61 60 61 56 53 51 47 35 47 44 42 46 51 54 56 55 56 55 55 56 57 58 56 56 55 56 58 57 57 55 54 52 51 50 49 49 47 47 47 48
56 56 60 62 55 59 56 47 33 33 31 32 50 44 43 54 57 58 54 54 55 55 54 55 56 56 55 53 55 56 57 55 56 55 53 52 50 49 50 50 46 46 45 44
45 42 55 62 55 51 51 48 32 32 28 33 48 39 43 54 59 59 59 57 57 56 56 54 54 54 55 55 55 55 56 55 54 52 51 50 51 49 48 47 45 43 43 43
45 47 57 59 59 57 51 44 51 38 33 29 39 44 52 54 58 59 58 60 58 57 55 54 55 54 54 54 54 54 54 53 52 51 50 49 49 48 46 45 44 43 43 47
52 44 56 58 60 59 55 55 41 36 29 30 37 39 42 48 51 55 55 54 55 54 54 54 54 54 54 53 53 52 52 51 51 50 50 50 48 47 45 43 43 44 44 44
52 48 48 55 50 48 49 46 46 45 35 29 25 34 49 50 53 53 54 55 54 54 54 52 52 52 52 53 52 51 50 50 50 50 49 46 45 45 44 44 43 43 43 44
51 45 35 46 54 56 52 49 46 31 36 30 29 33 52 52 52 53 54 55 53 51 50 50 50 50 50 51 51 51 50 50 50 50 49 48 46 45 44 43 43 43 43 44
50 43 32 40 47 52 48 51 49 42 34 34 24 32 52 54 51 53 51 52 50 50 49 49 49 50 50 50 51 50 50 49 50 50 48 47 46 43 43 42 42 43 43 43
52 46 40 34 40 45 42 47 47 42 29 32 32 40 46 47 47 48 48 48 47 47 48 49 49 48 49 50 49 50 50 49 49 48 47 46 45 43 42 41 42 43 43 42
50 40 43 44 46 46 45 44 44 43 41 34 39 40 44 46 46 47 48 49 48 48 48 49 48 47 48 49 49 49 48 47 48 48 47 44 44 44 44 42 42 42 43 43
48 36 37 38 43 43 40 44 43 44 45 45 43 40 47 48 47 46 46 46 45 46 47 47 48 49 50 50 48 47 47 47 48 47 45 45 45 45 42 41 42 41 40 40
43 35 31 30 36 36 30 40 45 46 46 45 37 42 45 44 44 43 42 44 44 44 45 46 48 48 47 46 47 45 46 47 45 44 44 43 43 41 41 41 41 41 39 38
38 33 28 24 27 21 42 50 50 44 44 46 45 44 45 44 43 43 45 43 43 44 46 47 46 46 45 45 45 45 46 45 43 43 42 42 41 40 40 40 39 37 37 35
45 32 27 22 25 34 43 47 46 43 40 46 44 44 44 45 43 41 46 45 43 44 45 45 45 45 44 45 45 44 43 42 42 41 41 41 40 39 38 37 37 36 36 35
43 36 29 25 21 19 37 48 52 49 32 46 45 42 42 42 30 36 43 44 46 46 46 45 45 45 43 43 43 42 40 40 39 40 40 40 39 38 36 36 37 36 36 34
27 26 26 17 17 29 43 50 52 32 35 44 44 42 41 38 38 42 43 45 46 45 44 45 43 42 42 43 42 40 38 38 40 40 40 39 38 36 36 36 34 34 33 30
32 28 25 24 18 24 48 48 39 41 42 43 43 42 41 41 42 43 45 45 45 44 44 43 41 41 42 42 41 37 36 39 40 39 37 36 35 36 37 36 34 32 29 28
36 37 32 36 34 44 47 47 46 46 43 43 42 43 45 44 44 44 43 43 43 42 41 43 40 40 41 41 40 38 38 39 38 35 34 33 33 34 33 33 31 30 28 22
45 47 35 38 45 46 46 45 45 46 44 47 47 47 46 44 43 41 41 41 40 40 40 40 39 38 38 39 39 37 38 37 35 33 32 31 30 31 31 31 31 27 21 19
42 45 42 37 42 44 45 44 45 45 47 49 49 49 45 43 41 41 40 39 39 39 39 39 38 37 37 38 37 37 37 36 33 33 32 30 28 28 28 29 28 26 25 23
45 44 36 34 45 44 43 44 46 46 48 49 47 44 43 43 41 40 38 38 37 37 38 37 37 37 36 36 36 36 36 36 32 32 30 27 25 24 27 27 28 32 31 33

GFSCGP_sfc_temp_033.txt.gz
Temp
61 54 49 50 53 56 54 50 48 50 56 55 50 49 50 51 53 51 51 54 55 55 56 59 59 60 60 57 58 59 59 58 58 57 56 55 53 54 53 55 55 55 55 57
56 50 56 61 59 57 55 51 48 53 57 55 48 48 50 52 51 52 53 53 54 54 56 57 56 55 56 57 56 57 59 59 58 58 55 55 53 53 52 52 53 54 55 53
51 55 62 60 56 55 51 49 48 50 53 54 50 46 48 53 54 55 54 54 55 55 55 55 55 53 53 55 56 57 57 58 58 57 56 54 53 52 51 51 50 51 51 51
56 60 59 56 55 53 48 55 54 52 48 41 49 34 44 48 50 51 52 51 52 54 55 55 53 51 53 53 54 56 57 57 57 57 56 55 53 51 49 48 48 48 50 50
52 54 55 54 53 55 52 55 52 51 45 42 44 39 40 49 46 48 49 51 54 56 54 56 58 57 57 55 53 54 56 56 56 55 54 52 52 50 49 48 48 49 49 49
55 58 57 55 57 57 57 53 50 46 44 34 43 41 38 43 47 49 51 53 55 56 56 55 57 56 54 53 52 53 54 54 54 53 53 52 50 48 47 47 49 47 46 45
53 53 56 58 52 55 53 45 32 32 30 31 46 41 41 50 53 52 51 52 55 55 53 52 54 56 56 55 53 53 53 53 53 52 51 50 49 48 48 48 45 44 43 42
43 41 52 58 52 49 48 46 32 33 28 32 44 35 42 50 54 55 55 53 53 53 55 56 57 55 55 53 52 52 53 52 52 50 50 49 50 48 47 46 44 42 42 42
43 44 55 56 56 55 48 42 48 35 32 28 35 40 50 51 51 53 53 54 55 53 52 52 52 52 51 52 51 51 51 51 50 49 48 48 48 46 45 44 42 42 42 44
50 42 52 55 57 55 51 53 39 34 29 29 34 35 37 45 48 52 55 52 51 50 50 50 50 51 51 51 51 50 50 50 49 49 48 48 47 46 44 42 42 42 42 42
50 46 45 51 48 45 48 44 43 41 33 28 24 33 46 48 50 50 50 50 50 48 48 49 50 51 51 50 49 48 48 49 48 48 47 46 45 44 43 42 42 42 42 42
48 43 34 44 51 52 49 45 44 30 34 28 28 33 49 48 51 51 49 49 47 49 50 49 50 50 50 48 49 49 49 48 48 48 47 45 44 43 42 41 42 42 41 43
49 41 32 39 46 50 46 47 44 39 33 32 24 31 50 49 47 48 46 47 46 46 46 47 49 47 48 50 50 49 48 47 47 46 44 44 43 43 42 42 41 41 41 40
51 43 39 33 39 42 40 44 44 41 29 31 32 37 41 43 44 44 45 45 45 45 47 47 48 48 48 50 48 46 46 46 46 45 44 43 42 42 41 41 40 40 40 39
48 39 40 41 42 43 42 43 42 41 39 34 37 38 42 44 43 44 45 45 45 45 45 47 47 47 47 46 45 45 45 45 45 44 43 42 42 42 41 40 40 40 39 39
46 35 37 36 40 40 38 43 42 41 41 41 38 37 44 45 45 44 44 44 44 45 46 47 46 46 45 45 44 45 44 44 44 43 42 42 42 41 40 39 39 38 37 39
40 34 32 29 34 34 29 39 43 44 44 42 34 41 43 42 43 41 41 43 43 45 43 43 43 44 44 44 45 43 44 44 42 41 42 41 40 39 39 39 38 37 36 39
36 32 27 24 26 21 41 46 46 44 42 42 41 43 44 43 42 43 43 42 42 42 42 44 43 43 42 42 43 43 43 41 41 40 40 40 39 38 37 37 35 33 33 35
43 31 26 22 25 34 42 44 42 41 40 44 42 42 42 42 41 39 44 43 42 44 43 43 43 43 42 42 42 41 40 39 39 39 38 38 38 37 36 34 35 36 35 35
40 34 29 25 19 19 37 44 49 47 33 44 43 41 40 39 29 36 42 44 43 44 43 43 42 42 41 40 39 39 38 37 37 38 38 38 37 35 34 33 33 36 35 31
28 25 24 16 18 29 41 48 49 33 35 42 44 42 40 37 38 41 44 44 44 43 42 42 40 39 39 40 40 38 36 36 38 38 37 36 35 33 33 35 37 35 31 30
31 27 26 23 19 26 45 45 39 42 41 44 42 42 40 43 43 43 44 42 42 41 40 40 39 38 39 39 38 36 34 37 37 37 35 34 33 33 34 35 34 30 28 28
32 36 32 35 34 43 45 44 45 45 43 42 42 43 45 44 43 44 41 40 40 39 39 39 37 37 38 38 37 35 36 36 35 34 33 32 32 32 31 33 32 29 27 22
41 44 33 37 43 43 45 44 44 45 43 44 46 47 46 44 42 40 39 38 38 38 37 37 36 35 35 37 37 35 36 35 34 34 33 34 31 30 30 33 32 27 21 18
40 42 39 35 42 42 44 44 44 44 45 47 47 46 45 42 41 40 38 37 37 36 36 36 35 34 34 35 35 35 35 34 33 33 34 32 30 28 28 30 28 28 26 24
43 41 35 35 44 43 43 44 44 43 45 46 46 44 44 43 41 39 37 37 36 35 36 35 34 33 33 33 32 33 35 35 33 30 32 31 27 24 27 27 28 32 30 32

GFSCGP_sfc_temp_036.txt.gz
Temp
59 55 49 53 52 53 51 48 46 47 53 49 44 43 46 48 49 48 48 49 50 52 54 55 55 56 57 57 59 60 59 59 58 55 53 52 51 51 51 52 53 54 53 52
55 48 54 56 56 54 52 48 46 49 54 51 44 44 46 48 47 47 48 48 49 51 52 54 53 54 55 56 56 56 57 57 58 56 54 53 51 50 50 50 50 50 50 50
50 52 59 56 53 53 49 48 45 48 50 51 47 43 44 49 50 52 51 51 51 51 52 53 54 52 52 53 54 56 57 57 56 55 53 51 51 50 49 48 48 48 50 49
53 56 56 54 53 51 46 52 51 49 45 40 46 36 41 45 46 48 50 49 50 52 52 53 52 52 52 52 53 55 56 56 56 54 54 52 50 49 47 46 47 47 48 48
49 51 53 52 50 53 49 54 51 48 43 41 42 38 38 46 44 46 47 48 50 50 51 52 53 55 52 51 51 52 54 55 54 54 53 50 48 47 46 46 46 47 47 47
52 55 54 52 54 54 55 51 48 44 42 33 40 39 36 40 45 47 49 50 51 51 50 53 54 54 51 51 50 52 54 52 53 52 52 51 48 46 46 46 46 45 45 45
51 51 55 55 51 53 50 44 32 31 29 31 42 39 40 46 49 51 49 50 51 52 52 52 54 52 53 55 55 52 52 52 51 51 50 49 48 48 48 47 45 44 43 42
41 40 49 56 50 48 45 44 33 32 27 31 42 35 41 48 52 53 53 52 51 50 52 51 55 55 52 51 51 51 52 51 50 50 49 49 49 47 47 46 44 43 42 42
41 42 52 53 53 52 46 39 45 34 31 28 34 39 46 48 48 50 50 51 50 52 53 50 50 50 50 50 50 50 50 49 49 49 48 47 47 46 45 44 42 41 41 43
48 41 49 52 54 53 48 50 38 33 28 28 31 34 36 42 45 48 49 48 49 48 48 48 48 49 49 49 49 49 48 48 48 47 46 47 45 44 43 42 42 41 41 41
48 44 44 48 46 44 46 42 40 39 32 27 23 32 43 46 48 48 48 50 47 46 46 46 47 48 48 48 49 47 47 48 47 46 45 44 43 43 42 41 41 41 41 40
46 42 35 42 48 49 46 44 42 30 33 28 27 31 45 45 49 49 47 47 45 45 46 46 47 47 47 48 48 47 47 48 45 45 44 43 43 42 41 41 41 40 39 40
48 40 32 39 44 47 43 43 41 37 33 31 23 31 46 45 45 46 44 44 44 44 45 45 46 46 47 49 49 49 46 44 45 45 43 42 41 40 40 39 39 39 39 39
49 41 38 34 38 41 39 42 41 40 28 31 31 36 41 42 43 42 43 43 43 44 45 45 45 45 47 49 48 44 44 44 44 44 42 41 40 39 39 39 39 39 39 37
46 38 38 38 39 40 40 41 40 39 38 35 36 36 42 43 42 42 43 43 43 44 45 45 45 46 48 44 44 44 43 44 43 43 41 40 40 39 39 38 38 38 38 38
44 35 36 35 37 38 37 40 40 39 38 38 37 38 44 43 43 42 42 43 42 43 45 45 46 46 45 44 43 43 43 43 42 41 40 40 39 39 38 37 37 36 36 36
39 34 32 29 32 33 29 37 39 39 41 40 34 41 41 39 41 41 40 42 42 43 43 45 44 43 43 43 44 42 42 41 40 39 40 39 39 37 37 36 36 34 32 34
35 32 26 23 26 21 39 43 43 42 42 43 41 41 43 42 41 42 42 41 41 42 43 43 42 42 41 41 41 40 40 39 39 39 38 38 37 36 35 34 34 32 35 36
40 31 24 23 24 34 41 41 41 40 40 43 42 40 41 40 41 40 43 43 41 42 43 43 42 41 40 40 40 39 38 38 38 37 37 36 36 34 34 32 32 36 35 34
38 34 30 21 19 19 37 42 46 45 33 43 43 40 39 40 31 39 41 42 43 43 43 41 41 40 39 39 38 37 37 36 36 36 36 36 35 33 32 31 35 36 35 32
29 26 23 14 17 29 40 45 46 34 35 41 42 40 38 37 40 41 41 43 43 44 43 41 39 39 38 38 38 36 34 34 36 36 36 34 33 32 31 34 36 35 32 30
31 29 28 23 16 25 44 44 38 42 39 42 41 41 41 39 40 41 41 42 42 40 41 40 39 37 37 37 36 34 32 35 35 34 33 34 35 33 32 32 34 32 28 28
32 35 30 33 33 42 44 43 44 44 43 41 42 41 42 42 43 43 40 41 40 40 39 39 37 37 37 36 35 33 34 34 33 32 32 34 35 34 31 30 32 31 28 22
38 41 32 36 42 41 44 45 45 44 44 43 43 44 45 44 43 42 41 39 39 38 38 37 36 34 34 34 34 33 33 33 31 31 34 35 33 33 30 30 32 30 24 19
39 40 37 35 41 41 45 44 45 44 44 45 45 44 43 41 42 42 39 38 37 37 37 36 34 33 33 33 32 32 32 32 31 34 33 33 32 30 28 28 29 29 27 24
40 39 34 34 44 43 44 45 43 43 43 44 43 42 43 43 40 40 38 38 37 35 35 35 34 32 32 31 30 31 31 32 31 32 32 32 30 29 27 27 28 32 30 31

GFSCGP_sfc_temp_039.txt.gz
Temp
64 62 58 61 61 60 59 58 57 58 59 56 51 51 52 55 57 57 57 58 58 58 59 61 62 64 65 65 66 60 62 60 60 59 57 58 58 60 61 63 62 62 62 62
62 56 61 60 61 59 58 56 55 56 57 56 52 51 53 54 53 56 57 57 58 59 60 60 62 63 65 64 65 65 64 64 65 67 67 66 64 63 62 61 60 61 61 61
57 60 62 60 58 58 55 55 54 55 56 56 55 52 51 54 55 55 56 58 60 61 60 59 60 61 62 64 64 66 66 66 66 66 64 63 62 61 61 61 61 60 60 60
59 61 60 58 56 58 53 59 57 55 55 51 54 50 51 51 51 53 55 57 59 59 60 61 61 61 62 63 64 66 65 65 64 64 65 64 66 65 61 60 61 62 59 59
56 58 57 56 56 59 55 58 56 54 52 52 52 52 50 51 49 52 55 57 58 59 60 61 62 63 63 62 62 63 64 64 62 63 64 64 60 59 59 60 58 59 59 58
57 63 61 60 58 59 57 56 54 51 51 45 48 49 50 49 52 53 56 57 58 59 60 62 62 62 62 61 62 62 62 61 62 62 61 60 59 58 59 59 59 59 58 58
55 56 60 61 58 59 58 53 43 41 41 41 47 45 51 54 55 58 56 57 59 60 61 61 61 62 62 61 59 61 63 61 61 60 60 60 60 59 59 59 59 58 59 58
48 47 57 60 58 55 52 53 43 36 36 41 47 43 52 55 58 61 60 61 60 59 60 61 62 62 62 61 61 61 61 59 60 60 59 60 59 61 60 58 57 57 56 56
48 48 59 58 60 59 52 48 52 41 36 38 44 48 54 53 53 56 58 58 59 60 60 61 61 60 60 60 59 59 60 59 58 57 59 58 58 56 55 55 55 54 53 53
53 46 55 58 60 58 56 55 46 44 34 34 41 42 47 49 51 54 56 57 59 58 57 57 57 57 58 59 59 58 58 55 55 57 56 56 55 54 54 53 53 52 53 53
54 51 50 55 53 52 52 49 45 46 41 37 34 44 52 53 55 54 57 58 57 56 55 55 56 57 57 57 57 56 55 55 55 55 55 54 54 54 53 53 53 52 52 52
53 48 43 50 55 56 55 51 49 41 39 36 37 44 53 53 55 55 56 56 55 54 54 55 55 56 57 57 57 53 53 53 54 55 54 53 53 53 52 52 52 51 50 51
52 46 40 45 51 54 51 50 46 43 41 38 36 44 52 51 52 55 55 52 51 52 53 54 54 55 55 54 55 53 53 53 55 55 55 53 52 51 51 50 50 50 50 49
52 46 45 42 46 48 46 46 46 47 39 40 41 46 50 51 50 50 51 51 51 51 52 54 53 54 54 54 53 51 51 54 54 54 53 51 50 49 49 49 49 48 48 46
52 45 45 44 44 46 47 46 45 45 45 43 46 45 51 53 53 51 51 50 49 50 51 53 52 53 53 51 49 52 53 53 53 52 51 50 49 48 48 48 47 46 45 45
48 42 43 41 42 42 42 46 45 44 45 46 44 45 53 51 51 48 48 48 49 50 51 51 51 51 51 50 52 51 51 51 50 50 48 48 47 47 47 46 45 44 43 43
44 41 39 36 37 39 35 43 46 46 46 49 43 52 49 47 48 49 49 49 49 50 50 50 50 50 50 51 51 51 50 49 48 48 48 46 46 46 45 44 44 42 42 42
40 37 34 34 31 31 47 49 49 46 47 49 48 48 50 50 48 50 52 51 49 49 49 49 50 49 50 50 50 48 49 48 47 46 45 45 45 43 43 42 42 41 41 37
44 37 31 33 33 40 47 45 45 44 48 50 50 48 46 46 49 49 50 51 51 50 50 50 51 50 49 49 48 48 47 46 45 44 44 44 43 42 41 41 40 39 38 37
42 40 39 30 32 30 43 48 51 52 41 51 50 46 43 47 42 51 50 49 49 50 49 48 48 49 48 47 46 46 45 44 43 43 43 43 42 41 40 40 39 39 37 37
33 32 33 25 33 37 45 50 52 40 43 48 48 46 44 46 50 49 48 48 49 49 48 48 48 47 46 45 44 44 43 42 43 43 43 42 41 40 40 39 40 39 37 36
37 33 31 27 29 32 48 50 44 50 49 49 47 47 46 45 45 45 46 45 46 46 45 46 46 45 44 44 43 43 42 43 42 42 41 41 41 41 38 38 39 38 36 34
38 41 38 39 40 48 49 49 51 50 49 49 48 49 49 45 45 46 44 44 43 43 45 45 44 42 42 42 42 40 41 41 39 39 39 40 40 38 38 37 37 37 35 33
42 44 40 41 48 46 48 51 50 51 49 51 50 49 48 47 46 44 42 41 41 43 44 43 42 41 40 41 39 40 39 39 38 37 39 40 38 37 37 37 37 37 35 33
44 44 42 41 45 46 49 48 50 50 49 50 48 48 47 46 43 43 40 41 40 41 41 42 40 39 39 39 38 39 39 38 37 37 38 37 36 35 35 36 37 36 36 33
44 43 39 39 47 48 48 49 49 48 48 48 46 44 46 44 41 40 39 41 41 41 41 39 39 38 38 37 37 38 38 38 37 35 37 37 36 36 35 35 35 34 32 32

GFSCGP_sfc_temp_042.txt.gz
Temp
74 70 66 72 72 71 70 68 66 69 68 70 68 67 67 69 72 71 72 72 72 72 72 73 73 74 73 69 70 70 67 63 62 69 66 67 64 68 70 72 70 69 70 69
71 66 68 71 71 70 69 66 65 65 67 69 67 64 66 67 70 72 72 72 72 71 71 70 72 73 72 70 70 71 73 73 74 75 75 75 74 75 74 72 69 69 68 68
67 66 69 70 69 67 65 65 63 64 65 67 67 63 63 63 65 66 69 72 72 72 70 69 70 71 71 71 73 76 76 75 76 76 75 74 72 71 70 69 70 69 68 69
67 68 67 68 65 67 62 66 66 64 64 60 66 58 63 63 63 64 66 68 71 71 71 72 72 72 73 74 76 77 77 76 74 73 74 72 75 74 72 72 71 71 68 67
63 66 66 65 64 66 63 67 66 65 65 63 62 60 64 63 61 63 65 68 69 70 71 71 73 74 75 73 74 75 75 74 73 73 73 73 71 71 71 70 67 68 69 67
67 71 69 67 67 68 68 66 65 65 63 53 61 58 63 66 66 65 66 67 68 69 71 73 74 74 73 71 71 72 73 72 72 72 71 70 68 67 69 68 67 69 68 67
65 64 69 69 65 67 67 63 54 49 49 48 57 55 62 65 65 68 65 67 68 69 70 71 71 72 72 70 70 70 72 71 71 70 69 69 67 67 66 66 67 64 65 65
58 53 64 67 66 64 63 62 53 41 45 52 55 53 62 65 67 70 70 70 69 69 71 72 72 72 71 70 71 71 71 69 69 69 67 66 67 70 68 66 64 64 63 62
58 56 66 65 67 67 60 58 61 51 44 47 57 60 65 64 63 66 68 69 68 69 70 71 71 71 71 71 69 70 69 69 67 66 65 63 66 64 64 63 62 63 61 61
62 54 62 63 67 66 64 65 53 55 40 41 54 53 61 59 61 64 66 67 68 70 70 71 71 69 69 70 69 68 69 66 63 62 62 63 63 64 63 63 60 59 60 60
67 62 57 62 61 61 59 58 58 59 53 46 45 56 64 62 65 64 67 68 70 70 69 69 69 68 68 68 68 66 64 63 63 61 60 61 64 63 63 62 60 59 59 58
62 61 53 58 63 64 64 61 61 51 47 49 48 54 65 65 66 67 68 69 71 71 69 67 66 66 66 66 66 65 64 63 61 59 61 62 63 62 61 60 58 58 57 57
63 58 50 52 58 61 59 62 61 56 54 48 43 54 64 65 64 66 67 69 68 66 65 65 65 65 65 65 63 63 61 61 59 63 63 62 61 60 58 57 57 56 55 55
59 59 56 51 56 61 54 57 59 59 49 52 52 59 62 63 64 65 67 68 65 63 63 64 64 64 64 63 62 59 59 60 62 63 62 60 59 58 57 56 55 54 54 52
62 55 56 55 55 55 57 57 57 56 58 50 58 58 65 66 67 68 67 66 63 62 62 63 63 63 63 62 59 60 61 61 62 60 59 58 56 56 55 54 53 53 52 51
58 53 52 49 51 52 51 57 58 58 59 59 59 59 69 69 66 65 63 62 61 61 62 63 63 62 61 59 60 60 60 60 59 58 56 56 55 54 53 52 51 51 50 50
56 52 49 46 47 48 40 52 57 59 60 59 53 62 65 62 62 63 62 62 61 61 61 61 61 59 58 58 60 59 59 58 56 55 55 54 52 52 52 51 50 49 48 47
51 51 46 43 39 35 57 59 59 59 62 64 61 62 63 63 64 64 67 63 61 61 61 60 59 55 56 59 58 57 58 56 54 53 53 52 51 51 51 49 48 48 47 43
57 51 39 38 44 51 58 55 54 52 57 62 62 63 61 58 59 61 63 64 63 62 62 61 59 56 58 56 58 56 55 54 52 51 51 51 50 49 48 47 47 46 42 42
53 52 50 39 37 35 53 56 59 58 49 60 61 60 58 57 52 62 61 62 62 62 62 59 56 54 55 52 55 54 53 52 50 50 50 51 50 48 47 47 46 44 42 41
42 41 39 40 38 47 58 58 58 45 50 60 61 62 58 56 61 58 63 60 61 60 58 58 56 55 54 53 52 51 52 49 50 49 49 49 49 48 47 46 46 43 42 42
46 42 38 38 35 36 58 56 50 57 61 60 60 60 58 60 55 56 58 57 56 56 54 55 51 52 53 52 51 51 49 51 49 49 48 47 48 47 47 45 45 42 42 40
46 53 50 51 52 57 60 61 61 60 59 61 59 61 58 57 55 55 54 54 54 53 48 49 50 49 50 50 50 47 49 48 47 46 45 46 47 46 46 43 41 40 40 37
54 54 50 49 58 58 59 62 63 63 60 61 60 60 60 58 56 54 53 51 47 49 47 45 48 48 48 47 47 48 47 47 46 44 44 45 45 44 45 42 40 40 38 36
55 53 52 51 58 60 59 58 57 58 59 58 58 57 56 57 54 51 50 49 47 43 45 46 48 47 46 47 46 47 47 45 43 43 43 43 44 43 43 42 41 40 40 38
55 52 49 49 53 53 55 57 55 55 55 55 53 53 54 54 50 48 43 41 42 45 47 45 44 44 45 45 46 46 46 45 42 41 42 42 42 41 40 40 40 36 34 34

GFSCGP_sfc_temp_045.txt.gz
Temp
76 68 64 68 72 73 71 69 68 73 77 74 72 72 74 77 78 78 78 78 79 79 81 79 81 82 83 81 77 72 68 67 72 73 70 69 68 71 72 74 72 72 72 71
72 63 74 77 76 73 71 67 67 72 75 72 72 71 75 76 77 79 78 78 78 78 77 78 78 79 78 74 72 71 72 73 75 77 77 76 75 76 76 74 72 72 71 70
61 68 74 74 72 70 69 67 63 67 71 73 72 69 70 74 79 79 80 81 81 78 77 76 76 75 73 70 70 73 76 78 79 79 79 78 76 74 73 72 72 71 71 71
67 71 73 71 69 72 64 71 71 68 67 60 73 58 68 71 71 72 74 77 78 78 78 77 77 72 72 74 77 80 80 79 79 78 77 74 74 70 71 75 75 72 70 70
67 71 70 69 69 72 65 72 70 70 68 65 66 63 63 72 68 69 73 74 77 77 77 76 76 77 78 78 78 79 79 79 77 76 77 75 74 75 75 74 70 69 70 70
59 78 75 73 72 73 73 70 70 70 67 55 65 63 65 68 72 72 73 74 75 75 76 77 78 78 77 77 77 77 77 77 76 75 75 74 71 71 71 69 69 69 70 70
69 70 73 75 69 72 72 66 52 50 52 50 64 60 66 73 72 76 72 73 74 75 75 76 76 76 75 74 74 75 76 74 74 73 73 72 70 69 68 68 68 67 67 67
59 56 69 74 71 67 68 67 55 43 47 53 63 56 64 73 73 75 76 75 74 73 75 75 76 76 75 74 74 74 75 73 73 72 71 71 70 71 70 68 66 65 65 65
59 59 72 71 73 72 66 61 68 56 52 49 59 67 69 71 70 72 74 73 72 73 74 75 76 76 76 74 73 73 74 72 72 70 69 68 68 67 65 65 65 65 64 64
68 58 68 69 72 71 68 71 57 58 43 44 58 59 62 65 67 70 72 71 72 74 74 76 76 75 76 75 74 73 74 72 71 69 68 68 65 65 66 64 63 62 62 62
73 66 62 67 65 66 64 62 63 63 58 47 47 59 70 68 70 69 72 73 73 73 74 76 76 76 75 74 73 71 72 70 68 68 65 62 63 65 64 64 63 62 61 60
71 66 57 62 70 72 70 66 65 53 52 54 51 55 72 71 72 73 73 74 75 76 76 76 76 74 72 71 71 70 69 68 67 65 59 62 64 65 63 63 62 61 59 59
69 62 53 56 63 67 63 67 67 65 59 52 47 55 72 72 70 72 73 75 75 75 76 75 74 71 70 70 70 69 68 67 63 58 63 64 64 63 62 61 60 59 58 57
62 65 59 52 59 66 59 63 66 63 51 53 56 61 68 69 70 72 73 75 76 75 75 73 71 70 70 70 68 67 65 63 59 64 65 63 62 62 60 60 58 57 56 55
67 58 63 64 64 63 63 63 64 60 61 54 60 63 70 73 73 74 75 74 74 72 71 71 69 69 69 68 66 65 63 63 63 64 63 62 61 60 59 58 56 55 55 54
67 57 59 54 61 60 58 62 63 64 64 65 65 64 75 74 76 72 72 72 71 71 70 70 70 69 68 66 64 63 63 63 63 61 60 60 59 58 57 55 54 54 53 53
62 58 53 48 55 55 43 56 61 64 67 65 57 66 71 69 69 69 70 70 70 70 70 69 69 68 67 65 63 63 63 62 60 58 59 58 56 55 55 55 54 52 51 52
59 57 52 46 41 35 61 66 65 62 66 69 69 70 71 70 71 71 73 71 70 70 69 68 68 67 66 65 64 63 61 59 57 57 57 57 55 54 54 53 52 51 51 49
65 57 45 40 47 55 60 63 60 58 59 68 66 69 70 68 66 68 71 71 71 70 70 69 68 66 64 63 62 59 59 58 57 55 54 55 54 53 52 51 50 50 49 45
59 59 52 45 38 34 55 62 65 64 52 67 67 65 65 65 56 64 68 69 68 69 69 68 66 63 62 60 60 57 56 56 53 54 53 54 54 52 51 50 50 49 48 44
45 45 42 44 41 50 63 63 64 48 51 65 66 66 65 63 62 65 68 66 68 68 67 66 63 60 59 58 54 52 54 54 55 54 53 52 53 52 51 50 50 49 46 42
48 45 40 45 36 37 65 62 53 60 66 65 66 66 63 65 63 61 64 64 64 64 62 61 59 56 54 54 53 54 53 54 54 52 51 51 51 51 50 49 48 47 43 39
51 57 54 55 54 63 67 65 67 67 64 64 64 66 65 63 63 61 62 61 60 59 58 56 53 48 50 52 51 48 51 52 50 49 49 49 49 50 49 47 47 42 41 40
61 61 55 54 62 64 64 66 66 66 63 65 65 64 64 62 64 60 60 59 57 54 51 48 46 46 50 52 50 50 49 49 48 46 46 47 47 46 47 47 47 41 39 38
61 60 58 57 63 63 62 61 61 61 63 63 63 61 60 61 60 59 56 54 50 45 44 47 48 47 48 50 49 50 50 48 46 45 46 46 45 45 45 46 44 41 42 40
63 59 52 52 57 56 59 57 59 58 58 59 58 56 58 59 55 52 45 42 42 44 44 43 47 47 48 49 49 50 50 49 46 44 45 44 43 44 44 44 41 40 36 36

GFSCGP_sfc_temp_048.txt.gz
Temp
74 66 61 66 69 70 68 65 63 70 75 72 70 69 72 76 77 75 76 76 76 76 79 79 78 78 78 74 72 68 65 66 65 67 66 64 63 63 64 65 66 65 66 66
68 60 68 73 72 70 69 65 64 72 75 72 70 69 73 75 75 77 76 75 75 75 76 76 77 76 76 73 69 69 69 67 69 70 70 68 66 66 67 66 65 66 65 65
61 58 65 70 69 68 69 61 60 62 69 73 70 66 69 74 77 78 79 79 79 77 74 75 75 74 73 70 67 68 70 70 71 72 71 70 68 66 65 64 63 64 65 65
58 66 64 66 68 71 58 66 68 63 56 56 66 50 61 69 71 75 76 76 76 77 77 76 74 69 69 68 70 71 71 72 74 72 70 67 66 64 65 64 66 64 65 64
58 62 63 65 68 71 60 65 65 69 65 61 56 52 58 65 66 71 73 76 77 78 77 75 70 70 70 70 69 71 73 74 72 71 70 67 66 63 66 64 62 63 62 63
63 67 67 68 73 74 71 66 69 68 62 49 52 54 55 59 62 69 73 74 76 76 76 75 73 72 70 71 71 71 73 73 71 71 70 67 67 65 63 62 60 61 61 61
64 67 75 75 69 73 70 63 49 37 40 45 65 59 62 61 72 70 72 72 74 74 73 73 73 73 72 71 70 71 72 71 70 69 68 67 65 64 63 61 60 59 59 57
55 52 68 74 69 55 59 61 43 37 40 48 60 55 61 72 75 77 76 75 74 72 72 73 72 72 71 70 70 70 72 70 70 68 67 65 65 62 62 61 60 58 57 56
57 55 64 72 75 68 60 59 67 56 50 45 55 63 68 72 71 73 73 73 71 71 72 73 73 72 71 70 69 69 70 70 68 66 65 63 63 61 59 60 60 57 57 59
60 45 57 68 73 72 68 71 56 57 41 40 54 57 55 63 66 69 71 70 70 72 72 73 73 72 72 71 70 68 70 68 68 66 63 63 62 61 60 60 58 57 55 55
63 53 59 68 64 63 63 60 63 63 57 43 41 52 68 67 69 68 71 72 71 71 71 72 73 73 73 71 70 69 69 66 65 64 62 58 59 60 60 59 57 56 55 54
71 65 55 61 72 73 69 64 65 49 49 52 47 50 72 71 71 72 72 73 74 73 73 73 74 72 71 69 67 67 67 66 64 62 58 58 57 58 59 57 57 55 53 53
70 61 49 55 64 68 63 66 66 64 58 50 42 51 72 72 71 72 72 73 73 73 74 74 74 70 69 69 68 67 65 64 62 60 59 57 58 59 58 56 55 55 53 52
64 63 57 49 57 64 60 62 66 63 47 49 50 58 67 69 68 71 71 72 73 73 74 74 73 71 69 68 68 66 63 61 60 59 59 59 59 58 56 55 55 53 52 51
66 56 61 63 65 65 62 62 64 61 61 51 56 60 67 71 71 72 74 73 73 73 74 74 71 69 69 67 66 65 61 60 60 60 59 58 57 57 55 54 52 52 51 50
67 56 58 55 62 62 57 61 63 63 63 63 63 62 73 74 72 71 71 72 71 71 73 72 72 70 68 67 64 62 61 60 61 59 56 57 57 56 54 51 51 50 49 49
62 56 51 45 55 52 42 55 59 62 65 64 55 64 71 70 70 69 69 70 69 70 71 70 70 69 67 64 64 60 61 60 58 56 56 56 55 53 51 52 51 49 47 47
61 57 50 43 40 34 57 68 66 61 64 67 67 67 69 66 69 70 72 70 69 70 70 69 68 67 65 63 63 60 60 57 55 54 55 55 53 51 51 50 49 47 46 45
67 55 44 38 43 52 58 63 61 59 58 65 64 66 68 67 66 65 70 69 68 68 69 69 67 65 63 62 61 58 57 56 55 53 53 53 52 51 50 48 47 47 45 43
62 60 48 43 38 33 55 63 67 65 48 65 65 64 64 65 51 56 67 68 68 69 69 67 63 62 60 58 58 56 52 52 51 53 52 52 51 49 48 47 46 45 44 43
44 43 39 42 38 47 64 65 65 46 48 63 64 64 63 59 58 62 65 66 68 67 66 63 61 59 56 53 53 51 50 50 53 52 50 50 50 49 48 47 46 44 42 39
44 43 37 44 35 34 66 62 52 58 63 63 64 63 61 62 63 62 63 64 64 61 60 60 56 52 52 53 50 49 47 50 51 50 49 48 48 48 48 45 44 43 40 36
49 56 50 50 48 62 67 63 65 65 62 62 61 63 63 61 62 63 61 60 59 58 53 52 49 47 47 49 48 48 49 50 48 46 46 46 47 47 47 44 42 38 37 33
62 63 54 54 63 64 64 64 63 63 61 63 63 61 61 59 61 60 60 57 53 49 46 47 46 45 47 50 48 47 48 48 47 45 45 45 44 43 43 44 43 39 33 31
60 61 58 57 63 61 60 58 58 60 61 60 60 59 58 60 59 57 50 46 44 44 45 46 45 43 44 47 48 50 50 48 45 44 44 43 42 41 40 42 40 35 36 34
63 58 51 50 56 56 52 56 58 56 55 57 54 49 50 50 46 45 42 43 44 42 42 42 44 46 48 49 48 49 49 49 45 43 42 37 36 36 38 39 37 39 36 37

GFSCGP_sfc_temp_051.txt.gz
Temp
65 56 51 57 62 63 61 59 55 60 66 63 61 60 63 65 67 64 62 64 64 67 69 71 70 72 70 66 65 63 61 60 60 58 57 56 54 55 56 57 60 60 60 60
58 51 61 64 64 63 62 59 57 62 67 63 59 59 63 66 66 67 67 64 66 65 68 69 69 70 68 66 63 62 62 60 61 61 60 59 58 57 58 58 58 59 59 59
53 58 67 64 60 58 59 57 55 56 60 61 60 54 57 65 67 68 69 70 69 66 66 67 68 64 65 61 61 63 63 62 63 64 62 59 58 57 56 56 56 58 60 60
55 64 63 60 58 61 53 64 61 59 55 46 57 41 53 60 64 67 67 65 64 66 68 68 66 61 62 60 63 64 65 63 64 65 62 59 56 57 56 56 56 57 59 59
57 60 59 57 60 65 57 62 62 60 53 51 51 46 51 61 60 62 64 65 67 68 68 68 65 63 63 63 64 61 64 65 65 66 62 60 57 57 57 57 59 57 58 58
60 65 62 61 67 66 66 60 59 53 51 40 52 49 44 53 62 64 66 65 66 65 69 67 66 67 65 62 61 61 63 64 64 62 61 60 58 58 59 58 57 56 56 54
57 61 65 64 58 62 60 52 38 35 34 35 57 49 49 60 64 67 67 66 64 63 63 63 65 63 64 60 61 62 65 62 63 62 60 59 58 57 57 54 53 53 53 53
48 46 57 63 61 56 55 52 38 33 32 37 54 46 51 63 66 68 67 63 63 62 62 62 63 63 64 62 61 67 62 62 62 61 59 58 58 56 54 55 55 54 53 53
49 47 61 66 66 63 53 47 57 45 39 32 44 52 58 63 63 63 61 63 60 61 61 62 62 63 61 61 61 61 61 61 61 60 58 57 55 55 55 55 54 53 53 55
54 45 55 60 64 63 59 62 45 44 34 32 42 45 46 55 59 61 60 59 60 61 62 61 62 62 63 62 62 61 61 61 61 62 61 59 55 56 55 55 55 55 52 52
57 50 49 58 54 54 55 52 53 52 43 33 29 40 56 57 59 59 59 62 61 61 61 61 61 64 63 62 61 62 60 62 62 60 57 55 56 57 57 57 54 53 52 51
60 49 40 50 60 64 61 55 54 35 41 40 33 39 59 60 61 62 62 64 63 64 63 62 62 62 63 65 66 65 62 61 60 57 55 55 56 57 56 55 54 52 51 50
58 50 38 45 53 58 55 58 58 54 44 41 30 38 61 63 61 63 60 62 63 63 62 62 62 65 66 66 64 63 61 58 57 57 55 55 56 56 54 55 52 51 49 49
59 54 47 38 47 53 51 56 57 52 34 39 40 47 56 58 59 61 62 61 60 63 65 64 64 65 65 63 62 60 56 56 57 57 55 54 54 54 52 51 51 48 49 47
56 47 50 53 56 56 56 54 55 54 51 41 47 50 56 57 58 58 60 61 63 63 62 63 60 58 58 57 57 57 56 56 57 56 55 52 52 52 52 50 49 49 49 48
57 45 48 45 54 53 48 53 53 54 55 53 51 51 59 60 61 60 61 63 61 61 63 61 60 60 59 58 56 57 55 56 57 53 52 53 52 52 49 48 48 48 46 46
51 47 39 35 46 45 35 47 51 53 54 52 45 52 57 56 58 57 58 59 60 61 61 62 60 60 59 58 57 56 56 55 53 51 52 53 51 49 48 49 48 47 45 45
49 47 37 32 34 26 47 58 59 55 55 55 55 55 56 55 56 57 57 56 57 60 60 59 57 55 56 57 57 56 55 52 51 51 51 50 48 48 48 48 46 45 44 43
54 42 34 31 30 42 50 54 53 50 48 55 54 55 56 58 55 53 59 59 58 57 56 55 55 53 52 52 53 53 53 52 51 48 48 48 48 47 46 45 44 44 42 40
54 47 36 31 28 24 43 55 60 57 37 54 55 53 52 53 38 44 55 58 56 56 55 54 52 50 48 48 49 47 45 46 46 48 47 47 46 45 44 44 42 42 42 41
33 32 30 26 26 35 54 58 58 37 38 53 55 53 51 48 48 52 56 53 55 54 51 49 48 46 46 47 47 46 45 44 46 47 46 46 46 44 44 43 43 42 39 36
37 33 28 32 31 30 57 55 44 47 52 53 53 52 51 52 53 54 53 50 47 46 46 45 43 43 44 46 47 45 44 47 48 47 46 45 45 45 45 41 40 39 36 33
37 43 37 40 37 50 54 52 53 53 51 51 51 52 53 52 53 52 47 44 43 43 42 43 42 44 45 47 46 44 44 46 45 43 42 42 42 42 42 39 37 34 33 28
50 55 44 45 51 51 51 53 54 54 52 52 52 51 53 51 52 47 44 41 41 42 43 45 45 44 43 44 45 44 44 45 43 40 40 40 39 38 37 38 37 33 28 27
48 51 49 47 49 49 49 51 51 52 52 48 47 47 46 45 42 41 40 41 42 42 43 43 41 40 41 42 43 44 44 44 41 39 39 38 37 35 34 35 34 33 31 30
51 49 39 37 47 46 45 48 50 47 46 46 44 42 43 42 41 42 41 41 41 40 41 39 39 39 41 42 42 43 43 42 39 37 36 33 31 31 32 32 34 36 35 35

GFSCGP_sfc_temp_054.txt.gz
Temp
60 54 50 54 57 60 60 56 51 58 62 56 57 57 59 60 61 59 60 62 62 62 67 70 69 68 67 63 63 62 60 58 59 57 57 55 53 54 54 55 57 57 57 57
56 51 60 63 62 58 57 53 53 58 62 59 53 55 57 61 63 64 64 63 63 63 64 67 67 67 66 62 63 61 61 59 60 59 57 56 55 54 54 55 56 57 56 55
51 57 64 61 58 56 54 51 52 53 57 57 54 50 56 61 63 64 65 67 67 66 63 64 65 64 63 61 60 62 61 60 60 60 59 56 55 54 53 53 53 55 57 57
54 59 60 56 57 58 50 59 58 55 50 44 52 39 47 58 60 62 63 60 62 65 66 64 65 61 61 60 60 62 61 61 60 60 59 56 55 55 53 53 53 55 57 56
53 55 56 54 57 62 53 57 56 56 49 47 50 45 49 55 56 58 61 61 63 64 67 63 63 63 62 60 60 61 62 62 61 62 60 58 54 54 53 53 54 54 54 55
56 61 61 59 63 61 62 56 54 50 47 39 51 45 45 51 58 64 62 64 63 62 65 64 62 63 60 61 61 61 62 61 60 61 59 58 56 54 53 53 53 53 53 51
54 56 60 62 57 59 56 48 36 33 32 34 51 45 50 56 61 62 62 59 60 60 60 59 59 60 60 60 61 61 60 60 60 59 59 57 56 55 54 54 52 51 51 51
45 43 57 61 57 52 53 49 35 32 29 34 51 42 49 60 63 64 65 60 59 59 62 61 60 61 60 60 59 62 61 59 58 58 56 55 55 53 53 55 54 53 52 50
45 46 56 60 61 60 52 46 53 42 35 30 42 48 56 60 60 60 57 58 56 56 58 59 59 59 59 58 58 59 60 59 58 56 55 54 55 54 55 53 54 52 51 52
53 44 54 56 60 59 56 58 44 41 33 31 39 42 44 51 54 56 54 56 56 57 57 58 59 58 59 60 58 57 60 61 58 57 58 58 56 54 54 54 51 50 49 51
54 49 48 54 52 51 51 49 49 48 40 33 29 38 52 54 57 56 56 58 57 58 58 59 60 60 61 61 59 58 59 58 57 58 55 54 55 55 54 52 51 51 50 50
56 47 40 50 57 59 53 51 51 35 39 36 31 38 56 57 58 58 58 59 59 61 61 60 60 60 60 61 61 59 61 60 57 55 54 54 55 54 53 51 51 50 49 49
57 46 36 43 51 55 50 54 54 48 41 38 29 37 57 56 56 59 58 58 59 60 60 60 60 60 60 62 62 58 56 54 55 55 53 54 54 53 51 51 49 48 48 46
56 49 44 38 45 50 47 52 53 48 33 37 38 45 53 56 56 58 59 57 57 60 61 60 60 60 61 59 58 56 55 55 55 55 55 53 53 53 50 49 48 47 48 45
54 47 49 50 52 53 50 50 50 49 47 40 45 46 53 54 55 55 58 58 57 58 58 58 55 55 56 57 54 53 54 55 55 54 53 51 51 48 49 48 45 48 46 47
54 45 44 43 48 49 45 49 49 50 51 49 48 48 53 54 55 54 56 57 57 57 56 58 55 56 56 54 51 52 52 53 52 51 51 51 50 49 47 46 46 45 47 46
49 44 37 36 42 42 34 45 49 51 50 51 43 48 51 51 52 52 52 54 55 55 55 54 55 55 54 52 52 50 50 50 49 49 50 50 49 47 47 48 47 46 44 44
45 42 34 31 32 26 46 54 53 49 49 50 51 49 51 51 50 51 53 52 54 54 53 52 51 51 51 51 50 49 50 49 47 47 48 48 46 45 46 45 45 43 43 41
51 40 33 30 30 39 47 52 50 47 44 50 49 50 51 52 51 49 52 52 49 49 48 47 48 48 48 49 49 48 46 47 46 45 46 46 46 44 44 42 42 42 39 38
48 43 37 30 28 25 42 51 56 53 36 50 50 50 51 49 37 42 48 50 47 47 46 45 46 46 45 45 46 45 43 44 43 46 46 45 44 44 43 42 40 39 38 38
33 31 30 24 26 33 48 54 54 38 38 50 50 49 48 45 45 46 46 45 46 45 44 44 44 43 43 45 46 45 45 44 45 45 44 45 45 43 42 40 39 38 36 34
38 32 27 29 26 30 52 52 44 45 48 49 49 48 48 47 47 44 44 43 42 42 42 44 43 44 46 47 47 44 42 45 45 44 43 42 42 42 41 38 37 36 33 31
37 41 36 38 36 47 49 49 49 50 49 48 47 49 49 47 44 43 41 41 41 41 41 45 44 44 44 44 43 42 42 43 42 42 40 39 40 39 38 36 35 32 31 28
46 49 42 42 45 45 48 49 50 49 46 46 47 49 49 43 42 40 40 40 40 43 43 44 43 41 40 42 42 41 42 42 40 38 38 37 36 36 35 35 34 31 29 28
46 49 43 40 44 46 47 47 46 45 45 43 43 44 44 42 40 40 40 42 41 41 42 42 40 39 39 40 40 41 41 41 38 37 36 36 35 34 33 34 34 33 32 32
48 47 38 35 47 44 43 44 46 43 42 42 41 39 41 41 39 40 39 40 40 40 41 40 38 38 37 38 37 38 38 37 35 34 33 31 31 31 31 32 34 36 35 35

GFSCGP_sfc_temp_060.txt.gz
Temp
55 50 45 49 52 54 52 51 49 52 59 52 52 50 53 55 55 53 53 54 55 57 62 60 60 61 60 59 58 58 57 56 57 55 54 53 52 52 53 54 55 55 56 54
51 46 54 55 54 53 51 50 48 53 54 54 49 49 53 55 56 56 55 54 55 57 57 59 59 59 59 59 59 58 58 56 57 58 54 54 53 52 53 53 54 55 54 52
48 53 57 56 52 51 49 48 46 48 50 51 48 48 51 55 56 58 59 59 59 58 57 59 59 59 60 59 58 59 58 57 58 58 55 52 52 52 51 51 51 52 53 53
50 54 55 52 51 52 45 54 53 50 46 41 47 38 45 50 54 57 58 57 58 58 59 60 60 58 59 59 59 59 58 57 57 57 55 54 53 51 51 51 51 52 52 52
51 50 50 49 52 55 50 54 52 51 45 42 42 39 46 50 50 55 57 57 59 60 60 59 61 61 59 57 57 57 58 57 57 58 57 55 52 52 53 51 52 51 50 51
52 55 55 54 56 56 55 50 48 45 43 35 42 41 41 45 51 55 56 57 59 59 60 61 61 59 56 56 56 57 57 57 58 58 57 55 54 52 53 50 51 49 48 47
48 51 54 57 50 53 50 44 34 32 31 34 44 41 45 49 55 57 57 59 59 59 58 58 57 58 55 56 57 58 57 57 58 58 57 56 56 54 53 51 50 47 46 45
42 40 52 56 53 48 46 46 35 31 29 32 43 39 47 55 57 56 57 58 58 57 58 59 60 59 57 58 58 59 58 59 58 58 58 57 56 54 52 52 52 47 47 47
40 43 51 54 55 54 46 42 47 37 33 29 37 45 53 53 54 55 53 52 53 54 57 59 59 58 57 57 58 59 59 60 59 59 57 55 54 52 50 48 50 49 48 47
49 41 49 52 54 53 50 53 41 37 32 30 35 37 41 50 52 53 53 53 51 51 53 54 56 57 58 59 60 60 59 59 58 57 55 55 52 51 50 50 48 47 47 47
50 46 43 49 48 48 46 44 43 43 36 32 28 36 47 51 52 51 52 53 53 52 52 53 55 57 57 58 58 58 58 58 54 54 52 49 49 49 49 49 48 48 46 46
52 44 38 46 50 53 50 47 45 34 36 33 30 34 52 52 53 52 55 55 53 53 53 54 54 55 55 56 56 56 56 55 53 50 49 48 49 49 48 46 47 46 46 46
51 42 35 40 45 47 45 47 46 42 37 34 28 36 52 52 52 53 54 54 55 53 53 53 54 54 56 56 54 53 52 51 50 50 49 48 49 48 47 46 47 47 46 46
54 44 41 38 42 46 42 46 46 45 32 36 35 41 49 51 51 53 54 53 53 54 54 53 52 53 54 53 51 49 48 50 50 50 50 49 47 48 46 48 46 46 46 45
51 43 43 45 46 48 47 47 44 43 43 38 42 41 48 50 50 51 52 52 52 53 53 53 52 51 51 50 48 48 48 50 50 50 49 48 49 48 46 46 45 45 44 45
48 43 42 39 42 44 42 47 46 45 44 43 43 43 49 47 47 48 49 51 50 50 51 51 51 51 49 48 48 48 48 48 49 49 47 47 47 46 45 45 44 44 45 45
45 41 37 36 38 40 34 41 46 47 46 46 39 46 48 45 46 44 46 48 47 46 46 47 47 47 46 46 47 46 45 46 46 48 48 47 46 45 45 45 44 43 42 42
41 39 34 30 31 25 44 46 48 46 46 46 45 44 45 45 42 42 42 44 43 43 43 43 43 42 42 44 44 45 46 45 46 46 46 46 45 44 44 43 43 42 41 40
46 37 32 31 30 37 43 45 45 44 44 46 44 44 44 45 44 42 42 41 40 39 39 39 41 41 42 43 44 45 45 47 46 45 44 45 44 43 43 42 41 39 37 36
44 40 36 28 28 26 40 47 50 49 37 47 46 44 44 44 38 40 40 40 39 39 39 39 40 41 41 40 45 46 46 45 43 44 44 44 43 43 42 40 38 36 34 34
32 31 31 24 26 34 45 48 50 37 39 46 47 47 44 43 41 38 39 38 39 39 39 40 41 39 39 41 44 43 44 43 44 44 43 43 42 40 39 36 35 34 33 31
38 34 29 27 25 31 49 47 43 45 42 45 46 45 43 38 37 37 38 37 38 38 39 40 39 39 39 40 41 39 41 43 42 41 40 39 38 37 37 34 33 33 31 29
37 42 37 40 38 46 47 47 46 47 46 46 46 44 42 38 37 37 36 37 37 38 37 39 39 39 39 39 39 39 38 39 38 37 35 34 34 33 32 32 31 29 29 27
44 46 40 41 44 44 44 44 45 45 44 45 45 44 43 38 37 37 37 37 37 37 37 39 38 36 35 36 37 35 35 35 34 32 31 31 30 31 30 30 30 28 26 27
44 46 41 40 42 44 45 42 43 42 43 42 42 42 40 38 37 37 36 36 37 37 37 37 36 34 34 34 32 33 33 32 31 30 30 29 29 28 29 29 28 29 29 28
45 44 40 42 48 47 44 41 42 41 40 41 40 38 39 39 37 37 36 36 36 36 37 36 35 34 32 31 30 30 31 30 29 29 28 26 26 26 26 26 27 32 32 33

GFSCGP_sfc_temp_063.txt.gz
Temp
62 59 55 59 58 58 57 56 55 60 62 59 57 57 59 59 60 59 59 59 60 62 67 67 68 68 69 68 68 68 66 66 65 63 61 61 61 63 63 64 64 64 65 64
59 54 60 60 59 59 57 55 56 59 61 60 59 58 60 58 61 63 62 61 63 64 65 65 66 67 67 67 67 67 67 65 66 68 66 66 65 65 64 64 63 64 64 62
54 59 60 59 57 56 56 54 53 55 56 57 55 56 57 60 62 63 64 65 65 64 64 64 64 65 66 66 66 67 67 66 67 68 66 63 63 62 60 60 62 62 61 60
56 60 57 56 56 57 51 59 57 55 53 50 55 47 54 58 58 60 63 63 64 64 65 67 66 65 66 66 67 67 67 66 66 66 66 64 65 63 62 62 61 59 59 61
57 56 55 54 56 59 56 58 56 55 53 52 50 50 56 56 56 60 62 64 65 66 67 67 67 68 67 66 65 66 66 66 65 64 65 64 63 62 60 61 58 59 59 62
58 62 60 60 60 60 59 57 54 52 51 45 49 51 54 57 58 61 65 65 66 67 67 69 70 69 68 65 65 65 65 65 64 64 63 63 62 59 57 59 59 60 61 60
55 57 61 62 58 60 58 52 44 41 42 42 50 47 54 60 62 63 63 64 65 67 67 67 67 67 66 64 64 65 65 64 63 61 62 62 62 59 59 60 58 58 59 58
48 46 57 60 60 56 54 53 44 37 38 43 48 46 57 62 65 64 63 64 65 64 66 67 68 68 65 64 64 63 64 65 63 60 60 60 60 60 60 57 59 59 58 56
45 48 58 59 61 61 53 50 54 42 39 39 46 52 61 61 62 63 63 62 62 62 64 66 67 67 66 65 64 63 65 65 64 62 60 60 61 60 57 57 61 60 58 55
53 47 54 57 61 58 57 57 47 45 37 35 43 44 51 59 60 60 63 62 62 61 61 63 66 65 66 66 68 64 66 66 65 64 62 62 61 60 58 57 58 57 55 55
54 52 50 55 53 53 52 51 49 50 45 40 37 45 56 60 62 61 63 62 63 63 62 63 64 66 66 66 66 65 66 66 65 64 62 60 62 59 57 55 55 54 54 51
56 50 43 51 57 58 56 53 52 44 42 41 40 44 61 61 60 60 62 63 65 64 66 64 64 64 63 64 65 65 64 64 64 63 60 59 57 54 53 51 52 51 50 48
54 48 43 46 52 55 53 53 51 48 44 41 39 46 59 60 62 61 61 64 64 63 64 63 62 63 63 64 63 62 61 60 60 58 55 53 52 51 51 50 50 51 48 47
56 48 47 44 49 52 47 50 51 51 42 44 44 51 58 61 60 63 62 62 63 63 64 64 62 62 61 61 61 61 58 57 55 54 54 53 52 51 49 48 47 46 48 46
56 48 48 50 51 51 51 51 49 49 51 46 51 48 57 59 61 60 59 59 60 62 62 61 60 60 60 58 56 56 55 55 55 53 52 51 51 51 48 46 46 49 46 45
52 48 47 46 48 50 49 52 50 50 51 50 50 49 58 59 57 56 54 57 56 54 55 58 59 58 56 55 55 53 54 54 56 54 50 49 48 48 45 46 44 44 47 45
48 45 42 42 45 46 39 46 50 51 52 53 47 54 55 54 54 53 52 53 52 50 51 51 52 53 53 53 53 52 52 53 53 52 50 49 47 45 44 44 46 45 45 44
45 44 41 37 37 32 51 52 54 52 53 54 52 53 55 55 50 49 49 52 49 48 48 48 49 49 50 51 51 51 53 51 50 47 46 45 45 45 45 45 45 44 43 46
50 42 37 36 38 43 48 50 50 50 53 55 54 54 51 50 51 48 46 47 46 46 46 46 48 48 50 50 51 51 51 49 47 46 46 46 45 46 46 44 44 46 47 46
45 45 42 35 35 34 47 53 54 57 45 56 54 51 49 50 48 52 45 45 44 45 46 46 47 48 48 50 51 50 48 47 46 45 45 47 44 44 46 46 46 46 46 45
37 37 37 33 36 41 50 53 55 44 49 53 54 53 51 51 51 47 44 43 45 45 45 47 47 47 48 50 50 47 47 45 47 48 46 45 48 46 45 45 45 44 43 42
41 38 35 34 34 37 52 52 48 54 52 53 52 51 50 43 41 42 42 42 43 44 45 46 45 45 47 49 48 47 45 47 45 45 44 43 43 42 42 42 42 42 41 39
39 45 42 44 45 52 53 56 55 53 55 51 53 51 46 42 42 42 41 42 43 44 45 45 44 42 43 45 46 42 42 44 43 41 40 40 40 40 40 40 39 39 39 37
45 48 44 46 50 50 51 51 51 52 53 53 53 50 48 44 42 41 42 42 42 43 42 43 42 40 38 40 40 40 40 41 40 39 38 38 37 37 38 38 38 37 35 33
47 48 45 45 48 47 50 49 50 49 48 48 49 48 46 43 42 42 41 42 42 41 41 42 39 37 36 37 36 37 38 39 37 36 35 35 34 34 34 35 34 33 34 33
48 47 44 44 52 53 56 53 48 46 46 47 44 43 44 44 42 42 41 41 41 40 40 38 37 35 33 33 33 34 35 36 35 33 33 30 31 31 32 32 32 31 31 32

GFSCGP_sfc_temp_066.txt.gz
Temp
72 67 63 68 70 68 67 64 62 67 71 68 68 68 71 70 70 69 70 69 68 69 76 75 74 77 78 77 77 76 75 75 74 74 74 74 73 75 75 71 73 72 72 71
67 62 70 70 69 66 66 62 62 67 70 68 68 67 69 68 68 73 73 71 70 73 73 74 75 76 75 75 75 76 77 77 76 78 76 76 75 77 76 71 72 71 70 71
64 67 70 68 66 63 65 62 62 62 68 69 65 65 67 71 71 74 76 76 76 76 74 74 74 75 75 75 75 77 78 78 76 77 77 77 77 76 73 68 68 70 68 72
67 72 66 65 64 66 60 68 66 63 61 58 64 57 65 69 69 70 73 74 76 76 77 77 75 75 75 75 77 78 78 78 76 76 76 73 74 73 74 70 71 67 69 68
64 65 63 63 65 68 63 66 64 64 62 61 61 59 66 68 68 72 73 75 76 78 77 78 78 77 78 77 76 76 78 77 77 76 76 74 73 76 75 71 70 68 66 66
70 71 69 68 67 69 68 64 63 63 61 52 58 58 65 69 69 72 76 77 77 78 79 80 81 81 80 78 76 76 76 77 76 74 73 73 73 72 68 68 66 61 63 64
64 66 70 69 65 67 66 61 52 47 49 49 59 57 62 70 72 73 74 75 78 80 79 80 81 80 80 79 76 76 76 76 76 73 73 72 72 71 68 67 66 64 61 63
56 53 65 70 67 64 64 63 53 42 44 51 57 53 65 73 76 76 75 76 76 77 80 80 81 82 80 79 76 75 75 74 74 70 71 71 68 67 66 67 66 61 59 64
57 57 68 68 69 70 60 57 64 52 49 49 57 62 71 73 72 72 75 75 75 75 78 80 81 81 80 79 76 75 76 76 76 70 71 67 67 63 64 66 64 58 60 65
63 55 65 65 68 66 65 68 54 57 42 41 53 54 60 66 68 71 73 75 75 74 74 77 79 80 79 79 79 76 77 77 78 75 69 69 67 68 66 64 62 58 61 66
68 62 57 62 61 62 60 59 60 61 56 46 45 54 69 69 71 71 74 74 76 77 76 76 77 78 78 79 78 76 75 77 77 76 72 67 66 65 64 62 60 58 59 62
68 62 54 59 66 67 68 64 63 52 50 53 50 53 73 73 73 73 74 75 77 76 76 77 77 76 76 76 76 76 75 76 76 75 72 64 63 61 57 55 54 56 53 52
66 59 50 53 59 62 61 64 64 62 57 52 46 53 70 72 72 74 73 76 76 75 78 77 75 74 75 75 75 75 74 73 72 67 62 56 54 53 52 51 50 49 48 46
63 62 56 50 57 63 57 61 63 61 52 53 55 59 68 71 72 75 75 75 75 75 76 78 77 75 74 73 71 68 63 62 60 58 55 52 52 51 50 49 49 47 48 47
65 57 61 62 64 65 62 62 63 59 60 54 59 61 67 71 73 75 73 71 71 73 74 75 75 73 73 70 69 68 62 58 57 55 53 52 52 51 49 48 47 48 46 47
65 57 60 55 62 61 58 62 63 62 63 63 62 62 73 75 72 70 69 68 68 66 68 70 71 69 66 65 65 63 61 57 57 54 51 51 50 51 51 47 46 48 48 47
59 58 54 50 56 55 44 54 61 62 64 63 58 66 73 70 69 69 66 65 63 62 63 64 65 65 64 63 63 61 60 59 57 54 53 53 53 50 48 48 46 46 45 46
56 56 55 48 43 36 59 63 67 64 66 69 67 69 70 70 69 64 63 65 62 61 60 60 61 61 62 62 62 61 62 60 58 56 55 54 51 49 48 46 45 46 49 49
61 56 48 42 46 55 58 56 59 59 61 70 67 71 72 66 62 60 59 63 61 59 59 60 61 61 61 61 61 60 58 55 53 51 50 49 48 46 46 47 47 48 53 54
55 55 52 44 43 37 55 65 68 67 53 71 70 69 68 61 56 67 58 57 56 58 59 58 59 60 59 60 60 57 55 53 51 51 50 51 52 50 48 52 53 53 54 53
44 45 43 45 43 52 63 61 66 50 55 71 71 70 64 61 65 61 57 56 57 57 57 58 59 58 58 59 58 56 55 54 54 53 52 52 52 52 52 52 52 53 52 49
46 44 41 44 39 39 59 58 57 67 66 70 67 68 63 61 55 55 55 53 54 54 55 56 56 56 57 58 57 55 53 55 53 51 49 50 50 50 50 50 50 50 48 46
44 53 52 52 55 60 63 68 70 68 70 65 68 67 65 55 54 54 53 53 54 55 55 56 54 53 55 56 56 52 51 52 51 50 48 48 47 48 48 47 46 47 46 43
54 55 52 51 64 61 62 67 62 66 66 66 66 65 60 57 54 53 54 54 54 54 53 53 52 50 48 51 51 50 50 50 50 47 45 46 43 45 44 47 45 44 41 39
58 54 55 56 62 57 59 63 66 63 62 60 62 63 60 57 54 54 53 53 53 52 52 53 50 47 45 46 46 47 47 47 44 43 43 42 41 41 43 42 41 39 39 35
58 56 49 51 62 60 68 63 66 62 59 59 59 58 59 57 54 55 53 53 51 50 50 47 46 44 43 42 41 43 44 45 43 41 40 37 39 39 41 41 40 31 32 30

GFSCGP_sfc_temp_069.txt.gz
Temp
76 69 65 71 74 73 70 68 66 71 75 70 68 70 74 77 76 72 72 74 73 73 75 76 76 77 75 74 75 76 75 74 74 75 75 76 75 78 79 78 75 73 74 73
72 64 74 76 74 71 69 66 66 71 74 71 70 70 75 76 75 76 75 72 72 74 73 74 75 75 76 75 77 79 79 78 78 79 79 79 78 79 80 76 72 73 74 74
66 71 77 71 70 67 68 65 66 65 72 74 71 66 71 75 76 78 79 78 76 72 77 76 75 76 77 77 77 79 80 81 80 81 81 79 79 79 78 75 70 72 73 74
70 76 71 69 67 70 63 73 69 67 65 51 71 54 67 74 74 76 78 78 78 76 79 79 78 77 77 78 80 80 81 82 82 79 79 76 76 75 77 76 73 71 73 72
67 70 68 66 68 72 66 71 68 68 65 65 65 61 65 74 71 75 77 79 80 81 81 80 80 80 81 80 79 79 81 81 82 78 79 77 75 78 79 76 71 70 71 70
72 79 75 72 74 73 74 68 68 68 65 54 63 61 61 67 72 76 80 80 81 83 83 83 84 83 82 80 79 79 80 81 81 80 77 77 75 76 77 73 70 69 69 68
67 69 75 75 68 72 69 64 53 49 50 50 65 60 65 73 76 76 77 80 82 84 83 83 84 84 83 81 79 79 79 79 80 79 78 76 76 76 75 72 71 67 66 64
58 55 69 73 70 65 66 65 53 43 45 52 64 56 66 77 79 81 80 82 82 83 84 84 85 85 84 83 81 79 79 78 80 78 77 77 77 77 74 72 71 67 66 66
59 60 75 74 75 73 66 61 70 58 58 51 60 67 73 77 76 77 79 80 81 81 83 85 86 86 85 84 83 80 79 80 81 79 77 76 76 75 72 70 69 68 66 64
67 58 70 72 74 74 69 72 57 59 45 43 56 60 63 69 71 75 77 78 79 80 81 84 86 86 87 87 85 82 81 81 81 80 76 76 75 72 70 66 66 66 65 62
71 64 63 68 64 64 64 62 64 65 59 48 47 57 73 71 74 74 77 78 80 81 81 82 84 86 87 86 85 82 81 81 82 81 78 74 74 70 69 65 65 63 61 57
70 65 57 61 72 75 72 65 65 54 53 57 54 56 76 76 77 77 78 79 82 83 83 83 82 83 83 83 83 82 81 80 81 81 78 72 69 66 63 61 58 55 50 51
69 61 52 57 64 68 64 68 69 66 64 55 47 54 77 77 75 78 77 80 81 81 83 83 82 81 81 81 81 81 79 79 81 80 73 62 57 55 53 51 50 50 49 49
66 64 58 51 58 65 59 64 67 65 54 55 57 61 70 73 74 77 79 81 81 81 82 84 82 81 81 80 79 79 74 72 69 64 61 54 52 51 50 49 49 49 50 48
67 58 62 64 67 68 66 64 65 62 63 56 61 63 70 74 75 77 79 80 78 80 81 82 82 80 79 77 74 66 61 59 58 55 53 51 51 50 50 48 48 48 48 48
68 57 61 58 65 66 62 66 66 66 66 66 66 65 76 78 79 77 77 77 76 75 76 78 80 79 76 72 70 62 59 57 56 54 52 52 50 50 49 49 48 49 48 48
62 59 57 50 62 61 52 60 65 66 69 67 60 68 76 75 75 76 77 75 74 71 70 72 74 73 71 69 65 59 57 56 53 52 52 52 52 50 49 49 48 47 45 45
60 59 57 49 46 39 60 70 70 66 69 72 71 72 75 76 78 76 76 75 71 69 68 69 70 69 69 68 65 61 59 57 56 55 54 53 51 50 50 49 47 45 49 51
64 58 52 45 47 55 62 63 63 63 64 73 72 74 76 78 73 70 72 73 71 69 68 68 68 68 67 67 67 65 63 61 59 56 54 54 54 50 49 46 47 50 50 54
62 59 53 49 43 39 58 68 70 72 56 73 75 73 73 72 61 70 69 69 66 67 67 66 67 67 66 65 65 62 60 59 55 54 54 54 52 53 53 52 54 56 56 55
47 47 44 47 45 54 68 71 71 52 54 74 76 76 74 70 71 69 66 65 66 66 66 66 66 64 64 64 63 59 58 56 56 56 55 54 54 57 56 55 55 54 54 52
47 45 42 48 43 41 68 63 58 66 73 74 76 76 73 71 65 64 64 63 63 63 63 65 63 63 63 64 62 60 58 58 58 57 55 55 55 54 54 53 52 52 51 48
42 54 50 54 54 67 68 70 71 73 70 74 74 77 75 65 63 63 62 62 62 62 63 64 62 60 61 62 62 58 57 56 55 54 53 52 52 52 52 50 49 50 49 46
60 64 55 56 63 67 68 70 72 72 71 75 73 75 73 65 64 62 62 62 61 62 61 62 60 58 57 59 58 57 56 55 54 51 50 50 49 48 49 51 49 48 45 43
61 64 59 58 63 67 68 66 70 72 71 70 72 72 71 66 63 63 62 61 61 59 59 59 57 55 54 54 53 54 54 54 50 49 48 47 46 47 45 46 43 42 38 35
65 61 54 53 65 63 66 65 65 69 70 69 67 67 69 67 64 63 62 61 60 58 58 55 53 52 51 51 50 51 52 51 48 46 45 42 42 42 45 45 40 32 32 31

GFSCGP_sfc_temp_072.txt.gz
Temp
72 64 60 66 70 71 70 66 65 65 73 71 69 68 69 75 76 73 73 73 72 72 72 72 71 68 66 63 63 63 64 64 64 64 64 67 66 69 68 70 71 69 69 69
67 60 70 74 75 71 69 64 64 71 74 71 69 66 73 74 73 73 72 72 71 72 72 72 71 69 67 66 65 65 66 68 68 68 70 71 70 71 72 72 69 69 68 69
62 68 74 72 70 66 67 64 65 64 71 72 67 64 69 74 75 76 76 74 72 72 70 70 70 68 68 67 68 71 71 71 71 72 74 72 71 69 70 68 67 67 69 69
67 74 72 70 66 69 61 72 70 67 63 55 65 50 65 71 71 73 74 71 71 72 71 71 71 70 69 69 71 73 75 75 74 74 74 70 70 68 69 68 69 67 68 69
64 68 67 65 67 72 65 73 68 67 62 62 59 54 63 71 67 71 74 74 73 73 72 71 73 72 72 73 72 73 75 76 75 75 72 71 68 69 70 71 67 66 66 67
69 78 74 71 73 73 74 69 67 66 62 50 61 59 58 61 69 73 76 77 76 73 73 77 76 75 75 73 74 74 75 76 74 74 72 70 68 68 69 66 65 66 65 64
66 68 75 76 67 73 69 62 49 46 47 47 60 59 63 65 74 76 77 77 78 78 76 76 76 75 76 74 73 74 74 74 75 73 71 71 70 69 68 67 66 64 62 61
56 53 67 73 68 64 65 62 50 35 41 49 58 54 64 76 79 80 80 80 81 80 79 78 80 78 77 76 74 74 74 74 75 74 72 72 72 71 70 69 67 66 63 61
56 57 72 73 73 71 64 58 67 55 55 48 56 64 73 76 75 77 77 79 78 78 79 81 81 79 79 77 75 73 74 75 75 74 73 72 72 71 69 67 65 63 64 63
65 55 69 72 74 72 67 72 56 58 43 41 53 56 53 65 70 74 75 76 76 78 79 80 82 80 81 80 79 75 75 76 76 76 73 73 72 71 70 66 62 62 62 61
68 63 62 70 64 62 63 61 62 62 57 44 42 52 67 68 73 72 75 76 77 78 78 79 80 81 82 81 76 77 76 77 77 77 74 71 70 65 63 62 62 60 59 57
69 63 55 61 71 73 69 63 63 52 51 55 47 52 74 73 75 76 76 78 79 80 80 80 79 80 80 80 80 76 76 76 77 76 73 70 67 63 60 59 56 55 54 52
67 59 50 55 63 68 62 66 66 64 61 53 44 51 74 76 75 76 75 77 78 78 80 80 79 78 78 78 76 78 76 76 76 71 64 61 58 55 52 51 51 51 50 48
59 62 57 49 56 62 58 63 66 63 50 53 55 59 67 72 72 74 75 73 76 78 80 80 78 78 77 77 76 76 69 67 64 61 58 54 52 51 50 49 49 49 49 47
59 55 61 62 64 65 62 62 63 61 62 54 58 61 67 72 73 74 77 77 73 74 79 79 79 77 76 74 65 64 62 61 59 56 52 50 50 49 49 49 49 48 47 48
61 51 58 55 63 64 60 65 64 64 64 64 64 63 73 76 77 76 76 77 76 76 76 78 79 76 73 65 61 58 56 55 55 51 49 49 48 48 47 47 47 47 47 46
56 53 52 46 59 59 48 59 64 65 67 66 58 66 73 73 74 75 75 76 75 74 73 73 75 72 68 61 60 56 53 53 51 50 50 50 49 48 47 48 47 46 45 45
53 53 52 44 44 38 58 69 69 65 67 69 69 71 73 74 76 77 76 75 73 72 71 72 71 68 64 61 58 56 54 52 52 51 51 50 49 48 47 47 45 45 45 46
58 53 41 41 43 53 60 64 64 61 60 70 69 71 74 76 74 71 75 73 73 70 69 69 69 68 63 60 59 57 55 54 54 51 51 51 49 48 47 45 46 47 47 49
57 56 45 43 40 37 55 67 70 68 51 70 71 70 71 73 57 65 70 72 69 69 69 67 67 66 64 63 61 59 57 55 53 53 52 52 51 49 47 48 49 49 49 51
43 44 42 40 39 49 65 67 67 48 51 67 72 72 71 68 67 67 69 67 68 67 67 67 65 63 62 63 62 59 56 54 55 54 52 51 52 52 52 51 50 49 47 45
44 42 40 43 39 39 67 64 55 60 65 70 72 72 68 63 64 65 65 64 65 65 65 65 62 62 61 62 60 57 55 56 55 54 53 52 53 53 52 48 47 47 44 40
36 44 46 50 49 62 65 64 65 66 67 67 70 72 71 63 64 64 63 63 64 64 63 64 62 59 60 60 60 56 55 56 54 53 51 50 51 51 50 46 44 43 42 37
56 58 48 50 57 59 64 66 68 69 67 71 72 70 71 64 64 63 63 63 62 63 62 62 60 58 57 60 60 56 55 54 53 50 48 48 46 46 46 47 45 41 36 32
58 58 53 53 59 60 62 66 65 67 69 69 70 70 68 67 64 63 62 62 62 61 61 60 58 56 56 55 54 54 54 53 49 47 46 44 42 43 41 38 36 32 30 30
62 58 52 49 60 60 61 62 63 64 65 68 67 67 68 70 65 64 62 62 62 59 59 57 56 54 51 51 51 51 52 50 46 44 41 37 37 36 40 38 34 33 31 31

GFSCGP_sfc_temp_075.txt.gz
Temp
62 52 50 53 58 62 61 60 56 60 65 61 59 59 59 57 56 54 55 58 56 56 59 59 58 58 56 57 57 57 58 57 58 56 57 59 59 63 65 65 66 65 66 65
58 52 60 65 65 64 63 57 55 61 67 62 58 57 61 61 57 60 59 60 59 59 58 59 58 57 56 56 58 58 59 59 60 61 62 61 62 65 66 63 64 66 64 64
54 59 67 64 62 61 60 57 56 57 64 61 56 52 58 64 65 67 67 67 64 61 59 59 58 57 57 57 58 59 61 62 62 64 64 64 61 62 61 60 61 63 65 64
58 66 64 63 61 64 55 65 64 61 54 45 57 40 55 63 62 66 66 64 65 64 65 62 60 59 58 59 61 61 63 64 65 65 65 64 64 63 65 63 66 63 64 65
56 59 60 59 63 66 59 66 62 59 53 49 50 47 50 62 60 62 64 63 65 65 65 64 63 62 63 63 63 63 64 65 67 66 67 65 64 65 62 62 64 64 64 64
60 68 65 64 68 67 68 62 59 56 51 39 52 50 47 54 62 65 65 66 65 66 66 67 67 66 64 65 65 66 67 68 68 67 67 67 61 64 63 59 61 63 63 64
58 60 67 70 61 65 62 53 39 35 34 35 55 50 52 60 64 66 68 66 67 68 67 66 66 66 65 65 66 67 68 68 69 70 69 66 63 63 65 62 62 61 59 59
47 45 61 68 63 58 56 54 39 33 32 41 53 47 53 65 66 70 71 70 69 68 69 67 68 67 68 68 68 68 69 69 70 68 69 64 67 67 64 62 63 62 61 61
48 49 66 69 68 65 56 50 59 46 46 39 45 54 64 68 67 69 66 68 66 68 68 70 70 70 69 69 68 69 70 71 71 65 68 65 64 66 66 62 62 61 59 59
56 48 64 66 66 65 61 63 47 48 34 33 44 45 47 58 63 65 64 63 67 69 68 70 72 71 72 72 72 70 71 71 71 71 67 68 68 65 64 64 60 59 60 59
61 54 54 63 58 57 56 54 55 54 46 35 32 40 57 59 63 64 64 66 66 67 68 69 67 74 74 74 72 71 69 71 71 72 68 67 66 66 64 60 59 58 57 56
59 54 46 52 64 68 64 56 55 41 43 44 38 40 65 65 65 66 66 68 67 67 68 69 70 67 70 68 71 71 70 69 67 69 65 67 64 60 59 59 59 57 55 54
57 49 40 46 56 63 58 59 59 56 50 43 33 41 68 66 63 67 65 67 67 67 67 67 69 69 66 67 68 70 70 66 64 67 65 59 57 55 55 54 53 53 51 51
57 50 46 40 48 56 52 58 59 54 40 43 44 50 58 62 62 65 64 64 65 66 71 67 66 67 68 64 61 60 58 58 57 55 54 54 53 52 50 50 51 50 49 48
55 45 50 54 59 61 57 56 56 54 54 47 50 53 58 61 62 65 67 66 68 69 68 67 66 64 60 58 56 55 53 52 53 52 50 49 50 49 49 48 48 47 47 47
55 45 50 47 55 58 56 57 57 57 58 57 56 55 64 65 65 66 68 66 66 68 68 65 66 64 61 57 54 52 51 51 51 50 49 49 49 47 47 47 47 47 46 46
52 47 45 40 51 52 40 50 57 58 61 58 51 57 63 62 65 63 66 67 66 65 65 65 64 61 58 54 53 50 51 51 50 49 49 48 48 47 47 47 46 45 44 44
47 47 43 36 40 34 51 61 61 58 62 62 60 60 62 63 63 64 65 64 63 64 64 61 58 56 54 52 50 50 50 51 50 49 48 48 47 46 46 46 45 44 45 45
52 47 37 36 38 45 53 58 55 54 53 63 60 61 63 66 63 58 65 64 61 61 60 58 56 55 52 51 52 51 50 51 50 49 48 48 47 46 45 44 44 43 43 43
52 48 39 35 32 31 47 59 63 61 43 61 61 61 61 61 48 54 61 61 59 59 59 58 56 54 52 52 52 51 52 51 49 49 49 49 48 47 45 45 43 44 46 47
35 36 35 31 31 38 57 63 61 43 42 63 62 60 60 56 56 59 59 58 59 58 58 57 57 54 53 54 53 51 51 50 51 51 50 48 47 46 46 45 45 44 41 39
38 35 35 36 33 32 59 59 51 53 57 63 60 58 56 57 56 56 57 57 58 57 57 56 53 52 53 54 53 50 48 53 52 50 47 47 48 50 47 42 41 41 38 34
39 42 40 43 40 52 57 58 60 61 60 60 59 61 59 55 56 56 55 56 56 56 55 55 53 52 52 52 52 49 48 50 51 49 47 45 47 46 45 40 38 37 36 32
46 47 40 41 48 51 54 57 58 62 62 63 63 62 59 56 55 55 55 55 54 54 53 53 52 50 49 51 52 50 50 50 49 46 43 42 40 39 39 39 37 34 30 29
47 47 45 44 51 54 56 58 58 58 59 63 63 62 61 57 55 55 54 53 53 52 52 52 50 47 47 50 50 50 49 47 44 42 41 39 39 36 33 33 34 30 30 31
52 48 43 40 54 53 54 56 59 59 58 59 60 59 61 60 56 56 53 53 52 50 51 48 46 45 45 41 40 43 47 44 40 38 37 34 34 33 35 32 29 30 31 32

GFSCGP_sfc_temp_078.txt.gz
Temp
58 50 48 50 53 56 54 53 51 57 63 57 55 53 57 54 54 52 51 51 51 55 54 56 58 59 58 58 58 57 57 58 58 57 58 61 62 57 58 59 61 61 62 62
54 49 57 59 58 56 55 52 53 59 64 59 55 54 56 54 55 55 54 53 52 53 55 56 55 57 56 57 55 55 56 56 57 58 60 60 58 57 58 60 61 61 62 61
51 56 62 59 57 55 55 52 53 55 59 57 52 51 54 57 57 58 58 58 57 55 54 56 55 54 56 56 55 55 56 57 58 59 59 57 57 57 57 58 60 61 62 63
53 61 59 57 56 57 49 60 60 58 51 43 52 39 50 56 57 57 58 58 57 57 57 56 55 53 53 54 55 57 58 58 59 60 60 59 60 60 62 63 63 62 63 63
51 55 55 55 57 61 54 62 60 58 51 45 47 42 48 55 54 56 57 59 58 59 57 56 56 56 56 57 56 57 59 60 61 61 62 61 59 61 61 59 60 60 61 62
57 63 60 60 63 63 65 59 55 52 48 38 47 46 45 48 57 59 61 61 60 59 59 59 59 59 58 59 58 58 58 60 62 62 62 61 60 61 60 59 59 60 61 62
54 56 61 63 57 60 59 50 37 35 33 34 51 46 51 57 60 63 62 61 61 62 61 59 58 58 59 59 59 60 60 60 62 63 63 62 62 61 62 60 62 62 61 61
44 40 56 63 58 56 53 51 37 33 31 36 50 43 50 62 64 66 66 66 64 62 63 61 60 60 61 61 61 60 61 61 63 63 63 63 64 64 63 64 62 62 62 62
43 45 60 63 64 63 54 46 55 43 41 35 42 49 59 60 61 62 62 64 62 63 63 63 63 62 62 62 62 62 63 64 65 65 65 64 64 64 64 63 62 62 62 62
51 42 58 61 64 61 58 60 44 43 33 32 40 42 46 54 58 60 59 59 62 65 64 65 66 65 64 63 63 62 64 65 67 68 67 67 65 64 65 60 60 60 60 59
56 47 48 58 55 53 52 51 50 50 43 33 32 39 52 57 59 60 60 61 62 64 65 66 67 68 67 67 65 63 63 65 66 67 65 66 66 63 62 59 58 57 57 57
57 50 43 48 58 60 61 56 53 39 40 41 37 44 59 58 60 60 61 64 62 64 65 66 68 68 68 67 67 67 65 65 68 68 67 64 64 62 61 58 58 58 56 57
53 48 37 45 52 56 53 55 57 52 46 42 33 40 60 59 60 63 61 62 64 63 63 63 62 63 68 68 67 67 66 66 67 65 62 60 58 59 61 60 58 58 57 54
53 47 47 40 45 51 48 55 58 55 41 43 41 47 55 61 59 63 61 61 63 64 64 63 62 62 62 65 67 65 64 65 62 58 56 54 54 54 54 55 54 54 53 51
52 41 45 51 52 53 52 52 56 53 50 45 49 49 55 58 60 62 64 62 63 64 64 64 62 58 57 55 55 55 54 53 54 53 52 50 50 50 51 50 50 49 49 48
49 41 44 41 49 51 48 53 56 55 53 51 53 50 62 64 60 61 63 63 63 64 63 64 63 59 57 54 52 52 53 52 52 50 49 49 49 49 48 48 48 46 46 46
41 43 39 34 47 48 37 46 54 54 55 54 47 53 60 61 60 60 62 62 63 63 62 62 62 60 56 53 52 51 51 51 50 50 50 49 49 47 46 47 46 45 45 45
38 38 38 32 39 29 44 56 60 56 58 58 57 58 59 61 62 62 63 61 62 60 60 58 55 52 50 51 52 51 51 50 49 49 49 48 48 46 46 46 45 44 45 45
44 40 33 33 34 40 47 54 54 54 53 58 60 60 63 62 57 55 60 60 61 60 57 54 52 50 49 49 50 50 50 50 49 48 47 47 47 45 45 44 44 44 45 45
47 44 37 32 32 27 43 55 61 59 43 59 61 60 60 58 46 52 60 60 58 56 55 53 51 50 49 49 49 48 49 49 48 47 47 48 47 46 45 45 44 46 46 45
33 35 33 30 31 35 50 56 60 43 42 58 61 60 59 55 54 59 58 57 57 56 54 52 51 50 49 49 49 47 49 48 49 49 48 47 47 46 46 46 46 44 39 36
34 32 32 33 30 30 53 54 48 52 54 58 59 59 59 56 53 55 56 55 55 53 52 52 50 49 49 50 49 46 48 51 50 48 47 47 47 47 46 43 41 39 36 34
35 40 37 38 37 50 52 52 55 55 56 58 58 58 57 54 55 55 54 54 53 52 50 51 50 48 48 49 49 46 46 48 48 47 46 46 46 44 44 40 38 37 36 31
45 46 41 42 48 50 52 53 55 57 57 58 60 56 56 53 53 52 52 51 50 51 50 51 50 47 46 50 50 47 47 48 46 43 42 40 39 38 38 38 37 35 33 32
44 46 43 41 48 50 52 54 55 57 58 59 59 60 58 56 53 52 51 51 51 49 50 48 45 43 42 46 47 48 47 45 41 40 39 37 36 35 33 31 32 30 30 31
49 44 38 38 50 50 51 58 58 56 57 57 59 59 59 56 53 52 51 51 49 45 45 40 39 38 38 39 40 42 43 42 39 36 35 33 32 32 32 31 29 30 30 32

GFSCGP_sfc_temp_081.txt.gz
Temp
55 48 46 50 51 52 50 47 45 53 59 53 53 54 53 51 51 50 49 49 49 51 56 59 58 58 58 58 57 57 56 57 57 56 55 58 61 60 60 61 62 62 61 61
50 47 54 56 54 53 51 47 47 53 58 55 52 53 54 51 52 54 51 49 50 49 52 56 57 57 56 57 57 57 58 58 58 58 61 62 62 60 61 60 61 59 60 60
48 53 59 56 53 51 50 47 48 48 55 56 51 49 51 54 53 54 55 54 53 52 53 56 55 56 56 56 55 56 58 58 60 61 60 59 59 59 59 57 55 57 59 60
49 59 55 52 53 53 46 55 54 53 48 42 49 38 48 52 51 53 56 53 52 53 54 54 55 54 55 56 57 54 56 58 59 59 56 55 60 60 58 56 57 57 59 59
48 51 53 50 54 56 51 57 54 53 49 42 44 41 45 50 49 52 54 55 54 55 55 53 53 54 55 56 56 54 55 56 58 57 57 56 56 56 56 56 56 56 57 59
53 58 56 57 60 58 60 53 51 48 45 36 45 43 43 45 53 57 57 57 57 56 56 56 55 54 53 53 54 53 54 56 57 57 57 56 56 58 57 55 56 59 58 58
50 53 57 59 53 56 54 46 35 33 32 34 48 42 48 54 57 59 58 58 58 58 56 56 54 54 54 53 53 54 55 56 58 58 58 58 57 57 58 59 58 58 58 59
42 39 53 58 55 51 50 48 35 32 30 35 46 39 48 59 61 62 64 63 61 58 58 57 57 56 56 56 55 56 56 56 58 58 58 58 60 60 60 60 60 60 60 60
41 42 56 60 60 60 50 43 54 41 37 33 40 46 56 59 58 58 59 58 59 58 58 59 60 59 58 58 58 57 58 58 59 59 60 60 60 61 61 60 61 59 60 60
48 40 54 58 60 60 56 56 42 40 32 30 36 38 43 53 56 57 54 57 59 60 60 60 60 60 60 60 60 58 59 59 60 61 61 62 62 62 62 62 60 58 58 58
49 46 45 54 50 50 49 47 47 47 39 33 30 36 50 54 58 58 57 58 59 60 61 62 62 62 62 61 60 59 59 60 60 61 62 63 63 63 62 61 60 57 58 58
48 44 40 47 55 57 57 53 51 39 37 38 36 42 56 56 56 58 59 60 60 62 63 63 64 63 62 61 61 60 60 60 62 63 63 63 63 62 61 61 58 59 59 58
45 39 34 41 48 55 49 51 53 48 43 37 34 38 57 56 57 59 58 59 59 59 60 63 63 63 64 63 62 62 62 61 62 63 63 61 60 61 59 60 59 59 58 58
47 40 37 35 42 48 45 51 51 51 37 39 43 46 53 56 56 60 60 59 59 60 60 60 61 63 64 65 64 63 63 62 62 62 62 62 60 59 60 59 59 58 59 58
44 35 42 45 51 51 49 48 49 46 47 43 45 49 56 58 58 60 60 59 60 61 60 60 60 60 58 58 59 63 63 63 62 61 56 56 54 53 53 53 53 52 53 52
43 35 40 39 48 51 49 49 50 48 48 51 51 51 58 60 58 57 61 60 61 62 62 61 62 60 57 56 54 53 52 52 52 54 51 50 50 50 50 50 49 49 48 48
34 35 33 33 43 45 36 44 50 51 49 50 45 53 59 57 57 58 59 60 60 60 61 60 61 62 57 51 53 53 52 52 51 50 50 49 49 49 48 48 47 46 45 45
36 33 34 30 34 29 43 52 54 52 53 55 56 57 59 59 61 61 60 60 60 59 60 58 55 51 51 52 51 51 51 50 50 49 49 49 49 47 47 46 45 44 45 44
43 36 32 30 31 37 43 48 48 48 48 58 55 59 59 59 56 56 59 59 61 59 59 54 51 51 53 52 52 51 50 50 49 48 48 48 47 46 45 44 44 44 44 44
42 42 34 32 29 25 39 51 58 57 40 57 58 56 58 57 47 54 59 57 56 56 53 51 49 50 50 51 52 50 49 49 47 47 47 47 47 45 44 44 44 45 45 43
33 33 32 32 31 34 46 51 55 38 39 57 59 58 57 54 56 59 56 55 53 53 51 50 50 48 49 49 50 49 49 47 49 48 47 46 47 46 45 45 45 43 40 37
33 31 30 33 30 28 49 50 44 48 55 55 59 60 55 56 57 57 55 53 52 50 50 50 48 47 48 48 48 48 47 49 48 47 46 45 45 46 44 42 40 39 36 33
35 38 34 37 35 47 49 50 52 54 52 55 56 58 59 55 53 52 52 51 50 50 49 50 48 47 47 48 48 45 45 47 46 45 43 42 42 42 42 39 38 36 35 33
42 46 39 39 46 48 51 52 52 55 56 58 58 57 55 51 51 49 51 49 48 49 48 48 47 46 45 47 46 45 45 44 43 40 39 38 37 36 36 36 36 34 33 32
43 44 42 41 47 49 51 51 54 56 56 57 59 59 57 53 52 52 49 48 47 46 45 45 43 42 44 45 45 45 44 43 39 38 37 35 34 33 31 30 31 30 30 32
44 43 38 38 49 47 50 54 54 53 55 56 56 57 58 55 51 49 46 46 44 41 40 38 38 37 38 39 40 41 42 41 37 34 33 32 31 31 31 30 28 31 31 31

GFSCGP_sfc_temp_084.txt.gz
Temp
53 46 43 47 48 50 48 46 43 48 54 51 50 48 55 50 49 49 49 49 49 49 58 58 58 58 57 57 57 57 56 56 57 57 56 58 60 58 59 61 62 60 61 60
47 44 53 53 52 50 48 45 45 50 54 52 51 50 55 50 49 50 49 49 49 49 54 57 56 56 56 56 57 57 58 57 58 58 57 59 62 59 59 59 60 61 61 60
48 50 57 53 49 48 46 46 45 47 50 51 47 46 50 52 50 52 52 52 51 50 50 54 55 55 56 55 56 57 58 59 60 59 58 58 59 59 58 57 57 59 60 60
48 57 53 50 49 51 43 51 51 49 45 38 48 36 45 52 52 50 51 50 51 50 51 52 56 56 55 56 57 58 58 59 60 61 60 59 61 60 63 59 59 59 60 59
46 49 50 47 50 53 50 54 50 49 44 40 41 37 44 48 50 53 51 52 52 52 52 51 53 54 58 58 56 56 57 57 58 60 60 55 61 62 55 55 56 55 56 58
49 56 53 52 57 55 57 50 49 45 42 33 42 41 41 44 50 54 55 54 53 53 53 53 54 56 56 58 58 56 54 54 57 57 56 54 53 54 54 53 53 54 54 55
47 50 54 56 50 52 52 44 33 32 31 32 44 40 48 52 55 56 58 56 55 54 54 53 52 53 54 54 55 56 54 54 55 55 55 55 54 54 57 58 57 56 54 54
39 37 50 55 52 48 47 45 33 31 30 34 43 37 45 56 58 59 59 57 56 54 55 55 54 53 52 53 54 54 53 54 55 55 55 55 56 56 57 58 59 56 57 56
38 39 54 57 58 58 47 42 50 38 34 32 38 44 53 57 58 57 55 56 54 54 55 56 57 56 54 54 53 53 54 54 55 55 56 55 56 57 57 57 55 55 55 56
45 37 51 54 55 55 52 53 41 37 31 30 34 36 43 51 55 56 53 55 55 54 55 56 57 57 57 57 56 55 56 55 56 56 56 57 56 57 57 56 56 57 56 56
45 40 42 51 47 46 46 46 44 44 38 33 30 35 47 54 56 56 56 56 56 55 55 57 58 59 59 58 57 56 56 56 56 57 57 57 58 58 58 58 58 58 57 58
44 38 32 43 55 56 51 49 49 40 35 35 35 41 54 54 56 56 58 59 56 56 56 57 57 57 58 57 57 57 57 57 58 58 58 58 59 59 58 59 60 60 58 58
45 38 31 36 46 50 46 49 50 46 41 37 34 38 55 56 55 56 56 57 58 57 55 56 56 57 58 58 58 58 58 57 59 59 59 59 58 58 59 60 60 59 58 59
46 39 36 31 35 43 41 48 52 47 36 40 42 43 50 53 55 56 57 57 58 58 57 56 56 57 59 59 59 58 58 58 58 59 59 58 57 58 58 58 57 56 57 58
42 33 38 40 40 40 41 45 48 47 46 41 43 45 51 54 57 58 60 58 58 58 58 57 58 57 58 57 58 59 59 58 58 57 57 57 56 55 55 54 54 55 57 57
40 32 35 35 41 41 40 46 48 48 45 45 45 45 55 58 57 55 59 60 59 59 59 61 61 59 56 57 57 55 54 53 55 56 55 52 52 52 52 51 51 50 50 50
36 34 32 30 38 38 34 43 47 47 47 47 41 47 54 55 55 56 60 59 59 61 59 61 61 61 59 53 51 50 51 52 52 51 51 50 50 49 49 49 49 48 47 46
35 34 32 30 33 27 41 50 52 49 50 49 49 50 53 56 59 60 60 60 59 59 59 58 58 51 50 49 50 51 52 51 50 50 49 49 49 48 47 47 46 45 45 45
41 36 31 29 30 34 41 46 45 44 47 54 52 52 55 59 55 55 59 58 62 61 62 57 51 50 50 50 52 51 50 50 49 49 48 48 47 46 45 44 44 44 44 44
41 40 34 31 27 26 39 47 51 51 38 52 51 52 54 55 44 51 59 58 57 56 53 50 51 51 52 51 52 50 49 49 47 47 47 47 47 46 44 44 44 44 42 40
32 34 30 31 30 34 45 46 48 36 37 51 52 53 55 54 53 59 59 54 51 50 48 50 50 50 50 51 51 49 49 46 47 47 46 46 46 45 44 43 43 40 37 35
31 30 30 32 30 27 47 45 40 45 47 50 50 52 54 54 55 54 53 50 49 49 49 49 48 47 49 51 50 47 45 47 47 46 45 44 44 44 42 40 39 38 36 32
31 36 33 35 35 46 47 47 51 52 48 51 53 54 55 54 54 50 49 49 49 49 48 48 47 47 47 48 49 44 45 46 44 42 40 40 40 40 40 38 36 35 34 32
39 43 37 37 44 45 49 52 53 53 53 54 56 55 55 52 50 48 48 47 47 48 47 48 47 45 43 45 44 44 43 44 42 39 37 37 35 34 35 35 35 34 32 32
39 41 40 39 46 49 51 51 52 51 52 54 56 55 55 52 49 48 45 43 42 42 43 44 43 42 41 42 41 41 41 40 36 34 34 33 32 31 30 29 30 30 30 31
41 41 36 37 48 44 47 50 50 50 50 51 51 53 54 51 46 43 40 40 40 38 39 37 36 35 35 35 36 37 39 37 34 31 31 31 30 30 30 29 28 31 30 30

GFSCGP_sfc_temp_087.txt.gz
Temp
57 53 48 53 55 56 55 51 52 56 60 58 60 58 63 65 60 59 59 59 58 58 62 62 60 59 59 59 58 57 57 58 58 59 58 59 57 59 60 62 62 64 67 65
52 48 55 57 56 56 54 51 52 57 59 57 59 59 64 61 62 63 61 60 59 57 59 60 58 58 58 58 58 58 57 58 59 60 59 61 59 61 61 61 61 61 62 64
51 53 58 55 52 51 52 51 52 52 56 58 56 56 60 63 60 61 60 63 62 59 58 59 57 58 58 57 57 58 58 59 59 58 58 57 60 59 58 59 59 61 63 66
52 59 55 53 52 54 48 55 55 53 52 47 57 45 56 64 63 59 63 59 61 59 60 61 58 57 58 59 59 59 59 59 60 60 60 58 61 60 62 61 61 61 63 66
50 51 52 51 52 55 53 57 54 54 51 49 51 47 55 57 61 65 64 62 61 61 60 60 60 60 59 60 59 61 60 60 61 60 62 61 63 66 62 62 62 62 66 67
53 59 57 56 58 57 59 55 53 51 50 41 49 48 52 59 62 63 64 63 62 61 60 62 63 62 61 60 59 59 59 61 61 62 63 61 64 64 61 64 63 63 64 65
50 52 57 59 53 56 57 50 41 38 38 39 50 46 54 61 63 64 68 66 63 63 62 61 60 60 61 59 59 58 58 60 61 61 64 62 63 63 64 63 64 63 62 62
41 39 52 58 57 51 51 51 42 35 36 43 48 45 55 64 66 66 66 66 65 62 63 62 62 62 61 60 58 58 58 58 61 61 62 63 64 64 64 65 66 64 64 65
41 41 55 57 60 60 50 45 55 43 42 41 47 51 59 64 65 66 66 64 62 61 62 63 63 62 62 61 59 57 57 57 60 61 61 62 63 63 64 64 65 65 65 65
45 38 51 55 59 59 56 57 44 45 36 35 42 44 51 57 62 64 65 64 64 62 61 64 64 62 63 62 61 57 58 58 62 62 62 62 62 63 64 64 63 65 65 66
46 43 43 52 50 50 51 49 50 50 45 40 38 44 56 60 65 63 66 66 65 63 62 63 65 65 64 63 62 59 59 61 61 62 62 62 62 62 63 63 63 64 65 65
46 41 36 42 53 56 55 51 52 43 42 42 42 47 61 62 62 64 65 67 68 67 64 64 64 65 64 63 62 62 61 61 62 62 62 61 62 62 61 61 63 64 64 65
46 39 33 40 47 51 47 49 52 50 48 43 38 45 60 61 60 62 63 67 67 65 65 63 63 63 64 64 63 63 62 62 63 63 62 61 61 61 61 60 61 62 62 64
47 40 38 34 37 41 39 43 46 43 41 44 45 50 57 59 60 65 64 64 66 66 66 65 64 64 65 64 64 64 64 63 64 63 62 61 61 62 62 61 62 63 65 64
45 35 39 41 43 43 41 42 43 41 44 42 49 51 57 62 63 66 67 66 65 66 66 65 65 65 65 64 63 64 64 63 64 63 62 62 63 64 64 63 64 64 64 63
43 34 35 34 40 42 40 44 46 45 46 47 51 51 61 65 64 63 64 65 65 65 68 68 66 65 64 64 63 62 62 62 63 62 61 63 63 62 62 62 62 61 60 59
37 34 32 31 39 40 35 43 45 47 51 51 46 54 60 59 60 61 64 65 64 67 67 68 66 66 65 64 62 61 60 61 61 61 61 57 56 56 55 54 54 54 53 50
36 33 32 30 34 26 46 52 52 47 51 56 55 56 59 61 63 64 66 66 66 66 68 67 66 63 60 59 59 57 57 55 55 54 53 53 52 52 51 50 49 47 47 46
41 36 31 28 31 39 44 48 46 41 43 53 55 58 59 63 61 62 66 66 67 68 68 68 65 57 54 56 56 56 54 53 52 51 50 50 50 48 47 45 45 45 44 42
40 39 34 31 27 26 41 47 49 52 39 50 52 55 56 59 50 60 66 62 62 62 63 59 57 55 54 55 56 55 51 50 48 48 47 48 47 46 45 44 43 42 40 38
31 32 28 29 27 36 46 48 50 37 39 47 50 52 54 55 59 63 61 55 52 53 54 56 56 53 53 54 54 50 49 46 47 47 47 46 46 45 44 43 41 39 36 34
34 31 30 31 28 27 49 48 41 44 48 49 51 52 53 56 56 57 54 51 50 48 50 52 50 50 52 53 50 47 45 47 47 46 45 44 44 43 42 39 38 37 35 32
34 40 37 38 38 46 51 50 51 50 49 50 50 53 57 55 53 52 48 49 48 48 48 49 49 48 49 49 48 44 44 46 45 43 41 39 39 39 39 38 36 35 34 33
42 46 40 41 47 48 49 52 53 56 52 55 55 55 56 53 51 49 48 47 47 47 46 47 45 43 43 46 47 47 47 46 43 39 37 35 34 34 35 34 34 34 32 31
45 45 43 42 47 49 52 52 54 53 54 54 56 58 52 50 47 45 44 42 41 42 43 43 41 39 39 41 42 43 43 42 38 36 35 33 33 32 31 31 31 31 31 32
45 44 41 40 49 48 50 53 52 51 50 50 52 55 53 50 43 41 39 39 39 38 38 37 38 37 37 38 38 39 40 39 37 34 33 32 32 32 32 30 29 31 31 31

GFSCGP_sfc_temp_090.txt.gz
Temp
65 60 56 62 62 65 65 63 62 68 70 65 66 70 75 80 78 75 76 75 75 73 74 71 70 65 65 60 60 61 62 61 61 59 58 59 58 60 60 61 66 69 68 67
60 55 65 66 65 61 63 60 60 67 70 64 67 68 75 78 78 78 78 76 75 74 71 69 69 65 63 60 59 61 64 63 65 62 60 61 60 60 60 61 64 70 69 70
58 62 66 62 58 56 60 59 60 60 67 68 66 64 70 77 76 77 77 79 78 75 71 69 67 66 63 61 61 60 61 62 65 65 62 59 59 58 59 59 60 66 72 73
60 68 61 59 57 59 55 66 62 60 59 55 63 53 68 71 73 77 78 75 77 75 74 72 69 67 65 64 64 66 61 62 64 63 64 60 60 61 64 62 64 64 70 72
57 58 58 55 58 60 56 66 61 61 59 58 58 55 66 69 67 74 77 78 76 76 75 73 71 69 67 65 65 65 64 61 62 65 64 61 61 68 66 64 63 63 64 65
61 65 63 62 64 63 63 60 60 60 58 47 55 57 62 67 70 73 76 76 76 76 75 75 74 72 69 65 65 66 66 62 61 62 62 61 60 62 63 62 61 62 64 66
56 58 64 64 58 62 60 56 47 44 45 45 60 56 61 70 74 75 76 78 77 77 74 74 73 71 70 65 64 66 66 64 63 62 63 64 66 67 68 66 66 64 68 67
48 45 58 64 61 57 55 55 49 39 43 49 60 51 62 73 77 78 77 78 78 76 75 75 75 73 72 68 65 63 64 65 66 66 63 67 70 72 72 71 72 71 71 72
47 48 60 62 64 64 57 52 62 51 53 46 56 60 68 72 73 76 77 77 77 76 76 77 76 74 73 71 68 65 66 68 67 66 67 67 69 71 71 72 72 73 72 73
50 43 56 59 63 64 61 65 49 52 39 39 52 54 58 64 69 73 75 77 77 76 77 79 78 75 75 73 72 68 68 68 70 70 69 69 69 70 71 71 70 71 72 72
53 48 50 56 56 55 56 53 55 57 52 44 44 53 66 65 71 73 76 75 77 76 76 78 79 78 76 75 73 69 67 68 69 71 70 70 70 70 70 70 71 71 71 72
51 48 42 46 58 61 59 57 58 48 48 51 50 52 71 68 73 73 76 76 78 79 78 78 78 77 76 74 73 70 68 68 69 71 71 70 70 70 69 69 70 71 70 71
50 45 39 43 51 54 50 52 53 53 53 48 43 52 70 70 70 74 75 78 78 77 78 77 76 76 76 75 74 73 71 70 71 71 71 69 68 69 69 69 69 70 69 70
50 46 42 38 44 50 46 50 53 51 44 48 51 55 63 66 67 71 75 78 80 78 79 78 76 76 76 76 75 75 74 73 72 71 71 69 68 69 69 69 69 68 68 68
50 40 45 46 47 48 48 48 50 49 51 45 51 54 62 67 67 70 75 78 77 76 77 78 78 77 77 76 75 75 75 73 73 71 70 69 69 70 70 69 69 68 67 68
46 40 42 39 46 47 45 50 52 52 53 55 55 54 67 70 72 71 72 76 76 76 78 80 80 79 77 76 75 74 73 73 71 70 70 71 70 70 69 69 68 69 69 70
41 39 34 35 45 44 38 46 49 53 57 56 50 59 67 67 69 70 71 75 75 77 78 78 80 78 77 77 75 75 73 73 70 69 70 70 70 69 69 69 69 68 67 66
40 36 36 35 37 27 49 58 58 54 57 59 57 60 65 68 72 75 75 73 75 75 77 78 80 80 78 77 76 74 74 71 68 69 69 69 67 66 64 62 58 52 50 48
47 41 33 31 35 42 47 53 53 52 53 55 54 57 61 66 69 70 75 76 73 76 77 79 81 82 74 73 73 71 69 69 67 64 59 59 60 54 50 48 47 46 43 41
47 45 37 35 29 28 46 55 59 58 44 55 56 56 56 60 55 64 74 72 70 73 74 74 74 71 70 69 69 66 60 59 53 52 51 50 49 48 46 45 42 41 40 37
34 33 30 32 30 39 52 57 57 39 44 55 57 56 55 52 57 64 68 67 60 62 64 66 67 65 65 65 63 56 51 48 48 49 48 47 47 45 43 41 40 38 35 34
36 33 32 34 29 28 55 53 42 51 57 58 59 55 48 56 59 62 61 57 53 54 58 60 58 56 58 59 54 48 46 47 47 45 44 44 43 43 41 39 38 37 35 32
38 46 42 43 43 54 55 54 58 60 57 57 58 59 51 52 56 57 51 51 50 50 53 54 51 49 51 52 50 44 44 44 44 42 40 40 40 40 40 38 36 35 34 32
51 55 46 46 53 56 58 60 60 60 59 60 59 57 60 57 55 51 49 49 48 48 47 48 44 43 43 46 47 46 46 46 43 39 37 37 37 35 36 36 36 34 33 32
51 53 49 49 54 56 58 60 61 60 59 60 58 55 58 58 52 49 46 45 46 45 44 43 41 40 40 43 44 47 47 45 39 37 36 35 34 33 31 32 31 30 30 32
53 50 46 45 55 55 56 61 60 57 57 55 52 53 60 59 51 42 38 41 40 40 40 39 40 40 42 44 45 44 44 43 40 37 36 35 34 32 31 30 29 30 31 32

GFSCGP_sfc_temp_093.txt.gz
Temp
69 63 59 65 67 67 66 66 66 72 78 71 71 73 77 82 84 82 83 83 83 82 83 79 76 73 69 65 63 64 61 62 61 62 59 59 58 60 60 61 63 64 66 68
66 58 68 71 69 67 65 62 63 69 75 71 69 69 77 80 82 84 84 83 83 82 80 76 74 71 66 64 62 64 65 65 64 64 64 60 59 59 60 60 61 63 64 67
60 66 71 68 66 62 63 60 61 63 71 72 68 65 70 79 82 84 84 85 86 83 79 76 74 70 66 64 63 64 65 66 66 63 64 63 61 60 59 60 60 63 65 68
65 71 68 65 63 65 57 66 64 64 63 56 71 55 68 76 78 80 81 82 83 84 82 79 75 73 66 67 67 65 65 65 66 68 66 62 62 61 62 61 62 64 67 68
61 64 64 62 64 67 61 66 64 64 62 61 62 58 64 75 73 77 81 83 84 85 82 79 77 75 73 67 69 67 64 64 65 66 67 65 64 62 62 61 60 63 65 66
64 74 69 67 69 68 68 62 62 62 61 50 59 59 60 70 74 78 80 81 84 84 82 82 80 78 75 69 67 69 65 64 64 66 66 65 62 61 62 60 59 61 63 65
59 61 67 68 63 67 64 57 46 39 42 46 63 58 61 75 77 79 80 81 82 83 81 80 78 76 74 69 66 68 66 63 63 64 65 66 65 64 64 62 62 60 61 62
50 47 62 67 64 60 60 58 48 36 40 48 63 54 63 79 82 82 82 83 84 82 81 81 80 78 76 71 69 68 67 65 64 63 64 67 65 63 64 68 67 65 63 63
52 52 65 68 68 66 59 53 63 52 55 49 56 63 69 76 76 78 80 81 81 82 82 81 82 79 77 73 71 70 70 70 67 65 65 64 65 65 66 67 71 70 69 70
56 48 60 64 66 66 62 68 52 55 41 38 52 55 58 65 71 76 77 79 82 83 82 82 83 80 79 77 74 71 72 72 71 70 67 68 66 67 69 69 69 71 71 73
57 54 54 59 56 57 58 56 58 60 55 45 43 53 70 68 72 74 78 79 81 83 83 83 84 83 81 79 76 72 72 74 73 71 70 69 68 69 70 70 73 71 70 71
56 52 48 53 62 63 61 60 59 49 49 55 52 53 73 71 72 75 76 80 81 83 84 84 85 83 81 79 77 74 73 73 74 74 72 70 71 71 71 72 71 73 73 73
54 49 43 46 55 59 56 60 61 60 57 50 46 51 74 72 71 74 74 79 81 81 83 84 84 83 81 80 78 76 74 73 75 75 74 72 72 72 71 72 72 73 71 71
51 51 47 42 47 53 48 54 57 55 47 50 53 57 66 69 70 72 74 78 81 82 82 83 83 83 83 80 79 78 75 74 75 74 74 72 72 72 73 73 73 72 73 72
52 43 49 50 52 53 52 52 54 52 53 47 54 56 63 68 70 72 75 77 77 81 82 83 83 82 83 81 80 80 78 75 75 74 74 73 73 73 73 73 72 72 72 72
50 43 47 44 49 50 48 53 55 56 56 57 57 56 68 72 73 71 72 75 76 78 82 83 84 84 82 82 81 80 79 78 76 74 73 74 73 72 72 72 71 71 71 71
44 44 40 37 49 48 41 49 53 55 58 58 52 60 68 67 69 72 73 74 76 78 81 83 82 84 84 83 83 81 80 80 76 75 74 74 73 72 71 71 71 70 69 67
40 42 40 36 40 29 50 61 60 55 58 62 62 65 65 67 71 74 77 77 77 79 80 81 83 84 86 86 86 83 82 79 76 75 74 74 73 72 72 71 68 56 53 48
49 39 34 33 37 44 49 55 54 53 53 59 59 62 64 66 67 67 76 78 78 77 79 81 83 84 84 85 84 82 81 78 76 73 73 74 73 71 62 51 47 45 41 39
49 46 37 36 31 30 50 58 62 59 45 58 59 58 56 60 52 62 67 69 72 73 73 77 78 82 80 80 81 78 75 74 71 72 66 62 54 51 46 44 41 39 38 36
37 35 32 35 33 41 56 59 61 41 43 58 59 58 59 55 55 61 64 65 69 66 67 70 74 75 76 76 76 73 67 53 51 50 48 47 46 43 41 39 38 36 34 33
38 34 32 36 31 30 59 56 47 53 59 60 60 60 58 61 61 59 60 63 59 57 61 67 68 69 69 68 58 50 46 47 46 45 43 42 41 41 39 37 36 35 33 31
36 46 42 44 43 56 60 58 62 63 60 60 60 62 62 59 60 56 53 60 52 52 53 55 54 53 53 52 49 43 42 43 41 40 39 39 39 38 38 36 35 34 34 32
54 58 49 49 55 58 61 64 65 65 63 63 62 62 62 59 62 54 54 56 51 48 47 48 47 45 44 46 45 44 42 41 40 37 36 36 35 34 35 36 36 34 33 32
53 55 50 51 56 59 62 63 64 64 64 63 61 59 59 61 56 52 48 46 43 43 44 44 43 42 42 43 42 43 41 40 37 36 36 34 33 31 30 31 31 31 32 34
55 52 48 47 57 56 59 63 64 62 62 61 56 54 58 54 51 48 42 43 38 36 38 40 40 41 42 43 43 43 44 42 40 36 35 33 32 31 31 29 28 30 30 30

GFSCGP_sfc_temp_096.txt.gz
Temp
67 58 54 60 64 64 63 62 61 67 75 73 71 70 74 79 80 79 81 80 81 81 83 77 76 72 69 64 62 62 61 61 61 59 58 60 60 61 61 63 64 63 64 65
61 54 63 68 67 65 63 59 60 67 72 70 69 68 73 76 78 80 80 81 82 82 76 74 72 70 66 63 62 63 62 62 62 61 60 59 60 60 60 60 61 62 63 64
57 62 69 65 63 61 62 60 59 59 66 69 67 64 67 74 78 80 81 84 85 82 76 73 71 69 66 63 61 63 64 63 62 62 60 59 59 59 58 58 59 61 62 63
61 69 66 65 62 63 56 67 64 61 57 50 65 52 65 71 74 78 79 81 81 82 78 74 72 68 65 63 64 65 66 65 62 64 62 60 58 56 58 59 58 59 60 61
58 61 61 60 63 67 60 68 64 62 55 54 56 54 60 70 69 74 78 80 80 81 78 74 73 71 68 66 65 65 65 65 64 63 63 62 61 61 60 58 58 58 60 60
61 70 67 66 68 68 70 65 63 60 56 44 52 53 56 63 70 76 80 81 81 81 79 77 76 74 69 66 64 65 64 64 64 65 63 63 62 60 59 59 58 59 60 61
56 57 66 69 61 67 65 57 44 41 40 38 57 54 59 68 75 78 77 79 80 80 78 76 74 72 70 65 65 63 63 62 63 64 64 64 62 61 60 60 60 60 60 61
47 45 59 67 61 58 60 57 46 36 37 44 56 49 60 72 77 81 82 82 80 79 78 77 75 73 71 65 65 65 64 63 63 64 63 64 63 63 62 62 62 61 61 62
47 50 66 66 67 64 59 52 61 50 52 39 47 56 67 73 74 77 78 80 78 78 77 78 76 74 71 67 65 65 65 65 63 63 64 64 64 64 63 63 63 62 62 63
53 45 63 64 68 66 61 66 50 52 38 36 47 47 52 64 68 74 75 77 78 78 78 78 78 74 74 70 68 66 67 66 64 64 64 65 64 63 64 63 63 63 63 64
58 51 50 61 57 55 57 54 56 56 52 41 39 46 60 61 66 69 73 77 77 78 78 78 79 77 76 72 70 68 68 69 66 65 64 64 64 63 64 64 65 65 64 64
55 49 45 50 63 65 60 57 56 46 45 51 48 49 63 66 67 70 72 76 78 80 80 79 79 77 76 73 71 68 68 69 68 67 65 64 64 64 64 64 65 66 65 66
50 48 41 46 55 60 55 58 60 58 55 47 40 46 69 69 69 72 71 74 76 79 81 80 80 78 77 75 72 70 69 69 70 69 67 65 65 64 64 65 66 66 67 67
51 47 45 39 45 52 50 55 57 54 45 48 49 54 59 58 66 70 71 73 75 76 80 80 80 80 78 77 75 73 70 70 71 70 68 66 65 65 65 66 66 66 67 66
50 41 47 49 52 52 51 51 52 50 52 45 51 54 61 65 66 68 70 73 74 75 78 80 79 78 79 78 76 75 72 71 71 70 69 67 67 67 67 66 67 67 67 67
52 41 45 42 49 50 47 51 52 53 54 54 54 54 65 68 69 69 70 71 72 73 76 79 81 81 79 78 76 75 74 71 70 70 69 70 68 68 67 67 66 66 66 66
45 42 41 35 46 47 40 47 51 53 56 55 48 57 65 65 66 67 67 69 71 74 76 78 78 80 79 78 78 76 75 73 70 70 70 70 69 68 67 67 67 65 64 62
42 41 41 34 39 28 48 60 59 55 57 59 59 62 65 66 67 68 68 63 63 68 69 70 75 77 78 80 80 78 79 76 71 70 71 71 69 68 67 66 64 53 48 44
49 42 34 31 33 42 48 54 54 50 51 57 56 58 60 61 62 63 65 65 63 64 65 66 68 71 74 77 78 79 78 76 74 71 70 71 69 67 64 53 46 43 40 38
49 46 37 35 29 29 47 57 61 58 43 55 57 55 54 57 48 55 63 63 64 65 63 62 64 68 71 75 76 76 76 75 70 69 68 65 59 50 45 42 39 38 36 34
37 37 32 32 31 39 53 58 60 40 41 56 57 56 56 53 55 59 63 63 64 62 59 60 63 65 69 70 73 66 56 51 51 50 48 47 46 42 39 37 36 34 33 33
37 32 31 34 31 29 58 57 46 52 58 59 60 57 57 58 59 60 61 61 59 56 55 56 57 56 56 56 54 49 45 46 46 44 42 40 40 39 37 35 34 34 33 31
34 43 40 42 40 54 58 56 60 62 60 60 59 61 60 58 59 61 59 56 53 52 50 50 49 49 48 50 49 42 41 42 41 40 38 37 37 36 36 34 33 32 32 30
47 53 41 40 49 54 56 59 60 64 63 63 62 60 58 56 59 57 54 51 46 46 44 45 45 43 42 43 42 41 41 41 39 36 35 36 34 34 35 35 34 33 31 30
49 47 46 44 55 57 60 60 60 61 63 63 61 59 56 54 52 49 46 43 41 40 41 42 41 40 40 40 40 40 40 38 35 34 33 32 31 31 30 30 31 30 31 32
52 49 44 42 54 53 55 60 62 61 61 58 56 55 55 51 48 44 39 37 37 34 33 32 31 34 38 40 39 38 38 37 34 31 31 30 29 29 28 27 26 29 29 29

GFSCGP_sfc_temp_099.txt.gz
Temp
59 48 44 48 53 55 55 53 52 57 64 64 60 61 67 69 64 64 67 67 68 70 69 67 64 61 59 58 60 59 60 60 59 59 59 59 60 61 61 61 63 62 62 64
53 47 56 59 58 56 55 51 51 58 63 64 59 57 64 68 67 67 66 67 68 66 66 65 61 59 57 59 60 60 61 60 60 60 59 60 61 62 62 62 62 62 61 62
50 55 61 58 56 54 54 52 52 53 60 64 57 53 58 68 69 71 74 71 69 66 64 63 62 58 57 60 60 60 61 59 61 60 59 59 59 59 59 60 60 60 61 62
53 61 59 56 54 56 49 59 59 59 55 44 58 40 53 62 66 69 72 73 67 66 66 64 61 57 57 60 62 62 62 61 61 59 59 59 57 57 59 59 60 59 60 61
50 54 54 54 57 60 54 59 59 59 53 46 48 44 47 60 61 67 66 69 70 67 66 62 62 60 59 60 62 63 62 61 61 61 60 60 58 58 59 58 58 58 59 60
53 61 58 56 62 62 64 57 57 57 49 39 47 46 42 52 60 68 72 73 71 67 66 65 64 61 58 59 61 62 62 60 61 62 62 61 58 57 55 57 57 57 58 59
50 51 58 61 52 59 57 50 36 35 32 33 52 47 48 59 66 69 70 70 69 68 66 65 61 60 58 58 61 62 61 60 61 61 60 61 58 58 57 57 57 57 56 57
38 36 51 59 53 51 52 51 37 30 30 35 52 41 48 65 70 73 76 70 68 67 67 66 63 61 59 59 59 62 61 60 61 61 61 62 60 59 59 59 59 59 58 59
41 43 56 59 60 58 52 46 55 46 46 35 41 48 56 62 66 69 70 69 66 68 67 66 65 63 60 60 59 60 61 62 61 62 62 62 61 59 59 60 61 61 61 62
48 39 54 56 61 59 57 59 45 47 34 30 41 43 44 53 59 64 66 68 68 69 68 68 66 64 61 61 61 59 61 63 62 62 62 63 62 61 60 60 60 61 61 62
49 44 45 51 51 51 50 50 51 51 44 33 31 40 53 55 58 58 64 69 66 67 70 69 68 67 63 62 61 60 60 60 60 63 63 63 62 61 62 60 60 62 61 61
46 44 39 46 50 53 57 52 51 40 39 42 41 42 62 59 61 62 62 64 71 70 69 71 69 68 65 63 62 61 61 61 60 61 63 63 62 60 59 60 61 62 61 60
44 40 35 39 44 50 50 54 56 52 48 41 32 39 60 58 60 61 61 65 69 69 68 69 69 69 66 64 63 62 63 63 62 61 61 61 61 59 59 60 61 62 62 61
47 41 38 32 38 44 43 48 50 45 38 41 42 48 54 54 55 60 65 66 69 64 68 68 69 70 68 67 65 64 64 64 64 62 61 60 61 60 60 61 61 61 63 62
44 35 41 44 47 46 46 46 48 40 45 41 45 48 54 54 52 61 64 66 66 66 67 69 69 70 71 67 67 66 65 65 64 64 62 60 61 62 61 61 62 62 63 64
46 35 41 38 45 47 42 47 48 48 49 48 49 48 58 61 63 61 60 60 60 61 62 63 64 65 67 70 68 67 65 65 66 64 63 63 62 62 61 61 60 61 61 63
40 37 35 32 43 41 33 42 47 48 51 48 42 50 59 59 59 56 55 57 58 59 59 60 60 62 64 64 70 68 67 67 66 66 64 64 63 62 62 62 62 61 57 58
37 36 35 30 35 23 42 54 53 49 52 51 51 51 53 54 57 57 58 56 58 59 59 59 58 59 61 64 67 66 69 67 66 65 66 65 64 63 63 61 61 56 48 44
43 38 30 28 27 37 44 50 48 46 43 51 50 51 53 56 56 54 59 59 58 56 56 57 57 59 60 58 59 64 65 66 66 65 65 65 64 63 61 52 44 42 40 37
44 41 32 29 25 23 42 49 55 53 36 52 51 50 50 51 39 46 57 59 57 55 55 54 55 58 55 53 55 55 54 58 59 63 62 59 60 59 46 42 39 38 37 34
32 32 29 28 27 34 49 50 55 35 37 51 53 50 50 46 48 53 57 55 55 53 52 53 53 52 50 51 50 45 45 45 46 45 46 45 44 42 40 37 37 36 34 33
32 29 27 30 25 25 54 52 42 47 49 51 51 51 49 50 52 54 55 50 49 47 48 48 48 48 47 47 45 41 40 42 44 43 42 41 41 40 39 36 34 34 33 32
32 37 33 35 34 47 52 50 52 53 51 50 50 50 51 49 50 51 48 46 44 42 42 44 44 45 44 44 42 40 40 41 40 39 38 37 38 37 37 35 33 32 32 31
40 45 39 39 45 48 51 53 54 56 55 53 52 51 51 47 47 46 44 41 39 38 39 40 41 41 39 40 40 40 40 39 38 36 36 35 34 34 34 34 33 33 31 30
40 42 40 39 44 45 48 52 54 55 54 53 52 50 48 47 43 42 39 39 38 35 35 35 34 37 37 38 37 38 38 37 34 33 32 31 30 30 29 29 31 30 30 30
45 40 36 36 45 43 45 50 53 53 50 50 48 46 42 42 39 39 36 36 34 33 32 32 32 33 34 36 36 36 36 35 32 30 30 28 28 27 27 26 26 29 28 29

GFSCGP_sfc_temp_102.txt.gz
Temp
54 44 42 47 51 54 52 48 46 48 58 55 54 54 56 60 61 61 62 63 64 61 65 62 61 59 57 57 57 57 57 59 59 58 58 58 59 60 61 62 64 64 63 65
48 43 52 56 54 52 51 47 47 53 58 57 55 55 56 60 61 64 65 63 63 60 61 60 58 57 57 57 56 56 57 60 60 59 58 58 59 61 61 61 63 63 62 64
45 50 57 54 51 50 49 47 47 48 55 58 53 52 54 60 62 67 71 66 64 62 59 58 57 56 55 56 56 57 57 59 59 60 59 59 59 61 59 60 59 61 61 63
48 56 54 52 50 51 44 54 53 52 48 41 53 39 51 56 59 64 68 70 61 62 62 59 57 55 55 56 57 57 57 57 58 60 59 58 59 59 60 60 60 58 59 60
46 49 50 49 52 55 48 55 53 52 47 42 44 40 43 54 54 59 65 70 61 62 62 59 57 57 56 57 57 57 57 57 58 59 60 58 58 59 60 60 58 58 59 60
49 56 53 53 57 57 59 52 52 51 45 36 43 42 41 46 55 59 67 71 65 62 62 61 59 57 55 56 58 57 57 57 59 59 60 59 57 57 57 58 57 57 58 59
45 48 54 56 49 53 51 44 34 32 30 32 47 43 47 55 62 63 65 69 70 67 61 58 55 55 55 55 57 58 57 58 59 59 60 59 58 58 58 58 57 57 57 57
35 33 48 54 50 46 47 45 32 29 27 33 48 38 45 58 63 66 68 67 63 61 61 59 57 56 56 56 57 58 58 59 60 60 57 59 60 59 59 59 59 58 58 57
37 37 52 54 56 54 48 43 50 39 39 32 38 44 53 59 59 62 66 65 61 61 61 59 59 57 57 57 57 57 58 60 60 60 60 59 59 58 59 60 60 59 59 58
46 37 51 53 54 54 51 54 41 40 31 28 35 38 41 50 54 59 61 60 62 63 63 61 60 58 58 58 59 58 59 61 61 61 61 61 59 58 58 59 59 59 58 58
44 42 42 49 43 43 45 46 45 45 39 33 28 35 51 51 55 56 57 62 61 62 62 63 62 60 59 59 58 58 59 60 61 61 61 61 60 59 57 58 58 59 59 59
44 40 35 45 49 51 48 47 48 36 35 38 35 38 57 54 58 57 56 62 64 64 65 65 65 61 59 58 58 58 59 60 61 62 61 61 61 60 58 57 57 59 58 58
41 35 31 40 45 46 44 47 50 46 43 36 33 37 56 56 55 57 57 58 62 62 59 58 61 61 59 59 59 59 59 59 60 61 62 61 60 60 59 57 58 59 59 58
44 37 34 30 36 41 38 43 46 43 34 37 40 45 49 52 53 57 57 57 56 61 60 57 57 58 59 60 60 60 60 60 60 60 60 60 60 60 60 59 58 58 59 57
41 35 38 40 43 45 41 43 42 38 38 34 42 45 48 53 56 54 56 59 57 59 59 59 59 56 59 60 60 60 60 61 60 59 59 59 60 61 60 59 58 59 59 59
43 35 37 33 42 43 41 44 44 44 41 42 45 45 55 57 55 52 55 57 56 56 58 58 59 60 59 60 60 62 61 61 60 59 58 59 59 60 60 59 58 58 58 59
37 35 32 29 38 39 31 39 44 46 47 45 40 45 54 51 52 52 51 54 55 56 57 56 56 57 58 56 57 58 61 61 61 60 60 59 59 59 59 59 58 58 57 58
36 34 30 26 32 23 41 51 49 45 46 47 47 49 51 52 53 54 54 52 52 55 54 54 54 54 53 53 54 56 61 63 61 61 61 60 59 59 59 58 58 57 53 48
40 33 25 23 24 34 42 46 44 43 41 48 46 49 51 53 52 50 55 54 53 52 52 52 52 53 51 50 51 51 51 54 62 62 61 61 60 59 59 57 56 44 42 40
39 36 28 25 23 20 39 46 50 49 34 49 49 48 48 50 37 43 51 53 50 50 49 49 50 50 48 47 49 47 46 46 46 49 57 57 58 58 56 46 42 40 39 36
28 26 26 23 22 31 44 50 51 34 35 49 50 48 48 45 46 50 51 48 48 46 46 47 47 46 45 46 46 43 43 42 44 45 48 47 48 46 43 40 38 36 34 33
29 24 21 25 22 23 49 49 40 44 46 48 48 48 47 48 49 48 46 44 42 41 42 44 43 44 42 43 44 41 40 41 42 41 41 42 43 41 39 37 35 35 34 32
28 33 30 32 32 45 48 47 51 52 49 46 47 48 48 47 46 46 42 40 39 38 39 40 40 41 40 41 41 39 39 40 39 38 37 37 37 37 36 34 33 32 33 32
37 39 37 36 43 43 44 49 53 54 48 48 49 47 47 43 43 41 39 37 35 34 34 36 37 38 37 38 38 38 38 38 37 35 35 35 34 34 35 34 34 32 31 30
36 39 38 38 42 45 47 49 48 50 51 48 45 44 43 41 38 38 35 34 33 32 34 34 34 34 36 37 36 37 36 35 32 31 30 30 29 29 29 29 29 29 30 29
40 35 34 33 41 40 44 48 51 48 47 46 43 39 39 39 39 37 33 33 31 29 31 31 32 32 33 35 34 34 35 34 31 29 29 28 28 28 28 28 27 30 29 30

GFSCGP_sfc_temp_105.txt.gz
Temp
51 42 41 46 47 51 50 45 43 46 56 53 50 51 54 57 58 56 59 60 60 59 58 60 58 57 57 57 56 56 56 56 58 59 58 58 59 60 61 62 62 63 62 62
45 41 48 50 49 48 46 45 44 48 54 53 52 51 57 56 57 59 60 60 60 55 56 58 56 56 56 56 56 56 56 57 58 58 57 59 59 60 60 61 62 61 61 62
43 47 54 50 47 46 45 43 43 45 52 51 47 47 52 57 57 61 62 63 62 59 57 58 56 56 56 55 55 56 57 57 58 60 59 58 58 60 59 60 62 61 60 62
45 53 51 47 46 47 41 49 49 47 44 37 48 37 47 53 57 59 61 61 60 59 61 60 58 54 55 55 55 56 58 56 57 58 58 59 58 58 59 59 60 61 60 61
44 46 46 45 47 50 45 52 48 47 42 37 43 37 42 50 51 56 62 60 61 60 60 60 58 57 55 55 56 56 57 55 56 59 59 57 58 60 60 58 58 59 60 60
48 51 50 48 53 54 54 47 46 43 40 31 41 40 39 43 52 55 61 63 64 60 60 61 59 56 55 55 55 55 57 58 56 57 59 59 58 58 59 58 56 58 59 59
43 45 48 52 45 49 48 41 30 28 28 30 44 40 46 51 57 57 58 61 64 61 57 59 54 54 55 55 55 56 57 57 56 60 59 58 58 59 59 59 57 56 57 58
32 32 45 50 48 42 43 42 31 27 27 31 44 35 43 55 57 59 62 61 62 62 62 59 55 56 55 55 55 57 57 57 57 56 58 59 59 59 59 60 59 58 58 59
33 35 48 50 54 52 45 37 48 38 35 31 36 42 51 53 56 57 57 59 59 59 58 57 56 55 55 55 55 57 57 56 57 57 58 58 58 58 59 59 59 59 59 58
40 33 47 50 51 50 49 51 38 37 30 29 33 35 39 47 52 55 55 56 57 61 59 58 55 55 56 56 56 57 57 57 57 58 57 57 57 59 59 59 58 58 58 58
38 36 39 46 43 41 41 41 42 44 36 33 29 33 46 48 50 51 57 56 57 56 55 57 58 56 56 55 55 56 56 57 57 58 58 57 58 58 56 58 59 58 58 58
37 34 30 40 46 47 43 44 45 34 33 34 33 34 48 49 51 52 54 55 57 58 59 57 59 56 56 57 57 54 56 57 58 58 58 58 59 58 56 57 59 58 57 58
38 32 27 33 39 44 40 43 45 43 40 35 30 32 50 51 50 53 51 54 56 57 57 55 57 55 56 56 58 58 55 56 57 58 58 58 57 57 57 55 55 58 58 58
42 34 29 25 30 41 38 41 42 41 33 33 34 39 45 49 50 53 53 52 54 57 58 56 55 57 58 58 57 58 58 57 57 57 57 57 57 57 57 57 55 56 57 57
37 29 32 36 41 41 39 39 41 38 36 33 38 41 47 48 49 52 55 53 54 55 57 56 55 56 57 57 58 59 58 58 57 56 56 56 57 57 59 56 55 56 56 57
41 30 32 31 39 41 38 40 43 43 41 40 40 43 51 50 52 52 53 53 52 52 54 56 56 56 55 55 55 57 59 58 59 57 56 58 58 57 57 57 56 55 55 55
36 33 30 27 36 36 32 38 42 42 44 43 36 43 48 48 50 50 51 52 52 52 53 53 53 53 52 52 53 53 55 59 59 58 59 58 58 58 57 58 58 56 54 55
35 34 32 28 32 22 39 48 47 43 44 47 46 47 49 49 50 51 53 52 51 51 51 51 51 52 51 50 51 52 53 55 59 59 59 59 58 58 59 57 57 56 55 54
38 33 28 26 27 33 39 43 41 40 40 46 46 46 48 50 49 47 53 51 50 49 49 49 50 50 47 46 47 48 49 50 50 58 59 59 59 58 58 57 55 53 47 44
37 35 30 26 22 17 35 45 48 47 33 48 47 45 48 49 39 43 49 49 47 46 46 46 46 47 44 43 45 45 45 45 45 46 50 58 59 57 56 56 47 41 41 37
26 26 25 23 20 29 41 47 48 33 36 47 48 47 46 42 42 45 46 44 44 43 42 43 44 43 41 44 46 44 43 40 42 44 45 46 54 56 51 45 43 39 36 34
27 23 18 23 21 21 46 46 38 42 47 49 47 46 45 44 44 43 42 39 38 37 38 39 41 40 40 42 42 40 38 40 41 41 40 40 41 42 44 41 37 36 34 32
27 31 29 30 29 41 43 43 47 48 46 45 46 47 46 43 40 40 37 37 36 35 36 38 38 39 39 39 39 37 37 39 38 37 36 36 36 37 37 37 36 34 34 32
34 37 32 34 38 40 43 46 47 48 47 46 46 45 43 39 39 37 36 35 34 34 35 36 36 35 36 37 37 36 36 37 36 34 34 34 33 33 34 34 34 33 32 31
34 34 36 36 40 42 44 44 46 47 46 43 42 41 40 39 38 37 35 33 32 32 33 33 33 33 33 35 35 36 35 34 31 31 30 29 30 29 29 29 30 30 30 31
37 34 32 32 38 40 42 43 48 46 44 42 40 37 37 37 34 34 32 31 30 29 30 30 31 31 32 32 32 33 34 33 31 29 29 29 29 28 28 28 27 30 30 31

GFSCGP_sfc_temp_108.txt.gz
Temp
49 41 40 45 44 48 46 42 40 42 51 48 48 49 50 54 53 53 55 56 58 58 60 56 55 56 57 58 58 58 58 56 59 59 59 60 60 60 61 62 62 62 62 63
42 39 46 48 46 45 44 43 43 44 51 51 50 50 55 53 54 56 57 59 58 57 58 56 54 55 58 59 58 57 58 57 59 61 60 60 59 60 61 61 62 62 61 63
41 44 53 48 44 43 43 42 42 42 46 49 43 45 51 54 53 57 59 59 59 60 60 56 54 55 56 57 57 57 57 59 58 57 59 57 59 59 59 60 61 61 61 60
42 51 48 43 44 45 39 46 46 43 40 33 43 33 41 49 53 55 58 58 58 58 60 58 55 54 56 58 57 56 58 59 56 57 57 56 57 58 59 59 61 60 60 60
42 42 43 43 45 47 43 49 45 43 38 34 37 33 37 47 48 56 58 57 58 58 59 59 56 57 58 57 55 58 59 57 55 56 58 58 58 59 59 58 59 58 58 59
45 47 47 47 50 50 50 45 44 40 37 28 36 35 33 40 48 54 55 57 58 58 59 58 57 55 57 56 57 58 57 57 54 56 58 58 57 58 58 57 57 57 58 58
40 41 45 51 44 47 46 39 29 26 26 28 40 35 41 48 53 55 53 55 56 57 55 54 54 53 55 55 56 57 57 57 57 55 58 58 57 59 58 57 57 58 57 58
28 28 42 47 45 40 41 42 31 27 25 30 40 32 41 52 56 58 56 55 56 55 57 54 54 53 56 56 56 57 57 57 57 58 58 58 59 59 59 59 58 58 59 58
30 32 44 47 48 49 40 37 45 35 34 30 33 38 48 51 52 54 53 53 53 55 54 55 54 54 57 57 56 58 58 59 58 58 58 58 58 58 59 59 59 59 59 59
37 31 44 47 48 47 44 47 35 34 28 27 30 32 37 44 49 51 50 50 52 55 55 55 55 53 57 56 58 58 58 58 58 58 59 58 58 58 59 59 59 58 58 59
35 34 37 42 40 38 38 37 39 39 33 29 27 31 43 45 47 47 48 52 52 54 54 55 56 55 56 56 57 58 57 57 57 58 55 54 54 58 58 58 58 58 58 58
36 32 30 36 42 43 41 39 42 32 32 32 32 33 45 46 48 49 49 52 53 55 54 57 56 55 54 54 56 57 57 58 58 58 56 54 54 55 54 57 57 58 57 58
35 31 27 29 36 40 37 40 41 42 36 32 28 32 48 47 47 49 49 50 53 56 55 56 56 56 56 55 55 57 57 58 58 59 56 54 54 54 55 56 57 57 57 57
39 33 29 24 28 36 31 37 39 38 32 35 32 35 42 45 44 48 49 50 54 53 54 54 54 56 56 57 56 56 55 56 57 57 58 56 54 55 56 55 56 57 57 57
38 29 32 35 38 39 38 34 37 35 35 34 34 36 41 47 45 46 51 52 53 53 52 53 53 52 53 54 56 57 56 56 56 55 55 56 57 57 57 56 55 56 56 57
39 27 32 30 38 38 34 36 34 39 38 36 36 36 44 47 48 48 49 51 51 52 52 51 52 52 51 51 52 53 54 56 56 56 55 56 56 56 57 56 55 55 55 55
34 30 27 27 33 33 27 34 38 40 43 39 34 40 46 44 47 47 48 49 50 51 51 51 51 50 50 49 50 49 51 54 56 56 56 56 56 56 56 56 55 55 54 55
31 31 29 28 30 22 38 44 43 41 43 43 44 45 46 47 48 48 50 49 48 49 48 48 48 48 47 46 46 47 50 51 51 56 58 57 57 56 56 56 55 54 54 53
35 32 26 24 27 32 35 43 41 38 39 44 45 43 45 47 48 45 48 47 45 45 45 45 46 45 44 44 46 48 47 47 48 47 52 56 57 57 56 55 55 54 53 50
34 33 28 27 24 20 35 43 46 44 31 45 46 46 45 45 37 42 44 45 43 42 42 42 44 44 42 43 45 46 44 43 42 43 44 47 51 56 55 55 54 46 48 40
26 25 25 24 23 31 39 44 46 31 33 45 48 45 45 43 42 44 43 40 40 39 38 40 43 40 40 41 42 41 40 38 40 41 42 42 43 51 56 54 45 42 38 35
27 24 19 22 19 21 43 44 36 40 43 46 47 45 43 43 41 40 39 37 35 35 38 39 40 40 39 38 39 37 35 38 40 39 38 38 38 39 43 44 40 37 36 33
23 31 28 29 28 39 41 41 45 46 45 43 45 45 44 43 40 39 37 36 35 36 36 36 35 37 37 37 37 34 35 36 37 36 35 35 36 36 37 36 36 35 35 33
33 35 31 31 36 37 39 42 44 45 43 43 44 43 41 37 37 36 36 35 34 33 32 33 34 34 33 35 35 34 35 35 33 32 31 31 31 32 33 33 33 33 33 32
34 33 33 33 37 39 41 41 43 44 43 41 41 41 39 37 36 36 34 33 31 30 32 33 32 31 31 32 32 33 34 34 31 30 30 30 30 30 29 30 30 30 30 32
36 33 31 31 37 38 37 41 44 41 40 41 38 35 35 35 34 33 30 30 29 29 30 29 29 29 29 30 29 30 31 31 30 29 29 29 29 29 29 29 28 32 31 32

GFSCGP_sfc_temp_111.txt.gz
Temp
53 47 44 50 52 53 51 48 47 52 58 56 56 57 61 64 64 63 67 68 70 71 76 74 69 66 67 67 67 67 66 65 64 62 61 62 61 62 62 63 63 63 63 62
47 43 52 53 51 50 49 47 47 52 56 55 55 55 61 63 63 66 66 68 69 71 72 73 69 62 62 63 66 65 66 64 65 65 63 67 63 62 63 64 64 65 63 63
45 50 54 50 47 46 47 45 46 46 53 55 52 51 56 63 64 65 66 67 70 68 69 72 70 64 61 62 61 62 64 63 65 67 65 62 63 62 61 62 63 63 63 63
46 54 51 47 46 49 43 50 49 48 46 41 52 42 53 59 61 61 65 64 64 65 67 70 70 67 62 62 62 62 63 63 63 64 64 61 62 62 62 62 63 61 62 62
43 46 46 46 47 50 46 52 49 48 45 45 47 42 49 54 56 59 61 61 62 64 64 66 70 70 66 64 60 61 65 63 61 62 62 61 62 63 62 61 61 61 61 60
44 51 51 51 53 53 53 50 48 46 45 35 43 43 45 53 57 57 58 60 61 63 64 65 66 66 65 64 59 62 64 61 60 63 62 62 62 62 61 60 59 59 58 57
42 43 50 53 48 51 50 46 36 33 32 34 45 41 48 55 58 59 57 58 60 62 63 63 63 62 62 58 58 61 62 58 60 63 64 64 63 62 63 61 59 57 56 55
33 33 44 51 50 46 45 45 36 28 30 37 44 38 47 59 63 60 58 60 61 61 62 62 62 62 61 58 58 59 59 58 60 62 64 65 64 63 63 61 61 58 58 56
34 35 47 49 52 52 44 40 51 40 40 37 42 47 54 56 56 57 56 58 58 59 60 61 62 61 61 59 58 58 59 60 59 62 63 62 61 62 60 61 61 60 59 57
35 31 46 49 52 53 49 53 38 41 31 30 38 41 46 49 51 54 54 55 57 59 59 60 60 60 61 59 58 59 61 60 60 61 61 61 60 61 61 60 60 60 59 58
34 34 41 46 44 43 45 43 46 46 41 35 34 40 51 51 54 54 54 55 56 57 58 58 58 58 58 58 58 58 59 59 59 59 60 59 59 61 60 59 59 60 59 59
36 33 31 41 43 45 49 46 47 40 36 41 42 42 51 52 54 55 54 55 57 59 59 59 57 57 56 57 57 57 58 58 60 59 60 60 60 60 60 58 59 59 58 59
34 32 28 35 40 43 37 43 45 47 43 40 36 41 51 53 53 54 54 55 57 59 59 59 56 54 54 56 57 58 59 59 60 60 61 58 58 59 59 59 58 58 58 58
37 32 29 28 32 37 34 37 40 41 38 41 42 42 46 50 52 53 53 54 56 58 59 59 57 54 53 53 56 57 59 61 62 61 61 59 59 60 58 59 58 58 59 58
39 28 31 34 39 40 38 36 36 36 40 39 45 44 49 51 52 53 54 55 55 56 56 56 53 51 51 50 51 53 56 59 62 62 61 59 60 61 59 58 58 58 58 58
40 32 33 30 37 39 36 38 38 40 41 41 42 42 48 52 54 53 53 54 53 52 52 52 52 49 48 47 47 51 52 53 57 60 60 61 60 60 60 58 57 57 57 57
34 32 32 29 36 35 32 36 38 40 42 43 40 45 49 47 49 50 51 52 51 50 51 50 50 47 46 44 46 46 51 54 54 57 59 59 59 60 59 60 59 57 57 57
33 32 33 29 33 23 40 46 46 40 41 47 46 47 49 48 50 50 53 50 48 48 47 47 47 45 45 46 45 48 51 50 51 50 54 58 59 59 60 60 58 59 59 57
37 34 29 27 28 35 39 43 42 39 40 46 46 47 49 50 51 45 48 47 45 45 45 46 47 45 45 44 46 48 46 46 47 45 46 47 49 57 58 58 57 58 56 56
36 36 31 30 25 23 37 45 49 47 37 47 48 46 47 48 39 44 43 45 43 43 43 44 44 45 43 42 44 43 42 42 41 41 43 44 45 46 55 57 57 55 55 52
30 30 27 28 26 33 43 46 48 35 37 47 47 46 46 41 43 43 44 41 42 42 42 43 44 42 41 41 43 40 39 37 39 40 41 40 41 43 44 54 52 49 42 39
28 27 26 29 25 23 45 46 38 42 46 49 49 48 45 42 41 41 40 39 39 39 39 40 40 39 40 39 40 38 36 37 38 38 38 38 37 38 40 41 40 39 38 35
27 31 29 32 33 40 44 42 46 46 46 46 47 47 45 42 40 40 38 38 37 37 36 38 38 37 37 37 36 34 35 36 36 35 34 34 35 35 35 36 36 35 34 33
34 37 32 32 39 40 40 45 44 45 43 45 46 45 43 39 39 38 37 36 35 35 35 36 36 35 33 34 34 34 35 36 34 33 32 32 32 32 33 33 34 34 33 32
32 34 32 33 39 39 37 41 44 43 42 42 41 41 40 39 38 37 35 34 33 33 34 34 32 32 31 33 32 33 34 34 33 32 32 31 31 31 30 30 31 31 32 33
35 31 28 29 34 35 32 36 39 38 39 40 38 36 37 38 35 34 32 32 32 32 32 31 30 30 30 31 30 30 32 34 32 31 30 30 30 30 30 30 29 32 32 32

GFSCGP_sfc_temp_117.txt.gz
Temp
64 58 54 61 63 62 58 56 55 61 71 68 67 68 72 77 79 78 79 81 83 84 89 91 92 93 93 92 89 87 86 83 82 79 75 71 71 70 71 73 73 74 72 72
57 52 62 65 64 63 61 55 55 62 67 65 66 64 70 74 76 79 79 80 81 82 86 87 90 90 89 88 85 86 86 84 82 74 71 75 77 74 76 75 73 72 71 71
52 57 63 59 59 57 59 56 57 56 63 66 63 60 65 71 75 78 80 82 83 83 84 86 87 88 88 85 84 84 85 84 80 71 74 78 77 71 70 68 71 71 70 67
52 59 56 55 54 58 51 63 60 57 54 49 63 49 62 70 73 76 78 80 81 83 85 86 86 86 86 86 85 84 85 84 77 71 75 77 74 69 72 73 72 71 72 69
48 51 51 52 55 60 54 63 60 59 55 53 55 53 61 70 68 72 76 78 81 81 82 83 85 87 89 88 83 82 84 83 76 75 78 77 78 76 77 77 74 71 70 70
52 59 56 54 57 59 60 57 59 58 55 42 52 53 57 64 68 72 75 77 77 78 80 82 84 84 86 82 80 77 79 81 77 75 78 76 77 77 77 75 73 69 70 71
47 51 57 59 52 57 56 50 41 38 40 40 56 52 57 68 73 75 74 74 75 77 78 79 80 82 83 80 75 69 71 75 73 72 75 77 77 77 75 75 73 70 69 66
36 34 47 48 46 49 51 50 42 32 36 42 57 49 59 72 76 76 76 75 75 76 77 77 77 78 77 76 74 66 68 68 66 71 73 76 76 76 75 74 75 73 69 68
32 35 48 53 55 53 51 47 56 47 51 44 52 58 66 72 72 71 71 72 72 74 75 75 75 74 73 71 68 65 66 65 64 67 70 73 74 74 73 73 73 73 71 66
37 27 46 50 52 55 55 59 45 48 35 35 48 52 54 62 65 69 69 70 71 71 70 70 70 69 68 67 65 64 65 64 65 68 70 72 73 74 73 70 69 69 66 64
42 33 38 42 42 46 52 49 52 51 48 39 39 49 67 67 68 68 70 70 70 70 70 68 64 63 61 63 64 62 62 62 63 66 69 72 73 73 71 69 69 68 64 62
39 33 32 36 47 51 53 53 53 43 42 48 48 50 69 71 70 70 66 69 71 70 69 68 65 62 58 56 60 61 60 60 62 65 66 69 70 70 69 68 68 66 61 60
41 35 27 38 40 44 43 53 54 53 54 46 41 47 67 69 66 65 66 68 69 69 69 69 67 62 57 53 52 52 58 60 61 64 65 65 66 68 68 67 66 62 59 58
46 36 30 25 30 37 31 40 52 51 44 47 49 54 53 65 66 65 64 68 69 69 68 66 63 60 58 52 51 51 51 53 59 62 64 65 64 65 67 68 67 63 60 58
45 32 37 40 44 43 42 40 45 45 46 44 51 55 59 63 65 66 67 66 65 63 63 63 61 59 58 53 50 50 50 51 53 56 62 62 66 66 67 66 68 66 62 59
46 35 40 37 44 44 41 41 42 47 49 52 54 51 63 60 64 67 66 66 60 61 62 61 61 60 58 54 48 49 48 49 50 51 53 66 66 66 67 67 66 64 64 62
39 38 37 33 43 38 33 41 44 45 47 51 46 56 61 64 49 63 63 59 57 60 61 60 60 59 59 57 51 46 47 48 47 48 48 50 62 62 63 67 66 65 63 65
40 37 39 33 38 24 40 53 49 48 51 51 49 48 52 56 53 55 55 54 56 58 59 59 59 59 59 59 58 53 46 45 44 44 45 46 47 50 58 62 65 65 64 63
49 40 34 32 33 38 41 48 47 45 46 52 52 55 51 50 55 49 53 55 56 57 59 59 59 58 58 57 57 56 51 44 42 41 41 42 44 44 47 52 61 64 64 62
48 45 37 36 30 26 41 50 56 54 38 48 48 50 48 51 42 40 53 56 56 57 58 58 58 57 55 55 57 53 49 45 39 39 39 40 42 42 43 45 47 54 62 63
37 38 34 36 33 40 48 51 54 34 33 46 40 47 46 41 40 44 51 53 56 55 54 57 56 53 52 52 54 51 48 43 41 39 40 40 39 40 41 41 44 47 50 45
33 31 31 36 33 29 47 47 34 39 46 42 42 46 46 50 48 46 47 50 52 53 53 55 53 51 50 50 50 48 44 44 42 39 38 39 38 38 39 39 39 41 41 37
30 34 31 34 35 41 41 38 44 44 41 40 44 50 49 45 45 46 47 49 49 50 51 52 51 49 48 48 46 44 43 44 41 39 37 35 37 36 36 35 35 35 35 35
40 43 35 37 40 36 35 36 39 40 39 40 45 50 49 48 48 47 45 46 47 46 47 48 47 46 44 45 44 44 43 42 39 36 35 35 33 33 33 34 33 34 33 33
36 36 33 37 41 39 39 34 35 37 37 38 38 49 48 47 45 46 44 43 44 45 45 44 43 41 41 42 41 41 40 41 37 35 34 33 33 32 30 30 31 30 31 32
37 31 30 29 33 32 35 35 36 34 34 35 37 41 46 47 44 43 40 38 38 38 39 38 37 37 37 38 36 36 37 38 36 33 33 32 32 32 31 30 28 31 31 31

GFSCGP_sfc_temp_120.txt.gz
Temp
65 56 52 58 60 60 58 55 53 59 65 63 61 63 69 74 74 73 76 77 79 81 86 88 87 86 85 83 82 80 79 78 77 77 74 73 73 71 70 70 70 70 70 70
55 50 60 62 61 59 57 54 54 61 64 61 60 60 66 70 73 74 76 77 78 79 82 84 84 83 81 81 80 79 80 79 79 78 76 75 74 69 69 69 70 69 70 70
48 53 59 56 54 53 53 51 52 54 61 63 59 54 61 68 72 75 76 77 78 80 80 81 82 80 79 79 77 78 79 79 79 77 73 71 70 70 68 68 68 68 70 69
51 57 53 52 50 52 45 57 57 55 53 45 60 42 57 64 67 71 73 74 75 79 82 82 82 81 78 76 76 77 78 78 78 73 70 70 68 68 69 68 68 67 68 67
47 50 49 48 49 53 48 57 54 54 51 51 52 47 53 63 62 68 73 75 76 78 79 80 83 83 82 78 75 75 77 77 74 71 70 70 70 70 69 69 66 67 67 67
51 57 54 52 54 52 53 51 51 51 49 39 49 48 49 56 62 69 75 77 78 79 78 79 80 81 82 76 74 74 76 77 71 70 71 70 71 69 70 69 67 66 66 66
45 49 54 56 46 50 47 41 33 32 34 36 52 48 51 62 68 70 72 72 74 75 75 77 79 79 78 75 73 72 73 74 71 71 70 71 72 72 71 70 69 66 65 65
35 32 46 52 45 41 38 40 34 24 30 37 52 43 52 66 70 74 75 73 74 73 74 74 75 75 75 73 71 67 67 68 71 71 70 70 71 71 71 70 70 67 66 64
32 34 49 51 52 48 42 39 49 40 43 38 47 53 62 67 69 71 70 71 70 71 71 71 71 70 68 68 68 66 65 66 66 66 67 68 68 69 69 70 68 67 67 65
41 30 44 48 50 52 46 52 38 41 29 28 39 46 51 60 64 69 68 68 68 69 68 67 66 64 65 66 65 64 64 63 64 65 65 67 67 68 69 68 67 67 66 64
45 36 36 43 34 33 36 37 45 45 43 33 32 42 62 63 66 66 67 68 65 66 65 64 63 61 59 60 61 63 61 61 62 62 64 65 66 67 68 67 67 65 63 63
46 36 29 36 41 48 48 38 41 38 36 44 43 43 65 64 66 68 69 69 68 66 65 63 61 58 55 54 54 53 58 60 61 62 62 64 64 66 65 65 65 65 63 62
44 35 26 32 40 44 41 45 44 43 44 41 36 43 66 66 57 69 65 64 63 65 65 62 59 57 54 52 51 52 52 53 57 60 61 61 62 64 64 64 64 63 61 60
47 37 30 24 30 38 35 39 40 41 35 41 45 50 59 61 51 53 54 53 53 62 63 61 59 57 54 53 51 50 50 52 53 55 59 59 60 62 63 64 64 61 60 58
46 32 36 39 42 43 41 42 41 41 45 35 46 50 56 56 52 53 58 58 61 62 61 60 57 56 55 52 51 50 49 49 51 52 53 57 60 62 64 64 63 62 59 58
46 33 38 36 43 45 41 41 38 44 47 46 48 49 56 61 50 50 50 56 57 58 59 59 59 58 55 53 51 49 47 47 48 48 48 50 52 63 64 62 62 61 60 58
41 37 35 30 41 40 34 33 38 36 44 45 41 50 52 50 48 46 43 48 55 57 58 58 57 56 57 55 52 48 47 47 46 46 46 47 47 50 54 62 61 60 60 59
42 39 37 31 36 24 35 48 49 45 37 42 44 47 49 47 48 49 48 46 51 54 56 57 56 56 56 56 55 52 49 45 43 43 43 44 45 45 48 51 59 60 59 59
50 42 33 29 31 38 37 44 43 41 40 42 41 44 47 50 50 46 53 53 52 54 56 56 56 55 54 54 55 53 50 45 42 40 40 41 42 42 43 45 47 51 59 58
47 46 34 33 26 26 34 46 50 52 33 40 41 40 42 49 35 39 51 54 53 55 55 55 54 53 51 51 54 50 47 44 40 39 39 40 39 40 40 41 42 46 50 57
35 36 32 32 30 35 36 45 50 30 30 40 37 39 38 35 39 46 52 53 53 53 53 55 52 49 48 49 51 47 44 41 42 41 39 38 38 38 38 38 41 42 45 43
32 30 30 31 30 25 36 40 31 35 40 38 36 41 42 42 44 45 48 49 50 50 51 52 49 47 47 47 47 44 41 43 42 41 38 37 35 35 37 37 37 38 38 36
30 32 30 31 30 35 38 34 36 38 37 36 35 43 44 45 46 46 46 47 47 47 47 48 47 45 45 44 43 40 40 41 39 37 36 35 35 33 33 33 33 34 35 34
41 42 33 35 36 36 35 36 35 36 35 38 37 43 45 43 43 43 43 44 44 44 43 44 43 41 40 41 40 39 39 40 37 35 34 34 32 31 31 32 32 32 32 33
37 39 34 36 39 38 39 35 35 35 35 35 38 38 44 44 42 39 37 37 37 38 39 39 37 37 36 37 35 36 37 38 35 33 32 32 31 30 29 29 29 29 29 31
39 33 31 30 33 32 35 35 36 35 34 35 35 36 37 42 39 36 33 33 33 32 33 32 32 33 33 33 32 33 35 36 34 31 31 30 30 30 29 28 27 31 30 31